[[{"header":{"parameterUnit":"m.s-1","parameterCategory":1,"la1":30.6,"la2":28.766,"lo1":-90.7593,"lo2":-88.6598,"dx":0.0162,"dy":0.0183,"nx":116,"ny":114,"refTime":"2023-01-19T06:00:00:Z","depth":0,"parameterNumber":2,"parameterNumberName":"U-component_of_WINDS"},"data":[0.0,0.0,0.0,0.0,0.0,0.0,0.0,0.0,0.0,0.0,0.0,0.0,0.0,0.0,0.0,0.0,0.0,0.0,0.0,0.0,0.0,0.0,0.0,0.0,0.0,0.0,0.0,0.0,0.0,0.0,0.0,0.0,0.0,0.0,0.0,0.0,0.0,0.0,0.0,0.0,0.0,0.0,0.0,0.0,0.0,0.0,0.0,0.0,0.0,0.0,0.0,0.0,0.0,0.0,0.0,0.0,0.0,0.0,0.0,0.0,0.0,0.0,0.0,0.0,0.0,0.0,0.0,0.0,0.0,0.0,0.0,0.0,0.0,0.0,0.0,0.0,0.0,0.0,0.0,0.0,0.0,0.0,0.0,0.0,0.0,0.0,0.0,0.0,0.0,0.0,0.0,0.0,0.0,0.0,0.0,0.0,0.0,0.0,0.0,0.0,0.0,0.0,0.0,0.0,0.0,0.0,0.0,0.0,0.0,0.0,0.0,0.0,0.0,0.0,0.0,0.0,0.0,0.0,0.0,0.0,0.0,0.0,0.0,0.0,0.0,0.0,0.0,0.0,0.0,0.0,0.0,0.0,0.0,0.0,0.0,0.0,0.0,0.0,0.0,0.0,0.0,0.0,0.0,0.0,0.0,0.0,0.0,0.0,0.0,0.0,0.0,0.0,0.0,0.0,0.0,0.0,0.0,0.0,0.0,0.0,0.0,0.0,0.0,0.0,0.0,0.0,0.0,0.0,0.0,0.0,0.0,0.0,0.0,0.0,0.0,0.0,0.0,0.0,0.0,0.0,0.0,0.0,0.0,0.0,0.0,0.0,0.0,0.0,0.0,0.0,0.0,0.0,0.0,0.0,0.0,0.0,0.0,0.0,0.0,0.0,0.0,0.0,0.0,0.0,0.0,0.0,0.0,0.0,0.0,0.0,0.0,0.0,0.0,0.0,0.0,0.0,0.0,0.0,0.0,0.0,0.0,0.0,0.0,0.0,0.0,0.0,0.0,0.0,0.0,0.0,0.0,0.0,0.0,0.0,0.0,0.0,0.0,0.0,0.0,0.0,0.0,0.0,0.0,0.0,0.0,0.0,0.0,0.0,0.0,0.0,0.0,0.0,0.0,0.0,0.0,0.0,0.0,0.0,0.0,0.0,0.0,0.0,0.0,0.0,0.0,0.0,0.0,0.0,0.0,0.0,0.0,0.0,0.0,0.0,0.0,0.0,0.0,0.0,0.0,0.0,0.0,0.0,0.0,0.0,0.0,0.0,0.0,0.0,0.0,0.0,0.0,0.0,0.0,0.0,0.0,0.0,0.0,0.0,0.0,0.0,0.0,0.0,0.0,0.0,0.0,0.0,0.0,0.0,0.0,0.0,0.0,0.0,0.0,0.0,0.0,0.0,0.0,0.0,0.0,0.0,0.0,0.0,0.0,0.0,0.0,0.0,0.0,0.0,0.0,0.0,0.0,0.0,0.0,0.0,0.0,0.0,0.0,0.0,0.0,0.0,0.0,0.0,0.0,0.0,0.0,0.0,0.0,0.0,0.0,0.0,0.0,0.0,0.0,0.0,0.0,0.0,0.0,0.0,0.0,0.0,0.0,0.0,0.0,0.0,0.0,0.0,0.0,0.0,0.0,0.0,0.0,0.0,0.0,0.0,0.0,0.0,0.0,0.0,0.0,0.0,0.0,0.0,0.0,0.0,0.0,0.0,0.0,0.0,0.0,0.0,0.0,0.0,0.0,0.0,0.0,0.0,0.0,0.0,0.0,0.0,0.0,0.0,0.0,0.0,0.0,0.0,0.0,0.0,0.0,0.0,0.0,0.0,0.0,0.0,0.0,0.0,0.0,0.0,0.0,0.0,0.0,0.0,0.0,0.0,0.0,0.0,0.0,0.0,0.0,0.0,0.0,0.0,0.0,0.0,0.0,0.0,0.0,0.0,0.0,0.0,0.0,0.0,0.0,0.0,0.0,0.0,0.0,0.0,0.0,0.0,0.0,0.0,0.0,0.0,0.0,0.0,0.0,0.0,0.0,0.0,0.0,0.0,0.0,0.0,0.0,0.0,0.0,0.0,0.0,0.0,0.0,0.0,0.0,0.0,0.0,0.0,0.0,0.0,0.0,0.0,0.0,0.0,0.0,0.0,0.0,0.0,0.0,0.0,0.0,0.0,0.0,0.0,0.0,0.0,0.0,0.0,0.0,0.0,0.0,0.0,0.0,0.0,0.0,0.0,0.0,0.0,0.0,0.0,0.0,0.0,0.0,0.0,0.0,0.0,0.0,0.0,0.0,0.0,0.0,0.0,0.0,0.0,0.0,0.0,0.0,0.0,0.0,0.0,0.0,0.0,0.0,0.0,0.0,0.0,0.0,0.0,0.0,0.0,0.0,0.0,0.0,0.0,0.0,0.0,0.0,0.0,0.0,0.0,0.0,0.0,0.0,0.0,0.0,0.0,0.0,0.0,0.0,0.0,0.0,0.0,0.0,0.0,0.0,0.0,0.0,0.0,0.0,0.0,0.0,0.0,0.0,0.0,0.0,0.0,0.0,0.0,0.0,0.0,0.0,0.0,0.0,0.0,0.0,0.0,0.0,0.0,0.0,0.0,0.0,0.0,0.0,0.0,0.0,0.0,0.0,0.0,0.0,0.0,0.0,0.0,0.0,0.0,0.0,0.0,0.0,0.0,0.0,0.0,0.0,0.0,0.0,0.0,0.0,0.0,0.0,0.0,0.0,0.0,0.0,0.0,0.0,0.0,0.0,0.0,0.0,0.0,0.0,0.0,0.0,0.0,0.0,0.0,0.0,0.0,0.0,0.0,0.0,0.0,0.0,0.0,0.0,0.0,0.0,0.0,0.0,0.0,0.0,0.0,0.0,0.0,0.0,0.0,0.0,0.0,0.0,0.0,0.0,0.0,0.0,0.0,0.0,0.0,0.0,0.0,0.0,0.0,0.0,0.0,0.0,0.0,0.0,0.0,0.0,0.0,0.0,0.0,0.0,0.0,0.0,0.0,0.0,0.0,0.0,0.0,0.0,0.0,0.0,0.0,0.0,0.0,0.0,0.0,0.0,0.0,0.0,0.0,0.0,0.0,0.0,0.0,0.0,0.0,0.0,0.0,0.0,0.0,0.0,0.0,0.0,0.0,0.0,0.0,0.0,0.0,0.0,0.0,0.0,0.0,0.0,0.0,0.0,0.0,0.0,0.0,0.0,0.0,0.0,0.0,0.0,0.0,0.0,0.0,0.0,0.0,0.0,0.0,0.0,0.0,0.0,0.0,0.0,0.0,0.0,0.0,0.0,0.0,0.0,0.0,0.0,0.0,0.0,0.0,0.0,0.0,0.0,0.0,0.0,0.0,0.0,0.0,0.0,0.0,0.0,0.0,0.0,0.0,0.0,0.0,0.0,0.0,0.0,0.0,0.0,0.0,0.0,0.0,0.0,0.0,0.0,0.0,0.0,0.0,0.0,0.0,0.0,0.0,0.0,0.0,0.0,0.0,0.0,0.0,0.0,0.0,0.0,0.0,0.0,0.0,0.0,0.0,0.0,0.0,0.0,0.0,0.0,0.0,0.0,0.0,0.0,0.0,0.0,0.0,0.0,0.0,0.0,0.0,0.0,0.0,0.0,0.0,0.0,0.0,0.0,0.0,0.0,0.0,0.0,0.0,0.0,0.0,0.0,0.0,0.0,0.0,0.0,0.0,0.0,0.0,0.0,0.0,0.0,0.0,0.0,0.0,0.0,0.0,0.0,0.0,0.0,0.0,0.0,0.0,0.0,0.0,0.0,0.0,0.0,0.0,0.0,0.0,0.0,0.0,0.0,0.0,0.0,0.0,0.0,0.0,0.0,0.0,0.0,0.0,0.0,0.0,0.0,0.0,0.0,0.0,0.0,0.0,0.0,0.0,0.0,0.0,0.0,0.0,0.0,0.0,0.0,0.0,0.0,0.0,0.0,0.0,0.0,0.0,0.0,0.0,0.0,0.0,0.0,0.0,0.0,0.0,0.0,0.0,0.0,0.0,0.0,0.0,0.0,0.0,0.0,0.0,0.0,0.0,0.0,0.0,0.0,0.0,0.0,0.0,0.0,0.0,0.0,0.0,0.0,0.0,0.0,0.0,0.0,0.0,0.0,0.0,0.0,0.0,0.0,0.0,0.0,0.0,0.0,0.0,0.0,0.0,0.0,0.0,0.0,0.0,0.0,0.0,0.0,0.0,0.0,0.0,0.0,0.0,0.0,0.0,0.0,0.0,0.0,0.0,0.0,0.0,0.0,0.0,0.0,0.0,0.0,0.0,0.0,0.0,0.0,0.0,0.0,0.0,0.0,0.0,0.0,0.0,0.0,0.0,0.0,0.0,0.0,0.0,0.0,0.0,0.0,0.0,0.0,0.0,0.0,0.0,0.0,0.0,0.0,0.0,0.0,0.0,0.0,0.0,0.0,0.0,0.0,0.0,0.0,0.0,0.0,0.0,0.0,0.0,0.0,0.0,0.0,0.0,0.0,0.0,0.0,0.0,0.0,0.0,0.0,0.0,0.0,0.0,0.0,0.0,0.0,0.0,0.0,0.0,0.0,0.0,0.0,0.0,0.0,0.0,0.0,0.0,0.0,0.0,0.0,0.0,0.0,0.0,0.0,0.0,0.0,0.0,0.0,0.0,0.0,0.0,0.0,0.0,0.0,0.0,0.0,0.0,0.0,0.0,0.0,0.0,0.0,0.0,0.0,0.0,0.0,0.0,0.0,0.0,0.0,0.0,0.0,0.0,0.0,0.0,0.0,0.0,0.0,0.0,0.0,0.0,0.0,0.0,0.0,0.0,0.0,0.0,0.0,0.0,0.0,0.0,0.0,0.0,0.0,0.0,0.0,0.0,0.0,0.0,0.0,0.0,0.0,0.0,0.0,0.0,0.0,0.0,0.0,0.0,0.0,0.0,0.0,0.0,0.0,0.0,0.0,0.0,0.0,0.0,0.0,0.0,0.0,0.0,0.0,0.0,0.0,0.0,0.0,0.0,0.0,0.0,0.0,0.0,0.0,0.0,0.0,0.0,0.0,0.0,0.0,0.0,0.0,0.0,0.0,0.0,0.0,0.0,0.0,0.0,0.0,0.0,0.0,0.0,0.0,0.0,0.0,0.0,0.0,0.0,0.0,0.0,0.0,0.0,0.0,0.0,0.0,0.0,0.0,0.0,0.0,0.0,0.0,0.0,0.0,0.0,0.0,0.0,0.0,0.0,0.0,0.0,0.0,0.0,0.0,0.0,0.0,0.0,0.0,0.0,0.0,0.0,0.0,0.0,0.0,0.0,0.0,0.0,0.0,0.0,0.0,0.0,0.0,0.0,0.0,0.0,0.0,0.0,0.0,0.0,0.0,0.0,0.0,0.0,0.0,0.0,0.0,0.0,0.0,0.0,0.0,0.0,0.0,0.0,0.0,0.0,0.0,0.0,0.0,0.0,0.0,0.0,0.0,0.0,0.0,0.0,0.0,0.0,0.0,0.0,0.0,0.0,0.0,0.0,0.0,0.0,0.0,0.0,0.0,0.0,0.0,0.0,0.0,0.0,0.0,0.0,0.0,0.0,0.0,0.0,0.0,0.0,0.0,0.0,0.0,0.0,0.0,0.0,0.0,0.0,0.0,0.0,0.0,0.0,0.0,0.0,0.0,0.0,0.0,0.0,0.0,0.0,0.0,0.0,0.0,0.0,0.0,0.0,0.0,0.0,0.0,0.0,0.0,0.0,0.0,0.0,0.0,0.0,0.0,0.0,0.0,0.0,0.0,0.0,0.0,0.0,0.0,0.0,0.0,0.0,0.0,0.0,0.0,0.0,0.0,0.0,0.0,0.0,0.0,0.0,0.0,0.0,0.0,0.0,0.0,0.0,0.0,0.0,0.0,0.0,0.0,0.0,0.0,0.0,0.0,0.0,0.0,0.0,0.0,0.0,0.0,0.0,0.0,0.0,0.0,0.0,0.0,0.0,0.0,0.0,0.0,0.0,0.0,0.0,0.0,0.0,0.0,0.0,0.0,0.0,0.0,0.0,0.0,0.0,0.0,0.0,0.0,0.0,0.0,0.0,0.0,0.0,0.0,0.0,0.0,0.0,0.0,0.0,2.1455,2.2024,0.0,0.0,0.0,0.0,0.0,0.0,0.0,0.0,0.0,0.0,0.0,0.0,0.0,0.0,0.0,0.0,0.0,0.0,0.0,0.0,0.0,0.0,0.0,0.0,0.0,0.0,0.0,0.0,0.0,0.0,0.0,0.0,0.0,0.0,0.0,0.0,0.0,0.0,0.0,0.0,0.0,0.0,0.0,0.0,0.0,0.0,0.0,0.0,0.0,0.0,0.0,0.0,0.0,0.0,0.0,0.0,0.0,0.0,0.0,0.0,0.0,0.0,0.0,0.0,0.0,0.0,0.0,0.0,0.0,0.0,0.0,0.0,0.0,0.0,0.0,0.0,0.0,0.0,0.0,0.0,0.0,0.0,0.0,0.0,0.0,0.0,0.0,0.0,0.0,0.0,0.0,0.0,0.0,0.0,0.0,0.0,0.0,0.0,0.0,0.0,0.0,0.0,0.0,0.0,0.0,0.0,0.0,0.0,0.0,0.0,0.0,0.0,0.0,0.0,2.1261,2.1515,0.0,0.0,0.0,0.0,0.0,0.0,0.0,0.0,0.0,0.0,0.0,0.0,0.0,0.0,0.0,0.0,0.0,0.0,0.0,0.0,0.0,0.0,0.0,0.0,0.0,0.0,0.0,0.0,0.0,0.0,0.0,0.0,0.0,0.0,0.0,0.0,0.0,0.0,0.0,0.0,0.0,0.0,0.0,0.0,0.0,0.0,0.0,0.0,0.0,0.0,0.0,0.0,0.0,0.0,0.0,0.0,0.0,0.0,0.0,0.0,0.0,0.0,0.0,0.0,0.0,0.0,0.0,0.0,0.0,0.0,0.0,0.0,0.0,0.0,0.0,0.0,0.0,0.0,0.0,0.0,0.0,0.0,0.0,0.0,0.0,0.0,0.0,0.0,0.0,0.0,0.0,0.0,0.0,0.0,0.0,0.0,0.0,0.0,0.0,0.0,0.0,0.0,0.0,0.0,0.0,0.0,0.0,0.0,2.1635,2.1635,2.153,2.165,2.1335,2.0737,2.1291,2.1216,2.0797,2.1889,0.0,0.0,0.0,0.0,0.0,0.0,0.0,0.0,0.0,0.0,0.0,0.0,0.0,0.0,0.0,0.0,0.0,0.0,0.0,0.0,0.0,0.0,0.0,0.0,0.0,0.0,0.0,0.0,0.0,0.0,0.0,0.0,0.0,0.0,0.0,0.0,0.0,0.0,3.0921,3.1681,3.1999,3.1911,0.0,0.0,0.0,0.0,0.0,0.0,0.0,0.0,0.0,0.0,0.0,0.0,0.0,0.0,0.0,0.0,0.0,0.0,0.0,0.0,0.0,0.0,0.0,0.0,0.0,0.0,0.0,0.0,0.0,0.0,0.0,0.0,0.0,0.0,0.0,0.0,0.0,0.0,0.0,0.0,0.0,0.0,0.0,0.0,2.2454,2.2514,0.0,0.0,0.0,0.0,0.0,0.0,0.0,0.0,0.0,0.0,0.0,0.0,0.0,2.1734,2.1759,2.1734,2.141,2.0857,2.1425,2.1395,2.0857,2.144,2.1335,2.0722,2.0797,0.0,2.0722,2.0902,0.0,0.0,0.0,0.0,0.0,0.0,0.0,0.0,0.0,0.0,0.0,0.0,0.0,0.0,0.0,0.0,0.0,0.0,0.0,0.0,0.0,0.0,0.0,0.0,0.0,0.0,0.0,0.0,0.0,0.0,0.0,0.0,0.0,0.0,0.0,0.0,2.9678,3.0924,3.1923,3.3072,3.3493,3.3258,3.1951,3.1786,3.238,3.152,0.0,0.0,0.0,0.0,0.0,0.0,0.0,0.0,0.0,0.0,0.0,0.0,0.0,0.0,0.0,0.0,0.0,0.0,0.0,0.0,0.0,0.0,0.0,0.0,0.0,0.0,0.0,0.0,0.0,0.0,0.0,0.0,0.0,0.0,0.0,0.0,0.0,0.0,0.0,2.2955,2.3123,2.3626,2.3503,2.3733,0.0,0.0,0.0,0.0,0.0,0.0,0.0,0.0,0.0,2.1477,2.1265,2.1242,2.1484,2.1227,2.1186,2.1276,2.156,2.1545,2.1276,2.156,2.1545,2.1261,2.1261,2.1261,2.1231,2.0872,2.1051,2.1565,0.0,0.0,0.0,0.0,2.0754,2.0669,0.0,0.0,0.0,0.0,0.0,0.0,0.0,0.0,0.0,0.0,0.0,0.0,0.0,0.0,0.0,3.061,0.0,0.0,0.0,0.0,0.0,0.0,0.0,0.0,0.0,0.0,0.0,0.0,3.2792,3.3614,3.397,3.5127,3.5466,3.5169,3.4822,3.4196,3.3415,3.2378,3.1766,0.0,0.0,0.0,0.0,0.0,0.0,0.0,0.0,0.0,0.0,0.0,0.0,0.0,0.0,0.0,0.0,0.0,0.0,0.0,0.0,0.0,0.0,0.0,0.0,0.0,0.0,0.0,0.0,0.0,0.0,0.0,0.0,0.0,0.0,0.0,0.0,0.0,0.0,2.2971,2.3242,2.4232,2.3585,2.3687,0.0,0.0,0.0,0.0,0.0,0.0,2.1877,2.1924,2.1777,2.1412,2.1122,2.1084,2.1397,2.1288,2.138,2.1695,2.2024,2.2099,2.1949,2.2113,2.2099,2.1949,2.1949,2.1859,2.1665,2.1171,2.1066,2.1261,2.1754,2.1765,2.1409,2.1264,2.1191,2.109,0.0,0.0,0.0,0.0,0.0,0.0,0.0,0.0,0.0,0.0,0.0,0.0,0.0,0.0,3.2709,3.6176,3.4142,3.2777,0.0,0.0,0.0,0.0,0.0,0.0,0.0,0.0,0.0,3.4658,3.4834,3.5989,3.8114,3.8384,3.8452,3.8382,3.833,3.7602,3.6175,3.3109,3.229,3.2901,0.0,0.0,0.0,0.0,0.0,0.0,0.0,0.0,0.0,0.0,0.0,0.0,0.0,0.0,0.0,0.0,0.0,0.0,0.0,0.0,0.0,0.0,0.0,0.0,0.0,0.0,0.0,0.0,0.0,0.0,0.0,0.0,0.0,0.0,0.0,0.0,0.0,0.0,0.0,2.3035,2.2524,0.0,0.0,0.0,0.0,2.302,2.3163,2.2956,2.2308,2.2506,2.2364,2.1704,2.165,2.165,2.1674,2.2304,2.2278,2.171,2.2921,2.3191,2.2694,2.3236,2.3176,2.2664,2.2664,2.2278,2.1695,2.1665,2.2009,2.2619,2.2664,2.2981,2.3372,2.279,2.2581,2.2402,0.0,0.0,0.0,0.0,0.0,0.0,0.0,0.0,0.0,0.0,0.0,0.0,0.0,3.4084,3.6251,3.7558,3.7439,3.6479,3.4538,0.0,0.0,0.0,0.0,0.0,0.0,0.0,3.2563,3.6206,3.7398,3.8596,3.9823,4.001,3.9939,3.9583,3.9583,3.9187,3.8421,3.5576,3.4189,3.362,3.1062,3.056,0.0,0.0,0.0,0.0,0.0,0.0,0.0,0.0,0.0,0.0,0.0,0.0,0.0,0.0,0.0,0.0,0.0,0.0,0.0,0.0,0.0,0.0,0.0,0.0,0.0,0.0,0.0,0.0,0.0,0.0,0.0,0.0,0.0,0.0,0.0,0.0,0.0,2.4035,2.3148,0.0,2.4999,2.3594,2.2764,2.3224,2.2459,2.1987,2.1925,2.1984,2.1934,2.171,2.1695,2.1904,2.2323,2.2604,2.2981,2.358,2.3595,2.3714,2.3939,2.4163,2.4148,2.3954,2.4388,2.4433,2.4208,2.4208,2.3355,2.2054,2.2054,2.2443,2.2921,2.2278,2.2308,2.2547,0.0,0.0,0.0,0.0,0.0,0.0,0.0,0.0,0.0,0.0,0.0,3.1315,3.2949,3.6458,3.9028,3.9862,3.9644,3.8469,3.6009,0.0,0.0,0.0,0.0,0.0,0.0,3.2695,3.5181,3.8336,3.9788,4.0688,4.1025,4.1112,4.092,4.0368,4.0154,4.0095,3.9991,3.8087,3.6282,3.4512,3.1949,3.1725,3.2669,0.0,0.0,0.0,0.0,0.0,0.0,0.0,0.0,0.0,0.0,0.0,0.0,0.0,0.0,0.0,0.0,0.0,0.0,0.0,0.0,0.0,0.0,0.0,0.0,0.0,0.0,0.0,0.0,0.0,0.0,0.0,0.0,0.0,0.0,2.2793,2.3057,2.481,2.3756,2.3637,2.5512,2.3787,2.2727,2.3239,2.2443,2.2063,2.2243,2.2284,2.2338,2.2338,2.2562,2.2892,2.3325,2.355,2.4103,2.491,2.4492,2.4522,2.4956,2.4956,2.4956,2.4986,2.542,2.5615,2.5615,2.5615,2.4582,2.3011,2.3011,2.3281,2.361,2.3176,2.3295,2.3535,0.0,0.0,0.0,0.0,0.0,0.0,0.0,0.0,0.0,0.0,2.8882,3.1667,3.4793,3.8053,4.0946,4.3314,4.0543,3.834,3.7533,3.2538,0.0,0.0,0.0,0.0,3.3364,3.6439,3.9067,4.1148,4.1922,4.2159,4.181,4.1768,4.1446,4.0856,4.0319,4.0417,4.0874,4.0353,3.8534,3.5811,3.3786,3.3365,3.3728,0.0,0.0,0.0,0.0,0.0,0.0,0.0,0.0,0.0,0.0,0.0,0.0,0.0,0.0,0.0,0.0,0.0,0.0,0.0,0.0,0.0,0.0,0.0,0.0,0.0,0.0,0.0,0.0,0.0,0.0,0.0,0.0,0.0,2.3203,2.298,2.3413,2.5203,2.4215,2.3833,2.502,2.3883,2.3068,2.3084,2.3234,2.3357,2.3388,2.3564,2.3655,2.3655,2.4313,2.4612,2.4612,2.53,2.5615,2.563,2.5615,2.563,2.5674,2.5674,2.5674,2.5704,2.5734,2.5734,2.5734,2.5734,2.5734,2.5734,2.5644,2.5615,2.563,2.5615,2.5615,2.542,0.0,0.0,0.0,0.0,0.0,0.0,0.0,0.0,0.0,0.0,3.0847,3.4331,3.5792,3.9886,4.3002,4.4268,4.0359,3.7607,3.7103,0.0,0.0,0.0,0.0,0.0,3.5838,3.7603,3.9658,4.1974,4.2395,4.2343,4.181,4.1358,4.1041,4.0856,4.0319,4.0417,4.0891,4.0915,4.0442,3.9443,3.644,3.5087,3.4576,0.0,0.0,0.0,0.0,0.0,0.0,0.0,0.0,0.0,0.0,0.0,0.0,0.0,0.0,0.0,0.0,0.0,0.0,0.0,0.0,0.0,0.0,0.0,0.0,0.0,0.0,0.0,0.0,0.0,0.0,0.0,2.3512,2.3243,2.3286,2.3605,2.4343,2.5664,2.5321,2.5241,2.5963,2.4921,2.4374,2.4861,2.4502,2.4445,2.4927,2.5002,2.5061,2.5061,2.5241,2.5345,2.5345,2.5525,2.5854,2.6318,2.5839,2.6108,2.7036,2.7036,2.7305,2.7799,2.8278,2.8487,2.8487,2.8487,2.8487,2.8293,2.6363,2.5899,2.6258,2.5779,2.5615,2.5555,0.0,0.0,0.0,0.0,0.0,0.0,0.0,0.0,0.0,0.0,3.1718,3.5343,3.5996,4.05,4.3424,4.3222,4.001,3.7412,3.5996,0.0,0.0,0.0,0.0,3.478,3.7727,3.9378,4.0958,4.2449,4.2832,4.2714,4.2162,4.181,4.1841,4.2097,4.1298,4.1423,4.2219,4.1835,4.166,4.1474,3.9521,3.8316,3.7415,3.4438,3.3862,3.4387,3.2459,3.2476,3.3094,3.1015,0.0,0.0,0.0,0.0,0.0,0.0,0.0,0.0,0.0,0.0,0.0,0.0,0.0,0.0,0.0,0.0,0.0,0.0,0.0,0.0,0.0,0.0,0.0,0.0,2.3842,2.4176,2.4648,2.4998,2.5603,2.6561,2.6532,2.6567,2.6869,2.5756,2.5196,2.5585,2.5255,2.5211,2.5585,2.5615,2.5734,2.6019,2.6288,2.6572,2.6856,2.7141,2.747,2.7829,2.7455,2.7679,2.8464,2.8464,2.8637,2.9026,2.9415,2.9579,2.9579,2.9579,2.9579,2.943,0.0,0.0,0.0,0.0,2.6677,2.6437,0.0,0.0,0.0,0.0,0.0,0.0,0.0,0.0,0.0,0.0,0.0,3.5034,3.52,3.9853,4.2378,4.0881,3.9122,3.6991,0.0,0.0,0.0,3.378,3.6014,3.7902,3.9336,4.1387,4.2592,4.2915,4.3342,4.336,4.2964,4.2886,4.3286,4.3992,4.2853,4.3057,4.4112,4.3029,4.2598,4.263,4.2509,4.1931,4.0832,3.733,3.6789,3.7686,3.5977,3.4742,3.3863,3.3525,0.0,0.0,0.0,0.0,0.0,0.0,0.0,0.0,0.0,0.0,0.0,0.0,0.0,0.0,0.0,0.0,0.0,0.0,0.0,0.0,0.0,0.0,0.0,0.0,2.4208,2.542,2.6737,2.6991,2.723,2.779,2.785,2.785,2.785,2.6737,2.6048,2.6048,2.5989,2.5974,2.6048,2.5989,0.0,0.0,0.0,2.8098,2.8712,2.928,2.9579,2.9579,2.9579,2.9624,2.9684,2.9759,2.9849,2.9909,2.9909,2.9953,3.0013,2.9939,2.9909,2.9894,2.9669,2.9579,2.9505,2.8921,2.8323,2.785,0.0,0.0,0.0,0.0,0.0,0.0,0.0,0.0,0.0,2.674,3.1091,3.3687,3.2451,3.6703,3.9333,3.8588,3.5892,3.3906,0.0,0.0,3.3824,3.7033,3.8561,4.0061,4.162,4.2729,4.3609,4.4309,4.3977,4.4093,4.4628,4.4139,4.4252,4.4845,4.4138,4.4209,4.4892,4.424,4.4354,4.4768,4.362,4.2405,4.1001,3.9073,3.8159,3.755,3.4827,3.5216,3.6671,3.4218,3.4742,3.6118,3.4627,0.0,0.0,0.0,0.0,0.0,0.0,0.0,0.0,0.0,0.0,0.0,0.0,0.0,0.0,0.0,0.0,0.0,0.0,0.0,0.0,2.6426,2.6841,2.747,2.8816,2.943,2.9609,2.9235,2.919,2.919,2.919,2.8966,2.8816,2.8816,2.8323,2.8263,2.8786,2.8308,2.8323,2.8981,2.9131,2.9265,2.9385,2.952,2.9579,2.9579,2.9579,0.0,3.0342,3.0911,3.145,3.1943,3.1943,3.2243,3.2691,3.2168,3.1943,3.1794,3.0208,2.9579,2.9564,2.943,2.931,2.919,0.0,0.0,0.0,0.0,0.0,0.0,0.0,0.0,0.0,0.0,3.0154,3.2166,3.1564,3.4371,3.6013,3.537,3.3247,0.0,0.0,3.4064,3.6107,4.0024,4.1174,4.2331,4.3651,4.4363,4.4766,4.4909,4.4909,4.5128,4.551,4.5182,4.5417,4.6091,4.5888,4.6198,4.6862,4.6714,4.6636,4.6603,4.5883,4.4715,4.3217,4.0967,3.9868,3.9309,3.7432,3.7246,3.7686,3.6163,3.591,3.5994,3.4878,3.3491,3.2239,0.0,0.0,0.0,0.0,0.0,0.0,0.0,0.0,0.0,0.0,0.0,0.0,0.0,0.0,2.4036,2.3979,0.0,2.6318,2.6976,2.7919,2.8921,2.9909,3.0313,3.0387,3.0088,3.0043,3.0043,3.0043,2.9759,2.9714,3.0028,2.9445,2.937,3.0013,2.9445,2.9549,3.0522,3.0223,3.0522,3.1524,3.121,3.121,3.1539,3.1539,3.1704,3.2003,3.2362,3.2691,3.3006,3.3006,3.3185,3.3469,3.314,3.3006,3.2901,3.1928,3.1135,3.0507,3.0163,3.0043,3.0043,0.0,0.0,0.0,0.0,0.0,0.0,0.0,0.0,0.0,0.0,0.0,3.0672,3.0663,3.2186,3.2859,0.0,0.0,0.0,0.0,3.6059,3.8564,4.2582,4.3534,4.4364,4.5222,4.568,4.5753,4.5494,4.6082,4.6452,4.6617,4.6783,4.7205,4.7827,4.7997,4.8405,4.9014,4.9048,4.8806,4.8382,4.7977,4.7124,4.5813,4.2932,4.1677,4.1322,4.0561,3.9174,3.7753,3.8176,3.6823,3.4878,3.459,3.4184,3.3457,3.1529,3.097,0.0,0.0,0.0,0.0,0.0,0.0,0.0,0.0,2.511,2.5501,2.4155,2.4792,2.5379,2.4625,2.6324,2.7724,2.7575,2.8786,3.0073,3.0956,3.0866,3.0746,3.0881,3.0776,3.0761,3.0881,3.0447,3.0417,3.1046,3.0507,3.0417,3.1046,3.0492,3.0687,3.1884,3.1375,3.1854,3.3484,3.2961,3.2976,3.3499,3.3499,3.3499,3.3499,3.3619,3.3679,3.3694,3.3829,3.3799,3.3694,3.3829,3.3799,3.3679,3.3679,3.2961,3.1839,3.1285,3.1091,3.1091,0.0,0.0,0.0,0.0,0.0,0.0,0.0,0.0,0.0,0.0,0.0,0.0,0.0,0.0,0.0,0.0,0.0,0.0,0.0,3.8073,4.0829,4.4288,4.5204,4.5682,4.581,4.5865,4.6214,4.6891,4.7644,4.8434,4.9187,4.9921,5.0306,5.0398,5.0391,5.0483,5.0515,4.9927,5.0009,5.0396,4.854,4.7729,4.7323,4.5069,4.3352,4.2066,4.1339,3.9276,3.7195,3.9174,3.8362,3.6738,3.7973,3.6992,3.5199,3.4269,0.0,3.0023,2.9056,2.7213,2.5414,2.4804,2.4802,2.4921,0.0,2.5147,2.5474,2.5799,2.6141,2.6622,2.7532,2.8147,2.9041,3.0702,3.0657,3.1046,3.2901,3.2153,3.1644,3.2228,3.1779,3.1644,3.2228,3.2228,3.2452,3.311,3.2557,3.2467,3.3125,3.2542,3.2527,3.3245,3.32,3.326,3.3499,3.3425,3.3425,3.3499,3.3499,3.3499,3.3514,3.4098,3.4367,3.4397,3.5011,3.4936,3.4412,3.5026,3.4921,3.4367,3.4367,3.3918,3.326,3.3185,3.3155,3.3155,0.0,0.0,0.0,0.0,0.0,0.0,0.0,0.0,0.0,0.0,0.0,0.0,0.0,0.0,0.0,0.0,0.0,0.0,3.5349,3.7753,4.0975,4.5205,4.6177,4.7058,4.8012,4.8049,4.8453,4.926,4.9591,4.9939,5.0306,5.0637,5.0802,5.082,5.1279,5.1499,5.1518,5.1688,5.1493,5.0976,5.0507,4.9065,4.7119,4.6189,4.3833,4.0933,4.0189,3.8853,0.0,0.0,3.7178,3.6891,3.7516,3.6451,3.481,3.4083,3.2374,0.0,2.7925,2.6599,2.5778,2.5587,2.641,2.7356,2.7844,2.8064,2.8005,2.7544,2.7776,2.8286,2.8894,2.9687,3.0702,3.1913,3.2183,3.2542,3.338,3.2691,3.2213,3.2482,3.1943,3.1735,3.2452,3.2512,3.2946,3.3978,3.3455,3.3365,3.4038,3.344,3.338,3.4038,3.3694,3.3873,3.4651,3.4262,3.4262,3.4666,3.4666,3.4666,3.4681,3.4951,3.507,3.51,3.5385,3.534,3.51,3.5385,3.5325,3.507,3.507,3.4906,3.4577,3.3784,3.3499,3.3499,0.0,0.0,0.0,0.0,0.0,0.0,0.0,0.0,0.0,0.0,0.0,0.0,0.0,0.0,0.0,0.0,0.0,0.0,0.0,3.711,4.0504,4.4821,4.636,0.0,4.8875,4.9114,4.9627,5.0472,5.0692,5.0912,5.1132,5.1371,5.1463,5.1499,5.2068,5.2454,5.2692,5.3059,5.2636,5.1678,5.1549,4.9624,4.6698,4.5941,4.3237,3.9732,3.9191,3.7855,0.0,0.0,3.5588,3.5656,3.6265,3.5554,3.4353,3.3626,3.2205,3.0285,2.7454,2.677,2.6856,2.6945,2.831,2.9837,3.0801,3.1182,3.1122,3.0248,3.0306,3.0454,3.0418,3.1016,3.1809,3.2647,3.3036,3.3425,3.3963,3.317,3.2587,3.2766,3.2048,3.1869,3.2706,3.2781,3.326,3.4382,3.4203,3.4262,3.4741,3.4307,3.4262,3.4741,3.4292,3.4517,3.5489,3.5011,3.5011,3.5504,3.5504,3.5504,3.5504,3.5504,3.5504,3.5504,3.5504,3.5504,3.5504,3.5504,3.5504,3.5504,3.5504,3.5504,3.5385,3.4412,3.4053,3.4053,0.0,0.0,0.0,0.0,0.0,0.0,0.0,0.0,0.0,0.0,0.0,0.0,0.0,0.0,0.0,0.0,0.0,0.0,0.0,3.6604,3.9851,4.268,4.5569,4.7094,4.7186,4.7957,4.8765,4.9627,5.0417,5.1206,5.1977,5.2766,5.3133,5.3133,5.317,5.361,5.4289,5.3537,5.3207,5.3057,5.0945,4.8695,4.6465,4.4043,4.1406,3.9022,3.9005,0.0,0.0,0.0,3.4184,3.2797,3.4979,3.5115,0.0,3.3626,3.1867,0.0,2.8495,2.8524,2.8966,2.9158,3.0162,3.1512,3.2983,3.3863,3.4404,3.4417,3.3882,3.324,3.2566,3.1943,3.1958,3.326,3.2946,3.3215,3.5175,3.3754,3.2751,3.338,3.2317,3.2048,3.3335,3.3469,3.3739,3.4427,3.507,3.5459,3.5474,3.5459,3.5459,3.5474,3.5459,3.5474,3.5504,3.5489,3.5489,3.5504,3.5504,3.5504,3.5504,3.5504,3.5504,3.5504,3.5504,3.5504,3.5504,3.5504,3.5504,3.5504,3.5504,3.5504,3.5504,3.5459,3.5444,3.5444,0.0,0.0,0.0,0.0,0.0,0.0,0.0,0.0,0.0,0.0,0.0,0.0,0.0,0.0,0.0,0.0,0.0,0.0,0.0,3.4265,3.7046,3.9851,4.3224,4.5113,4.5234,4.6734,4.8004,4.8992,4.9669,5.02,5.0573,5.1279,5.1158,5.0412,5.1276,5.161,5.1467,5.1718,5.1251,5.033,4.9977,4.7988,4.5066,4.3092,4.036,3.733,0.0,0.0,0.0,0.0,0.0,0.0,3.3169,0.0,0.0,3.1444,3.0415,2.9665,3.0074,3.0413,3.0983,3.2412,3.3431,3.4523,3.6045,3.5823,3.5297,3.5315,3.371,3.232,3.2542,3.2004,3.1958,3.3275,3.3679,3.4218,3.534,3.4532,3.3739,3.3529,3.2721,3.2362,3.2796,3.3245,3.3963,3.507,3.537,3.5504,3.5504,3.5504,3.5504,3.5504,3.5504,3.5504,3.5504,3.5504,3.5504,3.5504,3.5504,3.5504,3.5504,3.5504,3.5504,3.5504,3.5504,3.5504,3.5504,3.5504,3.5504,3.5504,3.5504,3.5504,3.5504,3.5504,3.5504,3.5504,0.0,0.0,0.0,0.0,0.0,0.0,0.0,0.0,0.0,0.0,0.0,0.0,0.0,0.0,0.0,0.0,0.0,0.0,0.0,0.0,3.4298,3.6938,3.9994,4.1848,4.2252,4.3743,4.4968,4.5966,4.6622,4.7107,4.7507,4.8689,4.8774,4.8054,4.936,4.9794,4.9531,4.9745,4.8879,4.7334,4.7121,4.511,4.2038,4.0236,3.7922,0.0,0.0,0.0,0.0,0.0,0.0,0.0,0.0,0.0,0.0,3.0328,3.0398,3.0924,3.1753,3.269,3.3757,3.5313,3.6282,3.7144,3.8396,3.7767,3.6638,3.5844,3.388,3.2259,3.1858,3.104,3.0911,3.2213,3.2781,3.3469,3.4622,3.4397,3.4053,3.3858,3.326,3.2961,3.3185,3.3589,3.4203,3.507,3.537,3.5504,3.5504,3.5504,3.5504,3.5504,3.5504,3.5504,3.5504,3.5504,3.5504,3.5504,3.5504,3.5504,3.5504,3.5504,3.5504,3.5504,3.5504,3.5504,3.5504,3.5504,3.5504,3.5504,3.5504,3.5504,3.5504,3.5504,3.5504,3.5504,0.0,0.0,0.0,0.0,0.0,0.0,0.0,0.0,0.0,0.0,0.0,0.0,0.0,0.0,0.0,0.0,0.0,0.0,0.0,0.0,0.0,3.3932,3.6054,3.7557,3.8336,3.9177,3.9982,4.0749,4.1497,4.2264,4.3066,4.5065,4.5988,4.6019,4.7281,4.8006,4.8179,4.7414,4.6033,4.4185,4.2723,4.038,3.7648,3.583,0.0,0.0,0.0,0.0,0.0,0.0,0.0,3.0125,3.0142,3.0632,3.1072,3.0497,3.1816,3.3491,3.3609,3.5233,3.7077,3.7838,3.8531,3.9225,3.9868,3.9394,3.8201,3.5993,3.4444,3.279,3.0634,2.9334,2.9056,3.0298,3.0597,3.1345,3.332,3.3619,3.3858,3.4412,3.3963,3.3829,3.4412,3.4472,3.4487,3.4532,3.513,3.5504,3.5504,3.5504,3.5504,3.5504,3.5504,3.5504,3.5504,3.5504,3.5504,3.5504,3.5504,3.5504,3.5504,3.5504,3.5504,3.5504,3.5504,3.5504,3.5504,3.5504,3.5504,3.5504,3.5504,3.5504,3.5504,3.5504,3.5504,3.5504,0.0,0.0,0.0,0.0,0.0,0.0,0.0,0.0,0.0,0.0,0.0,0.0,0.0,0.0,0.0,0.0,0.0,0.0,0.0,0.0,0.0,0.0,0.0,0.0,0.0,0.0,0.0,0.0,0.0,3.8752,3.9157,4.0192,4.0447,4.0118,4.1473,4.184,4.1501,4.1864,4.1363,4.0383,0.0,3.858,3.6898,0.0,0.0,0.0,0.0,0.0,0.0,0.0,3.0108,3.0209,3.0751,3.1055,3.1478,3.2949,3.3778,3.459,3.6299,3.7584,3.8616,3.9343,3.9665,3.9698,3.9343,3.7821,3.6165,3.5164,3.2592,3.021,2.9199,2.9194,2.9594,3.0372,3.1764,3.326,3.4786,3.5415,3.5415,3.4577,3.4786,3.4861,3.4502,3.4472,3.4696,3.5205,3.54,3.5504,3.5504,3.5504,3.5504,3.5504,3.5504,3.5504,3.5504,3.5504,3.5504,3.5504,3.5504,3.5504,3.5504,3.5504,3.5504,3.5504,3.5504,3.5504,3.5504,3.5504,3.5504,3.5504,3.5504,3.5504,3.5504,3.5504,3.5504,3.5504,0.0,0.0,0.0,0.0,0.0,0.0,0.0,0.0,0.0,0.0,0.0,0.0,0.0,0.0,0.0,0.0,0.0,0.0,0.0,0.0,0.0,0.0,0.0,0.0,0.0,0.0,0.0,0.0,0.0,0.0,0.0,3.6745,3.7189,3.7102,3.8238,3.8459,3.7946,0.0,0.0,0.0,0.0,0.0,0.0,0.0,0.0,0.0,0.0,0.0,0.0,2.9499,3.0057,3.0768,3.1833,3.2611,3.344,3.503,3.574,3.6332,3.7956,3.892,3.9563,3.9969,3.9834,3.9411,3.8684,3.7009,3.5054,3.3205,3.0998,2.8984,2.7455,2.7537,2.8143,2.9071,3.0657,3.2347,3.3963,3.5265,3.5878,3.5415,3.5699,3.5789,3.54,3.51,3.5085,3.5474,3.5504,3.5504,3.5504,3.5504,3.5504,3.5504,3.5504,3.5504,3.5504,3.5504,3.5504,3.5504,3.5504,3.5504,3.5504,3.5504,3.5504,3.5504,3.5504,3.5504,3.5504,3.5504,3.5504,3.5504,3.5504,3.5504,3.5504,3.5504,3.5504,3.5504,0.0,0.0,0.0,0.0,0.0,0.0,0.0,0.0,0.0,0.0,0.0,0.0,0.0,0.0,0.0,0.0,0.0,0.0,0.0,0.0,0.0,0.0,0.0,0.0,0.0,0.0,0.0,0.0,0.0,0.0,0.0,0.0,0.0,0.0,0.0,0.0,0.0,0.0,0.0,0.0,0.0,0.0,0.0,0.0,0.0,0.0,0.0,0.0,0.0,0.0,3.0125,3.1461,3.3051,3.4573,3.5943,3.6823,3.7533,3.821,3.8937,3.9597,4.007,4.007,3.9462,3.865,3.7922,3.6332,3.4112,3.0931,2.9648,2.8315,2.5892,2.5667,2.6333,2.7724,2.9086,3.0657,3.2632,3.4562,3.6004,3.6601,3.6693,3.6835,3.698,3.6205,3.5779,3.5819,3.5689,3.5594,3.5504,3.5504,3.5504,3.5504,3.5504,3.5504,3.5504,3.5504,3.5504,3.5504,3.5594,3.5594,3.5504,3.5594,3.5594,3.5504,3.5504,3.5504,3.5504,3.5504,3.5504,3.5504,3.5504,3.5504,3.5504,3.5504,3.5504,3.5504,0.0,0.0,0.0,0.0,0.0,0.0,0.0,0.0,0.0,0.0,0.0,0.0,0.0,0.0,0.0,0.0,0.0,0.0,0.0,0.0,0.0,0.0,0.0,0.0,0.0,0.0,0.0,0.0,3.0884,0.0,0.0,0.0,0.0,0.0,0.0,0.0,0.0,0.0,0.0,0.0,0.0,0.0,0.0,0.0,0.0,0.0,0.0,0.0,0.0,0.0,3.0987,3.1562,3.3643,3.5351,3.684,3.821,3.87,3.8954,3.9698,3.9986,4.007,4.007,3.9089,3.7905,3.7144,3.437,3.1539,2.9973,2.8142,2.6546,2.5697,2.6519,2.7844,2.9699,3.112,3.2706,3.4711,3.6193,3.7164,3.7461,3.7834,3.8409,3.9312,3.7993,3.7156,3.734,3.6728,3.6073,3.5534,3.5504,3.5504,3.5504,3.5504,3.5504,3.5504,3.5504,3.5504,3.5519,3.6058,3.6028,3.5534,3.6073,3.6013,3.5504,3.5504,3.5504,3.5504,3.5504,3.5504,3.5504,3.5504,3.5504,3.5504,3.5504,3.5504,3.5504,0.0,0.0,0.0,0.0,0.0,0.0,0.0,0.0,0.0,0.0,0.0,0.0,0.0,0.0,0.0,0.0,0.0,0.0,0.0,0.0,0.0,0.0,0.0,0.0,0.0,2.7998,2.8493,2.9281,0.0,2.9936,3.0699,3.0486,3.0788,3.1507,3.1291,0.0,0.0,0.0,0.0,0.0,0.0,0.0,0.0,0.0,0.0,0.0,0.0,0.0,0.0,0.0,3.0311,3.1292,3.5081,3.7026,3.8142,3.9242,3.9546,3.9631,3.9986,4.007,4.007,4.007,3.8684,3.7127,3.6349,3.3592,3.066,2.8773,2.724,2.5999,2.5198,2.5899,2.72,2.919,3.0058,3.1405,3.4083,3.5698,3.6804,3.7471,3.8431,3.8953,3.8691,3.7901,3.7338,3.7121,3.6727,3.6207,3.5549,3.5504,3.5504,3.5504,3.5504,3.5504,3.5504,3.5504,3.5684,3.6013,3.6342,3.6327,3.6028,3.6342,3.6133,3.5504,3.5504,3.5504,3.5504,3.5504,3.5504,3.5504,3.5504,3.5504,3.5504,3.5504,3.5504,3.5504,0.0,0.0,0.0,0.0,0.0,0.0,0.0,0.0,0.0,0.0,0.0,0.0,0.0,0.0,0.0,0.0,0.0,0.0,0.0,0.0,0.0,0.0,0.0,0.0,0.0,0.0,0.0,2.89,2.8528,0.0,0.0,0.0,0.0,0.0,3.0874,3.0717,3.0683,0.0,0.0,0.0,0.0,2.8738,0.0,0.0,0.0,0.0,0.0,0.0,0.0,0.0,2.9381,3.0666,3.5267,3.7313,3.8193,3.9106,3.9478,3.9681,3.9986,4.007,4.0037,3.9884,3.8176,3.6332,3.5554,3.2966,3.0113,2.8013,2.6881,2.6002,2.5136,2.5468,2.6467,2.8487,2.8921,3.0058,3.308,3.4926,3.6476,3.7806,3.9,3.9446,3.8994,3.8461,3.7948,3.7496,3.7131,3.6511,3.5549,3.5504,3.5504,3.5504,3.5504,3.5504,3.5504,3.5504,3.5833,3.6492,3.6492,3.6552,3.6686,3.6686,3.6327,3.5714,3.5714,3.5639,3.5504,3.5504,3.5504,3.5504,3.5504,3.5504,3.5504,3.5504,3.5504,3.5534,0.0,0.0,0.0,0.0,0.0,0.0,0.0,0.0,0.0,0.0,0.0,0.0,0.0,0.0,0.0,0.0,0.0,0.0,0.0,0.0,0.0,0.0,0.0,0.0,0.0,0.0,0.0,2.8551,2.9576,0.0,0.0,0.0,0.0,0.0,0.0,2.9178,2.9178,2.911,0.0,0.0,0.0,0.0,0.0,0.0,0.0,0.0,0.0,2.6759,2.6928,2.8467,2.9025,2.9553,3.2019,3.3761,3.5182,3.6654,3.7567,3.8396,3.9715,4.007,3.9918,3.9259,3.7398,3.5537,3.4776,3.1782,2.9016,2.8285,2.7113,2.6218,2.622,2.6364,2.7156,2.916,2.9968,3.1076,3.32,3.5248,3.7341,3.9495,3.9689,4.0736,4.3664,4.1789,4.0478,4.0563,3.9296,3.7655,3.5629,3.5504,3.5504,3.5504,3.5504,3.5504,3.5504,3.5504,3.5833,3.6492,3.6492,3.6791,3.733,3.733,3.6985,3.6402,3.6402,3.6058,3.5504,3.5504,3.5504,3.5504,3.5504,3.5504,3.5504,3.5504,3.5504,3.5594,0.0,0.0,0.0,0.0,0.0,0.0,0.0,0.0,0.0,0.0,0.0,0.0,0.0,0.0,0.0,0.0,0.0,0.0,0.0,0.0,0.0,0.0,0.0,0.0,0.0,0.0,2.6749,2.6749,2.7681,0.0,0.0,0.0,0.0,0.0,0.0,2.9011,2.8994,2.8484,0.0,0.0,0.0,0.0,0.0,0.0,0.0,0.0,0.0,0.0,2.6133,2.6742,2.7249,2.7757,2.8636,2.9634,3.1224,3.4979,3.662,3.755,3.9022,3.9749,3.9901,3.9174,3.7297,3.5419,3.4675,3.163,2.8848,2.829,2.7082,2.6163,2.6352,2.6727,2.7581,2.9335,2.9787,3.0732,3.3138,3.4676,3.6313,3.835,3.9289,4.0135,4.0991,4.0539,4.0246,4.0334,4.0197,3.9535,3.8263,3.7743,3.7025,3.6103,3.6088,3.6282,3.6641,3.5893,3.6028,3.7045,3.7045,3.7165,3.7404,3.7404,3.7075,3.6462,3.6073,3.5968,3.6073,3.5669,3.5744,3.6058,3.5669,3.5504,3.5549,3.5953,3.6088,3.6193,0.0,0.0,0.0,0.0,0.0,0.0,0.0,0.0,0.0,0.0,0.0,0.0,0.0,0.0,0.0,0.0,0.0,0.0,0.0,0.0,0.0,0.0,0.0,0.0,0.0,0.0,2.549,2.527,2.6218,2.6471,0.0,0.0,2.7672,2.7994,0.0,0.0,0.0,0.0,0.0,0.0,0.0,0.0,0.0,0.0,0.0,0.0,0.0,0.0,0.0,0.0,0.0,2.6691,2.6691,0.0,0.0,3.2713,3.4844,3.6113,3.7584,3.87,3.9208,3.8244,3.662,3.4979,3.3778,3.1173,2.8834,2.8215,2.6998,2.6237,2.6794,2.7173,2.785,0.0,2.9674,3.0561,3.2879,3.4131,3.5546,3.7527,3.8796,3.952,3.9482,4.0048,4.0587,4.0893,4.1362,4.1268,4.0344,3.9942,3.8936,3.7284,3.7189,3.7182,3.7192,3.6284,3.629,3.7135,3.6941,3.715,3.7689,3.7315,3.7105,3.7015,3.6357,3.6327,3.6716,3.6058,3.6073,3.6432,3.5968,3.5804,3.5863,3.6522,3.6761,3.6851,0.0,0.0,0.0,0.0,0.0,0.0,0.0,0.0,0.0,0.0,0.0,0.0,0.0,0.0,0.0,0.0,0.0,0.0,0.0,0.0,0.0,0.0,0.0,0.0,0.0,0.0,0.0,2.4523,2.5964,2.5947,2.4557,2.6015,2.6336,2.5676,0.0,0.0,0.0,0.0,0.0,0.0,0.0,0.0,0.0,0.0,0.0,0.0,0.0,0.0,0.0,0.0,0.0,0.0,0.0,0.0,0.0,0.0,3.1715,3.3761,3.525,3.6772,3.7567,3.6045,3.5081,3.3931,3.1732,3.0074,2.8755,2.7958,2.6934,2.6599,2.7846,2.7769,2.7904,2.9175,2.9952,3.0895,3.2332,3.3697,3.5413,3.7527,3.839,3.9389,4.0842,4.1565,4.2363,4.3213,4.329,4.2598,4.1036,4.1754,4.1161,3.8937,3.8905,3.8153,3.6631,3.6615,3.6565,3.6492,3.5833,3.6522,3.8347,3.7075,3.718,3.8332,3.7674,3.7389,3.7345,3.6731,3.6477,3.6492,3.6477,3.6477,3.6552,3.7165,3.7404,3.7494,0.0,0.0,0.0,0.0,0.0,0.0,0.0,0.0,0.0,0.0,0.0,0.0,0.0,0.0,0.0,0.0,0.0,0.0,0.0,0.0,0.0,0.0,0.0,0.0,0.0,0.0,0.0,0.0,0.0,2.571,2.5253,2.5727,2.6099,2.6336,2.6065,2.6234,0.0,0.0,0.0,0.0,0.0,0.0,0.0,0.0,0.0,0.0,0.0,0.0,0.0,0.0,0.0,0.0,0.0,0.0,0.0,0.0,0.0,3.1478,3.2933,3.4066,3.459,3.3592,3.278,3.1918,3.0717,2.9279,2.8112,2.784,2.714,2.6703,2.7207,2.797,2.8862,2.99,3.1405,3.2812,3.381,3.5193,3.653,3.7719,3.8973,4.0096,4.1067,4.1344,4.1805,4.2546,4.3065,4.3176,4.2699,4.3427,4.2518,3.9658,3.9102,3.8552,3.7961,3.8087,3.7623,3.6492,3.7776,3.7892,3.7105,3.7569,3.7764,3.7704,3.7494,3.7659,3.8003,3.6926,3.6731,3.7075,3.6656,3.6492,3.6611,3.7689,3.8078,3.8182,0.0,0.0,0.0,0.0,0.0,0.0,0.0,0.0,0.0,0.0,0.0,0.0,0.0,0.0,0.0,0.0,0.0,0.0,0.0,0.0,0.0,0.0,0.0,0.0,0.0,0.0,0.0,0.0,0.0,0.0,0.0,0.0,2.5558,2.5439,2.527,2.5592,0.0,0.0,0.0,0.0,0.0,0.0,0.0,0.0,0.0,0.0,0.0,0.0,0.0,0.0,0.0,0.0,0.0,0.0,0.0,0.0,0.0,0.0,0.0,3.1799,3.2391,3.1647,3.1123,3.0514,2.9482,2.8501,2.7705,2.7452,2.6875,2.6684,2.7541,2.8235,2.9132,3.0484,3.1766,3.2942,3.4018,3.5177,3.6502,3.8125,3.909,4.0054,4.1101,4.116,4.1443,4.2252,4.298,4.342,4.342,4.3606,4.2847,4.0869,4.0369,3.98,3.9198,3.9291,3.8547,3.696,3.8327,3.8115,3.6507,3.7337,3.7775,3.7833,3.8208,3.8672,0.0,3.7871,3.7704,3.8152,3.7196,3.6985,3.733,3.8392,3.8781,3.8841,0.0,0.0,0.0,0.0,0.0,0.0,0.0,0.0,0.0,0.0,0.0,0.0,0.0,0.0,0.0,0.0,0.0,0.0,0.0,0.0,0.0,0.0,0.0,0.0,0.0,0.0,0.0,2.3477,2.4929,2.4963,2.3663,0.0,0.0,2.3579,2.4205,2.4864,0.0,0.0,0.0,0.0,0.0,0.0,0.0,0.0,0.0,0.0,0.0,0.0,0.0,0.0,0.0,0.0,0.0,0.0,0.0,0.0,0.0,0.0,0.0,2.982,3.0717,3.004,2.9871,2.9499,2.8061,2.7705,0.0,2.6843,2.6367,2.664,2.8631,2.859,2.8904,3.0926,3.1309,3.185,3.3288,3.4201,3.5791,3.865,3.8942,3.9495,4.0963,4.1017,4.1305,4.2148,4.2861,4.3267,4.3267,4.2642,4.2269,4.2219,4.2219,4.151,4.0018,4.0172,3.9388,3.7623,3.7826,3.7428,3.6505,3.6658,3.7345,3.8476,3.9455,4.0198,4.0588,3.9268,3.9098,3.9594,3.8159,3.7901,3.8477,3.9212,3.9481,3.9424,0.0,0.0,0.0,0.0,0.0,0.0,0.0,0.0,0.0,0.0,0.0,0.0,0.0,0.0,0.0,0.0,0.0,0.0,0.0,0.0,0.0,0.0,0.0,0.0,0.0,0.0,0.0,2.4222,2.5519,2.6055,2.593,2.6671,0.0,0.0,0.0,0.0,0.0,0.0,0.0,0.0,0.0,0.0,0.0,0.0,0.0,0.0,0.0,0.0,0.0,0.0,0.0,0.0,0.0,0.0,0.0,0.0,0.0,0.0,0.0,0.0,2.7706,2.7537,2.7503,2.7402,0.0,0.0,0.0,0.0,0.0,2.7045,2.8704,2.8901,2.9522,3.1698,3.251,3.3203,3.4117,3.5893,3.7567,3.8836,3.9445,3.9947,4.0324,4.0339,4.0608,4.1424,4.1627,4.1728,4.1728,4.2083,4.2033,4.1474,4.1457,4.0738,3.9188,4.0929,4.0146,3.6878,3.9124,3.8937,3.6598,3.7666,3.8355,3.8732,3.9372,4.0146,4.0769,3.9212,3.9139,3.9801,3.9455,3.9011,3.8683,3.9932,3.999,3.9424,0.0,0.0,0.0,0.0,0.0,0.0,0.0,0.0,0.0,0.0,0.0,0.0,0.0,0.0,0.0,0.0,0.0,0.0,0.0,0.0,0.0,0.0,0.0,0.0,0.0,0.0,0.0,0.0,0.0,2.5996,0.0,0.0,0.0,0.0,0.0,0.0,0.0,0.0,0.0,0.0,0.0,0.0,0.0,0.0,0.0,0.0,0.0,0.0,0.0,2.4255,2.5048,2.5795,0.0,0.0,0.0,0.0,0.0,0.0,0.0,0.0,2.6691,2.6691,2.6691,0.0,0.0,0.0,0.0,0.0,0.0,2.7571,2.8772,2.9262,3.0108,3.1985,3.2611,3.3389,3.481,3.6383,3.7787,3.887,3.9343,3.9715,4.007,4.0087,4.0257,4.0663,4.1018,4.1204,4.1204,4.1576,4.161,4.1221,4.0865,4.0474,3.9954,4.1163,4.0779,3.8766,4.0016,3.9553,3.7692,3.842,3.8774,3.8866,3.9797,4.0523,4.0873,3.9691,3.9893,4.0836,3.9706,3.9421,3.9632,3.9979,4.006,3.999,0.0,0.0,0.0,0.0,0.0,0.0,0.0,0.0,0.0,0.0,0.0,0.0,0.0,0.0,0.0,0.0,0.0,0.0,0.0,0.0,0.0,0.0,0.0,0.0,0.0,0.0,0.0,0.0,0.0,0.0,0.0,0.0,2.5935,0.0,0.0,0.0,0.0,0.0,0.0,0.0,0.0,0.0,0.0,0.0,0.0,0.0,0.0,0.0,0.0,2.4036,2.456,2.4898,2.6268,0.0,0.0,0.0,0.0,0.0,0.0,2.6776,2.6843,2.6725,2.6691,0.0,0.0,0.0,0.0,0.0,0.0,2.8264,2.9161,2.9837,3.0751,3.2205,3.2645,3.3575,3.5825,3.6705,3.7584,3.8836,3.9089,3.936,3.9868,4.0003,4.007,4.007,4.0679,4.1035,4.1035,4.1035,4.1035,4.1035,4.0409,4.0392,4.1035,4.1136,4.1054,4.0842,4.0331,3.9666,3.8888,3.8913,3.8923,3.9085,4.032,4.0918,4.0991,4.0318,4.0918,4.1988,3.9944,3.9906,4.0805,4.0085,4.0239,4.0878,0.0,0.0,0.0,0.0,0.0,0.0,0.0,0.0,0.0,0.0,0.0,0.0,0.0,0.0,0.0,0.0,0.0,0.0,0.0,0.0,0.0,0.0,0.0,0.0,0.0,0.0,0.0,0.0,0.0,0.0,2.8665,2.9704,2.8304,0.0,0.0,0.0,0.0,0.0,0.0,0.0,2.231,0.0,0.0,0.0,0.0,0.0,0.0,0.0,0.0,2.4218,2.4898,2.5592,2.642,0.0,0.0,0.0,0.0,0.0,2.6691,2.7165,2.7503,2.686,2.6691,0.0,0.0,0.0,0.0,0.0,2.8721,2.9228,3.0598,3.0954,3.1512,3.2983,3.4286,3.5893,3.8159,3.8582,3.8734,3.8954,3.9529,3.9715,3.9208,3.9715,4.007,4.007,4.0189,4.0257,4.0257,4.0257,4.0257,4.0257,4.0138,4.0121,4.0257,4.0882,4.0517,3.9254,3.9836,3.9699,3.8909,3.8903,3.9259,3.9897,4.0029,4.047,4.1127,4.0892,4.1392,4.2219,4.1824,4.1798,4.1938,4.171,4.1674,4.1804,0.0,0.0,0.0,0.0,0.0,0.0,0.0,0.0,0.0,0.0,0.0,0.0,0.0,0.0,0.0,0.0,0.0,0.0,0.0,0.0,0.0,0.0,0.0,0.0,0.0,0.0,0.0,0.0,0.0,2.9126,3.0066,2.9115,2.7396,2.5021,0.0,0.0,0.0,0.0,0.0,0.0,0.0,0.0,0.0,0.0,0.0,0.0,0.0,0.0,0.0,0.0,2.4983,2.5744,2.6471,0.0,0.0,0.0,0.0,0.0,2.6691,2.6945,2.7131,2.6776,0.0,0.0,0.0,0.0,0.0,0.0,2.9011,2.9313,3.0412,3.1258,3.2408,3.4286,3.5876,3.7229,3.8261,3.8413,3.8548,3.8937,3.9292,3.9512,3.958,3.9884,4.007,4.007,4.007,4.007,4.007,4.007,4.007,4.007,4.007,4.007,4.007,4.0426,4.0441,4.0144,4.0093,4.011,4.0144,3.9742,3.9731,4.0104,3.9972,4.018,4.0628,4.0862,4.151,4.2301,4.2228,4.245,4.2785,4.2733,4.2707,4.2707,0.0,0.0,0.0,0.0,0.0,0.0,0.0,0.0,0.0,0.0,0.0,0.0,0.0,0.0,0.0,0.0,0.0,0.0,0.0,0.0,0.0,0.0,0.0,0.0,0.0,0.0,2.5992,2.7912,2.8994,3.004,3.0966,2.82,2.6322,0.0,0.0,0.0,0.0,0.0,0.0,0.0,0.0,0.0,0.0,0.0,0.0,0.0,0.0,0.0,0.0,0.0,0.0,0.0,0.0,0.0,0.0,0.0,2.6691,2.6691,2.6691,2.6826,2.686,2.6522,0.0,0.0,0.0,2.7503,2.7977,2.9668,2.9871,2.9939,3.0514,3.1664,3.3288,3.5537,3.7026,3.8024,3.8362,3.8413,3.8616,3.9174,3.9242,3.9462,4.002,4.007,4.007,4.007,4.007,4.007,4.007,4.007,4.007,4.007,4.007,4.007,4.007,4.007,4.0358,4.0933,4.0358,4.0392,4.0916,4.0341,4.007,4.0104,3.9967,4.0107,4.0392,4.1033,4.1794,4.2571,4.2477,4.2812,4.3306,4.3502,4.3621,4.3621,0.0,0.0,0.0,0.0,0.0,0.0,0.0,0.0,0.0,0.0,0.0,0.0,0.0,0.0,0.0,0.0,0.0,0.0,0.0,0.0,0.0,0.0,0.0,0.0,0.0,2.6207,2.7567,2.9431,3.0324,3.0965,3.1304,2.8567,2.6655,2.5463,0.0,0.0,0.0,0.0,0.0,0.0,0.0,0.0,0.0,0.0,0.0,0.0,0.0,0.0,0.0,0.0,0.0,0.0,0.0,0.0,0.0,0.0,2.6691,2.6691,2.6691,2.7199,2.7384,2.6031,2.6234,0.0,2.9397,2.9871,3.048,3.2645,3.2527,3.2093,3.2121,3.278,3.4066,3.6332,3.7381,3.8379,3.9732,3.9918,3.9935,3.9986,4.0003,4.002,4.007,4.007,4.007,4.007,4.007,4.007,4.007,4.007,4.007,4.007,4.007,4.007,4.007,4.007,4.0104,4.0155,4.0104,4.0104,4.0155,4.0104,4.007,4.0087,4.0071,4.0459,4.1187,4.1912,4.2638,4.3293,4.3256,4.3257,4.3383,4.4196,4.4514,4.4514,0.0,0.0,0.0,0.0,0.0,0.0,0.0,0.0,0.0,0.0,0.0,0.0,0.0,0.0,0.0,0.0,0.0,0.0,0.0,0.0,0.0,0.0,0.0,2.4544,2.5112,2.6205,2.7942,3.0414,3.1455,3.1521,3.0595,2.8355,0.0,0.0,0.0,0.0,0.0,0.0,0.0,0.0,0.0,0.0,0.0,0.0,0.0,0.0,0.0,0.0,0.0,0.0,0.0,0.0,0.0,0.0,0.0,0.0,2.6691,2.6691,2.6691,2.6894,2.6979,2.642,2.6843,0.0,2.9685,3.0108,3.0869,3.3525,3.3491,3.2983,3.2983,3.3592,3.4675,3.6485,3.7787,3.8937,3.9935,4.007,4.007,4.007,4.007,4.007,4.007,4.007,4.007,4.007,4.007,4.007,4.007,4.007,4.007,4.007,4.007,4.007,4.007,4.007,4.007,4.007,4.007,4.007,4.007,4.007,4.007,4.007,4.007,4.024,4.0595,4.1796,4.2455,4.279,4.3709,4.4138,4.4138,4.4457,4.4587,4.4654,0.0,0.0,0.0,0.0,0.0,0.0,0.0,0.0,0.0,0.0,0.0,0.0,0.0,0.0,0.0,0.0,0.0,0.0,0.0,0.0,0.0,0.0,0.0,2.4675,2.5056,2.6123,2.7849,3.0303,3.1356,3.1292,3.0173,0.0,0.0,0.0,0.0,0.0,2.3222,0.0,0.0,0.0,0.0,0.0,0.0,0.0,0.0,0.0,0.0,0.0,0.0,0.0,0.0,0.0,0.0,0.0,0.0,0.0,0.0,2.65,2.6386,2.6435,2.6468,2.6386,0.0,0.0,3.0345,3.0784,3.163,3.4607,3.4624,3.4032,3.3795,3.415,3.4996,3.6535,3.7821,3.8988,3.9935,4.007,4.007,4.007,4.007,4.007,4.007,4.007,4.007,4.007,4.007,4.007,4.007,4.007,4.007,4.007,4.007,4.007,4.007,4.007,4.007,4.007,4.007,4.007,4.007,4.007,4.007,4.007,4.007,4.0206,4.0527,4.1779,4.2574,4.3115,4.4164,4.4587,4.4604,4.484,4.4942,4.5043,0.0,0.0,0.0,0.0,0.0,0.0,0.0,0.0,0.0,0.0,0.0,0.0,0.0,0.0,0.0,0.0,0.0,0.0,0.0,0.0,0.0,0.0,0.0,2.4239,2.5346,2.6172,2.7402,2.8994,2.9824,3.021,3.0155,2.8539,0.0,0.0,0.0,0.0,0.0,0.0,0.0,0.0,0.0,0.0,0.0,0.0,0.0,0.0,0.0,0.0,0.0,0.0,0.0,0.0,0.0,0.0,0.0,0.0,2.6409,2.6044,2.5705,2.5846,2.6014,2.5705,2.6742,2.8602,3.1596,3.2313,3.3177,3.6146,3.6146,3.5385,3.4624,3.4489,3.4996,3.6518,3.7398,3.8396,3.9851,4.0054,4.0054,4.007,4.007,4.007,4.007,4.007,4.007,4.007,4.007,4.007,4.007,4.007,4.007,4.007,4.007,4.007,4.007,4.007,4.007,4.007,4.007,4.007,4.007,4.007,4.007,4.007,4.007,4.0493,4.1255,4.1982,4.32,4.4587,4.4587,4.4587,4.4671,4.5432,4.5703,4.5821,0.0,0.0,0.0,0.0,0.0,0.0,0.0,0.0,0.0,0.0,0.0,0.0,0.0,0.0,0.0,0.0,0.0,0.0,0.0,0.0,0.0,0.0,0.0,0.0,0.0,0.0,2.7402,2.8994,2.9824,2.9916,0.0,0.0,0.0,2.7602,0.0,0.0,0.0,0.0,0.0,0.0,0.0,0.0,0.0,0.0,0.0,0.0,0.0,0.0,0.0,0.0,0.0,0.0,0.0,0.0,0.0,2.6774,2.7023,2.7286,2.6913,2.6666,2.6788,2.7812,2.8499,2.9591,3.2207,3.2537,3.2983,3.5453,3.5351,3.4759,3.4539,3.4489,3.481,3.5808,3.6603,3.7449,3.8413,3.8548,3.8751,3.9242,3.9326,3.9512,4.002,4.007,4.007,4.007,4.007,4.007,4.007,4.007,4.007,4.007,4.007,4.007,4.007,4.007,4.007,4.007,4.007,4.007,4.007,4.007,4.007,4.007,4.007,4.0206,4.051,4.1779,4.32,4.4587,4.4587,4.4587,4.4671,4.5432,4.5703,4.5889,0.0,0.0,0.0,0.0,0.0,0.0,0.0,0.0,0.0,0.0,0.0,0.0,0.0,0.0,0.0,0.0,0.0,0.0,0.0,0.0,0.0,0.0,0.0,0.0,0.0,2.5521,2.6759,0.0,0.0,0.0,0.0,0.0,0.0,2.8246,0.0,2.671,2.6004,0.0,0.0,0.0,0.0,0.0,0.0,0.0,0.0,0.0,0.0,0.0,0.0,0.0,0.0,0.0,0.0,0.0,0.0,2.6468,2.6688,2.697,2.6185,2.6061,2.6506,2.7625,2.8711,3.0041,3.2283,3.3476,3.4455,3.5808,3.547,3.503,3.5334,3.4895,3.4844,3.591,3.6468,3.7043,3.7804,3.7905,3.8075,3.8514,3.8565,3.8734,3.9174,3.9478,3.9529,3.9242,3.9478,3.9648,3.9648,3.9648,3.9783,4.007,4.007,4.007,4.007,4.007,4.007,4.007,4.007,4.007,4.007,4.007,4.007,4.007,4.007,4.0409,4.1018,4.1914,4.32,4.4587,4.4587,4.4587,4.4705,4.5754,4.6143,4.6346,0.0,0.0,0.0,0.0,0.0,0.0,0.0,0.0,0.0,0.0,0.0,0.0,0.0,0.0,0.0,0.0,0.0,0.0,0.0,0.0,0.0,0.0,0.0,0.0,0.0,0.0,0.0,0.0,0.0,0.0,0.0,0.0,2.8994,2.8957,0.0,2.786,2.7732,0.0,0.0,0.0,0.0,0.0,0.0,0.0,0.0,0.0,0.0,0.0,0.0,0.0,0.0,0.0,0.0,2.7348,2.7134,2.6026,2.5882,2.5786,2.447,2.4812,2.5685,2.626,2.823,3.0468,3.2172,3.4661,3.6571,3.6474,3.5949,3.5684,3.648,3.5368,3.4878,3.6332,3.6569,3.6806,3.7499,3.7652,3.7736,3.7787,3.7804,3.7838,3.7905,3.8514,3.8616,3.7956,3.8514,3.892,3.8988,3.8988,3.9326,4.0054,4.007,4.007,4.007,4.007,4.007,4.007,4.007,4.007,4.007,4.007,4.007,4.007,4.007,4.0916,4.2286,4.2286,4.32,4.4587,4.4587,4.4587,4.4756,4.6244,4.6786,4.7005,0.0,0.0,0.0,0.0,0.0,0.0,0.0,0.0,0.0,0.0,0.0,0.0,0.0,0.0,0.0,0.0,0.0,0.0,0.0,0.0,0.0,0.0,0.0,0.0,0.0,0.0,0.0,0.0,0.0,0.0,0.0,0.0,0.0,2.8975,0.0,2.8393,0.0,0.0,0.0,0.0,0.0,0.0,0.0,0.0,0.0,0.0,0.0,0.0,0.0,0.0,0.0,0.0,2.7783,2.7783,2.7601,2.6719,2.6536,2.649,2.5871,2.5844,2.6446,2.8434,3.1112,3.3229,3.2948,3.4082,3.4882,3.3995,3.4157,3.4528,3.4931,3.4252,3.3931,3.4844,3.4979,3.5047,3.5199,3.574,3.6332,3.6941,3.7026,3.7263,3.7838,3.8041,3.8075,3.7922,3.8058,3.8396,3.8954,3.8988,3.9326,4.0054,4.007,4.007,4.007,4.007,4.007,4.007,4.007,4.007,4.007,4.007,4.007,4.007,4.007,4.0916,4.2286,4.2286,4.32,4.4587,4.4587,4.4587,4.4756,4.6244,4.6786,4.7005,0.0,0.0,0.0,0.0,0.0,0.0,0.0,0.0,0.0,0.0,0.0,0.0,0.0,0.0,0.0,0.0,0.0,0.0,0.0,0.0,0.0,0.0,0.0,0.0,0.0,0.0,0.0,0.0,0.0,0.0,0.0,0.0,0.0,2.8994,0.0,2.8778,0.0,0.0,0.0,0.0,0.0,0.0,0.0,0.0,0.0,0.0,0.0,0.0,0.0,0.0,0.0,0.0,0.0,0.0,2.7903,2.6809,2.672,2.6712,2.5446,2.5728,2.6903,2.9114,3.1013,3.2295,3.2039,3.2755,3.3182,3.209,3.2795,3.3658,3.3914,3.3372,3.322,3.432,3.4201,3.41,3.4438,3.4827,3.5233,3.5639,3.6011,3.6383,3.6772,3.7144,3.7212,3.684,3.7161,3.7533,3.7922,3.8278,3.8802,3.9529,3.9901,3.9918,3.9563,3.9901,3.9901,3.9563,3.9918,4.007,4.007,4.007,4.007,4.007,4.007,4.073,4.1796,4.2151,4.298,4.4062,4.4434,4.4587,4.4756,4.6244,4.6583,4.6532,0.0,0.0,0.0,0.0,0.0,0.0,0.0,0.0,0.0,0.0,0.0,0.0,0.0,0.0,0.0,0.0,0.0,0.0,0.0,0.0,0.0,0.0,0.0,0.0,0.0,0.0,0.0,0.0,0.0,0.0,0.0,0.0,0.0,2.8994,0.0,0.0,0.0,0.0,0.0,0.0,0.0,0.0,0.0,0.0,2.6209,2.5271,2.4333,0.0,0.0,0.0,0.0,0.0,0.0,0.0,2.8146,2.6865,2.6763,2.6621,2.4801,2.5565,2.7325,2.8972,2.9886,3.0451,3.0546,3.1309,3.1743,3.0869,3.188,3.2962,3.3175,3.2594,3.2577,3.4066,3.3694,3.3508,3.437,3.4489,3.4539,3.4675,3.5233,3.5622,3.5622,3.6197,3.6315,3.5673,3.6214,3.6637,3.6772,3.7381,3.8058,3.8785,3.9394,3.9411,3.8819,3.9529,3.958,3.9005,3.9732,4.007,4.007,4.007,4.007,4.007,4.007,4.0578,4.1441,4.2049,4.2811,4.3673,4.4333,4.4654,4.4942,4.6295,4.6481,4.6363,0.0,0.0,0.0,0.0,0.0,0.0,0.0,0.0,0.0,0.0,0.0,0.0,0.0,0.0,0.0,0.0,0.0,0.0,0.0,0.0,0.0,0.0,0.0,0.0,0.0,0.0,0.0,0.0,0.0,0.0,0.0,0.0,0.0,2.8994,0.0,0.0,0.0,0.0,0.0,0.0,0.0,0.0,0.0,0.0,2.6704,2.5364,2.5234,2.5344,2.5658,2.6313,2.7116,0.0,0.0,0.0,2.8306,2.783,2.7034,2.6272,2.5964,2.6858,2.7931,2.845,2.9911,3.0909,2.964,3.046,3.1338,3.0814,3.1723,3.2546,3.2474,3.1833,3.1833,3.3322,3.2916,3.2916,3.4303,3.4489,3.4742,3.5402,3.5554,3.5622,3.5622,3.5723,3.574,3.5622,3.5723,3.6062,3.6738,3.6874,3.7263,3.8024,3.8142,3.8159,3.8058,3.8768,3.9089,3.9005,3.9732,4.007,4.007,4.007,4.007,4.007,4.007,4.0865,4.2151,4.2252,4.3132,4.4434,4.4536,4.4976,4.5652,4.6481,4.7141,4.775,0.0,0.0,0.0,0.0,0.0,0.0,0.0,0.0,0.0,0.0,0.0,0.0,0.0,0.0,0.0,0.0,0.0,0.0,0.0,0.0,0.0,0.0,0.0,0.0,0.0,0.0,0.0,0.0,0.0,0.0,0.0,2.881,2.8994,0.0,0.0,0.0,0.0,0.0,0.0,0.0,0.0,0.0,0.0,2.7658,2.7071,2.6062,2.6062,2.6355,2.6796,2.7145,2.7805,2.8517,2.8688,0.0,0.0,0.0,2.7825,2.7431,2.7431,2.7211,2.7264,2.8431,2.9083,2.9296,2.8829,2.9565,3.0405,3.0409,3.1152,3.181,3.1708,3.141,3.1546,3.2594,3.2154,3.2036,3.3102,3.3254,3.3372,3.3711,3.4117,3.4387,3.4387,3.4742,3.4979,3.4979,3.5385,3.5774,3.6113,3.6552,3.6924,3.7263,3.7686,3.7702,3.728,3.843,3.9191,3.9597,3.9935,4.007,4.007,4.007,4.007,4.007,4.007,4.0443,4.1119,4.1948,4.2692,4.3386,4.4248,4.479,4.5162,4.5906,4.6126,4.6261,0.0,0.0,0.0,0.0,0.0,0.0,0.0,0.0,0.0,0.0,0.0,0.0,0.0,0.0,0.0,0.0,0.0,0.0,0.0,0.0,0.0,0.0,0.0,0.0,0.0,0.0,0.0,0.0,0.0,0.0,2.8994,2.8994,2.8994,0.0,2.8994,2.8994,0.0,0.0,0.0,0.0,0.0,2.8254,2.7515,2.7606,2.7066,2.6319,2.6565,2.6914,2.7236,2.7658,2.8209,2.8741,2.892,2.8994,0.0,0.0,0.0,2.8456,2.8655,2.7822,2.7313,2.8913,2.8745,2.8213,2.8352,2.8853,2.9395,2.9798,3.0419,3.0938,3.1192,3.1193,3.1427,3.2195,3.1664,3.1512,3.2442,3.2408,3.2381,3.2544,3.3068,3.3406,3.3406,3.3897,3.4303,3.4472,3.4844,3.5216,3.5605,3.5994,3.6282,3.6485,3.7043,3.706,3.6485,3.7973,3.9174,4.007,4.007,4.007,4.007,4.007,4.007,4.007,4.007,4.0189,4.046,4.1762,4.2405,4.2709,4.4062,4.4688,4.4959,4.5703,4.5618,4.5432,0.0,0.0,0.0,0.0,0.0,0.0,0.0,0.0,0.0,0.0,0.0,0.0,0.0,0.0,0.0,0.0,0.0,0.0,0.0,0.0,0.0,0.0,0.0,0.0,0.0,0.0,0.0,0.0,0.0,0.0,2.8994,2.8994,2.8994,2.8994,2.8994,2.8994,2.8994,0.0,0.0,0.0,0.0,2.7539,2.6691,2.71,2.6487,2.5588,2.6543,2.6299,2.577,2.7273,2.7824,2.7989,2.8778,2.8994,2.8994,0.0,0.0,0.0,2.9349,2.9211,2.9069,2.9929,2.953,2.887,2.8478,2.8438,2.8586,2.8982,2.9415,3.003,3.1105,3.1231,3.1427,3.2195,3.1664,3.1698,3.3136,3.273,3.2544,3.3271,3.3389,3.3406,3.3406,3.344,3.3744,3.4438,3.3897,3.4134,3.5554,3.4979,3.4945,3.5656,3.5723,3.5723,3.5673,3.7195,3.8667,4.007,4.007,4.007,4.007,4.007,4.007,4.007,4.007,4.0493,4.1204,4.1965,4.2709,4.3453,4.4265,4.501,4.5737,4.6464,4.6718,4.6887,0.0,0.0,0.0,0.0,0.0,0.0,0.0,0.0,0.0,0.0,0.0,0.0,0.0,2.503,2.4898,2.4831,2.462,0.0,0.0,0.0,0.0,0.0,0.0,0.0,0.0,0.0,0.0,0.0,0.0,2.8994,2.8994,2.8994,2.8994,2.8994,2.8994,2.9089,2.9246,2.9246,0.0,2.8767,2.8293,2.7585,2.6801,2.6821,2.632,2.569,2.6445,2.6806,2.7016,2.7603,2.8267,2.8836,2.8952,2.9112,2.9225,2.9044,2.8725,2.8518,2.9071,2.8774,2.8543,2.9574,2.9044,2.8386,2.8696,2.8596,2.8585,2.9251,2.9503,2.989,3.0807,3.0727,3.0838,3.1881,3.1342,3.111,3.1873,3.1749,3.1681,3.1952,3.1985,3.1985,3.1985,3.2408,3.3,3.3744,3.3981,3.4539,3.5571,3.5368,3.5351,3.5605,3.5622,3.6096,3.7077,3.7635,3.8633,4.007,4.007,4.007,4.007,4.007,4.007,4.007,4.007,4.024,4.0578,4.1796,4.2455,4.2811,4.4079,4.4739,4.501,4.528,4.5686,4.6244,0.0,0.0,0.0,0.0,0.0,0.0,0.0,0.0,0.0,0.0,0.0,0.0,0.0,0.0,2.5057,2.501,2.4997,2.4808,2.434,0.0,0.0,0.0,0.0,0.0,0.0,0.0,0.0,0.0,0.0,0.0,0.0,2.8994,2.8994,2.8994,2.8994,2.9089,0.0,2.9267,2.9267,2.9196,2.8184,2.755,2.7135,2.6656,2.6284,2.606,2.6517,2.7032,2.7493,2.7493,2.8029,2.867,2.8682,2.896,2.9225,2.9044,2.8815,2.8767,2.9588,2.9347,2.9158,3.0324,2.9533,2.8611,2.9076,2.8582,2.8254,2.9061,2.9188,2.9485,3.045,3.0124,3.0054,3.113,3.089,3.0695,3.095,3.1121,3.119,3.119,3.119,3.119,3.119,3.163,3.2222,3.2983,3.3474,3.4184,3.5182,3.525,3.5351,3.556,3.5622,3.6349,3.7889,3.7905,3.8633,4.007,4.007,4.007,4.007,4.007,4.007,4.007,4.007,4.007,4.0189,4.1677,4.2286,4.2439,4.3978,4.4587,4.4637,4.5145,4.5483,4.5889,0.0,0.0,0.0,0.0,0.0,0.0,0.0,0.0,0.0,2.5303,0.0,0.0,0.0,0.0,0.0,2.5099,2.566,2.5618,2.4642,2.4569,0.0,0.0,0.0,0.0,0.0,0.0,0.0,0.0,0.0,0.0,0.0,0.0,2.8994,2.8994,2.8994,2.8994,2.8994,2.9017,2.9035,2.8952,2.7717,2.7457,2.7693,2.6597,2.6341,2.6583,2.6785,2.6861,2.6879,2.6898,2.7062,2.7349,2.796,2.8556,2.8994,2.9012,2.903,2.936,0.0,0.0,0.0,3.2271,3.1064,2.9607,2.9574,2.8428,2.7577,2.8246,2.8438,2.8793,2.9936,2.9507,2.9234,2.9958,3.0363,3.0577,3.0594,3.097,3.119,3.119,3.119,3.119,3.119,3.119,3.1495,3.2222,3.2347,3.2949,3.4404,3.4506,3.4861,3.5605,3.5639,3.6383,3.7889,3.7922,3.8667,4.007,4.007,4.007,4.007,4.007,4.007,4.007,4.007,4.007,4.0189,4.166,4.2269,4.2439,4.3961,4.4553,4.4756,4.6227,4.6329,4.6041,0.0,0.0,0.0,0.0,0.0,0.0,0.0,0.0,2.5303,0.0,0.0,0.0,2.6236,2.6794,2.7105,2.6906,2.6873,2.6691,2.6263,2.6097,2.5976,2.5933,2.6078,0.0,0.0,0.0,0.0,0.0,0.0,0.0,0.0,0.0,0.0,0.0,2.8994,2.8994,2.9017,2.9222,2.9622,3.0033,2.8464,2.7998,2.8054,2.6461,2.5675,2.5442,2.5389,2.5737,2.6341,2.6921,2.7667,2.8453,2.9075,2.9148,2.9104,2.9714,2.9879,3.0099,3.1109,0.0,0.0,0.0,0.0,0.0,2.924,2.9066,2.8873,2.8476,2.9094,2.9545,2.9014,2.8943,2.8961,2.8892,2.9632,3.0309,3.056,3.097,3.119,3.119,3.119,3.119,3.119,3.119,3.1495,3.2222,3.278,3.3508,3.4438,3.5013,3.5402,3.556,3.6163,3.6924,3.7889,3.843,3.9157,4.007,4.007,4.007,4.007,4.007,4.007,4.007,4.007,4.007,4.0155,4.1119,4.1813,4.2388,4.3369,4.4079,4.4688,4.5652,4.621,4.665,0.0,0.0,0.0,0.0,0.0,0.0,0.0,0.0,0.0,0.0,0.0,0.0,2.7101,2.789,2.8233,2.7757,2.7885,2.7766,2.7226,2.7076,2.6971,2.6898,2.7006,2.7208,0.0,0.0,0.0,0.0,0.0,0.0,0.0,0.0,0.0,0.0,0.0,0.0,2.9017,2.9178,2.9567,2.9971,2.8372,2.7959,2.8108,2.6545,2.5891,2.5763,2.5412,2.6118,2.7138,2.6892,2.7928,2.9341,2.9578,2.9884,3.0249,3.0607,3.0705,3.087,3.1678,3.1898,3.1847,3.1592,0.0,0.0,2.8827,2.8621,2.8475,2.7861,2.8407,2.8856,2.8466,2.8464,2.8564,2.864,2.9324,2.9977,3.0347,3.0889,3.1239,3.1179,3.1524,3.16,3.123,3.1351,3.1696,3.2263,3.2983,3.3863,3.4912,3.5385,3.5622,3.5622,3.6366,3.6992,3.7432,3.8481,3.9208,3.9631,3.9935,4.007,4.007,4.007,4.007,4.007,4.007,4.007,4.0138,4.0899,4.1627,4.2405,4.347,4.4367,4.5145,4.5889,4.6633,4.7361,0.0,0.0,0.0,0.0,0.0,0.0,0.0,0.0,0.0,0.0,2.6813,2.7217,2.8082,2.8813,2.8948,2.8236,2.8898,2.8975,2.8057,2.7992,2.7904,2.7721,2.7642,2.7925,0.0,0.0,0.0,0.0,0.0,0.0,0.0,0.0,0.0,0.0,0.0,0.0,2.8994,2.8994,2.9101,2.9153,2.7826,2.7677,2.8129,2.6797,2.6458,2.6651,2.6117,2.6992,2.821,2.6925,2.8044,2.9969,2.9787,3.0563,3.1533,3.152,3.1458,3.1586,3.2504,3.2742,3.2724,3.2632,3.1855,0.0,2.8782,2.8082,2.7704,2.7323,2.7508,2.7909,2.8434,2.8342,2.8346,2.8959,2.9333,2.9706,3.0166,3.0835,3.1272,3.1283,3.195,3.2092,3.1291,3.1565,3.1932,3.2246,3.3051,3.4134,3.5554,3.5622,3.5622,3.5622,3.6366,3.6823,3.6907,3.8294,3.9039,3.9123,3.9766,4.007,4.007,4.007,4.007,4.007,4.007,4.0121,4.0257,4.1018,4.1711,4.2422,4.3876,4.4959,4.5788,4.6532,4.7276,4.802,0.0,0.0,0.0,0.0,0.0,0.0,0.0,0.0,0.0,2.764,2.8198,2.8948,2.9833,3.0063,3.0083,2.9929,3.0496,3.0782,3.06,3.0427,3.0311,3.0277,2.9763,2.9555,2.9707,0.0,0.0,0.0,0.0,0.0,0.0,0.0,0.0,0.0,0.0,0.0,2.8994,2.8994,2.875,2.8333,2.8035,2.8465,2.9081,2.7015,2.5964,2.5597,2.5477,2.5663,2.6145,2.7231,2.8651,3.0083,3.0503,3.0302,3.0206,3.1863,3.1916,3.1715,3.3164,3.3568,3.3421,3.2761,3.2433,0.0,3.0976,3.0939,3.0872,3.0176,3.0297,3.0293,2.9438,2.9492,2.9607,2.9428,2.9715,3.0223,3.0967,3.1149,3.1316,3.1642,3.1825,3.1733,3.1269,3.1565,3.1932,3.2246,3.3525,3.4675,3.5571,3.5622,3.5622,3.5622,3.6366,3.7077,3.7686,3.8548,3.9292,3.9868,4.0003,4.007,4.007,4.007,4.007,4.007,4.007,4.0426,4.1035,4.1779,4.2168,4.2388,4.3284,4.4485,4.5788,4.6532,4.7276,4.802,0.0,0.0,0.0,0.0,0.0,0.0,0.0,0.0,2.864,2.9083,3.0237,3.116,3.1602,3.166,3.166,3.166,3.191,3.2086,3.2086,3.2015,3.1764,3.1382,3.1016,3.0649,3.0196,0.0,0.0,0.0,0.0,0.0,0.0,0.0,0.0,0.0,0.0,0.0,2.8759,2.9636,3.0054,3.002,2.8651,2.8166,2.8146,2.7088,2.6512,2.6187,2.5872,2.6105,2.6871,2.8563,3.0075,3.1267,3.1448,3.1631,3.1991,3.2912,3.2908,3.2761,3.3587,3.3807,3.3605,3.2816,3.2614,0.0,0.0,3.1021,3.1217,3.0414,3.0356,3.0339,2.9922,2.9673,2.9592,2.9778,2.9971,3.0646,3.2274,3.1982,3.1655,3.1773,3.223,3.2179,3.1291,3.1565,3.2087,3.2788,3.4218,3.5216,3.5605,3.5622,3.5791,3.618,3.6569,3.7144,3.7905,3.8918,3.9572,3.9949,4.0642,4.0814,4.0497,4.0814,4.075,4.0546,4.0814,4.1163,4.1566,4.2379,4.2775,4.2843,4.3647,4.4925,4.6295,4.665,4.7496,4.8511,0.0,0.0,0.0,0.0,0.0,0.0,0.0,0.0,2.991,3.0775,3.1929,3.2679,3.2699,3.2545,3.2506,3.2667,3.2705,3.2833,3.3122,3.3013,3.2628,3.1968,3.1929,3.1525,3.0679,0.0,0.0,0.0,0.0,0.0,0.0,0.0,0.0,0.0,0.0,3.0675,2.9223,3.0467,3.1279,3.1562,2.9495,2.839,2.7957,2.7673,2.7562,2.7475,2.6784,2.7221,2.8352,2.989,3.127,3.2359,3.2354,3.3023,3.3808,3.381,3.3697,3.3605,3.3752,3.3807,3.3668,3.3059,3.2886,3.2415,0.0,0.0,0.0,3.0505,3.0272,3.0256,3.0578,3.0023,2.968,3.0139,3.0285,3.0974,3.2844,3.2464,3.2062,3.2353,3.271,3.2608,3.1698,3.2034,3.2676,3.3567,3.4931,3.5694,3.5622,3.5694,3.5983,3.6535,3.669,3.7143,3.8044,3.9157,3.9886,4.0182,4.1278,4.1534,4.1087,4.1578,4.1534,4.1087,4.1578,4.1881,4.2086,4.2969,4.3458,4.3669,4.4468,4.5677,4.6986,4.7141,4.8038,4.9212,2.5457,2.6005,0.0,0.0,0.0,0.0,0.0,0.0,3.1698,3.2506,3.216,3.1872,3.1917,3.1244,3.1078,3.1847,3.1988,3.259,3.3949,3.339,3.2916,3.2776,3.2756,3.2372,3.1564,0.0,0.0,0.0,0.0,0.0,0.0,0.0,0.0,0.0,3.1084,3.1124,3.173,3.1221,3.0636,3.0105,3.0506,3.1159,3.1648,2.9634,2.8883,2.8787,2.7992,2.8245,2.9102,3.0083,3.102,3.1974,3.2939,3.2863,3.2613,3.3529,3.3293,3.2908,3.3605,3.3807,3.385,3.3987,3.3857,3.3666,3.3703,0.0,3.2925,3.2816,0.0,3.2186,3.2219,0.0,0.0,3.0698,3.0885,3.1062,3.1028,3.1498,3.2494,3.4253,3.2985,3.2251,3.3059,3.377,3.4253,3.4353,3.5591,3.6097,3.5622,3.6054,3.6148,3.5757,3.6191,3.7145,3.8589,3.9234,4.0223,4.1584,4.1715,4.175,4.1707,4.175,4.175,4.1707,4.175,4.2182,4.2829,4.3668,4.4382,4.4976,4.5318,4.6341,4.7781,4.8329,4.9151,4.9879,2.613,2.714,0.0,0.0,0.0,0.0,0.0,0.0,3.3276,3.3603,3.3795,3.4122,3.4693,3.4424,3.4147,3.4011,3.3646,3.3634,3.416,3.3454,3.3204,3.3641,3.3641,3.3256,3.241,3.2391,0.0,0.0,3.1969,0.0,0.0,0.0,0.0,0.0,3.2428,3.1965,3.1197,3.1828,3.2206,3.2373,3.2722,3.3704,3.4591,3.1401,2.9966,2.9526,2.8837,2.8813,2.9159,2.9525,3.0759,3.2244,3.2721,3.3223,3.3749,3.4188,3.4083,3.3877,3.4232,3.4307,3.4307,3.4218,3.4123,3.4018,3.3986,3.3752,3.355,3.355,0.0,0.0,0.0,0.0,0.0,0.0,3.1264,3.1555,3.2585,3.238,3.2479,3.3628,3.2993,3.2724,3.3347,3.4066,3.4489,3.4489,3.581,3.6348,3.5639,3.6253,3.674,3.6941,3.7033,3.8035,3.9978,4.0441,4.1196,4.2342,4.2657,4.2619,4.2342,4.2657,4.2619,4.2342,4.2657,4.3224,4.3981,4.4414,4.5076,4.5819,4.6379,4.7356,4.8414,4.8685,4.9605,5.0608,2.7371,0.0,0.0,0.0,0.0,0.0,0.0,3.3256,3.4276,3.4545,3.493,3.5526,3.6516,3.6202,3.5855,3.5691,3.4573,3.3994,3.4264,3.3506,3.321,3.3557,3.4205,3.4045,3.2936,3.3141,3.3256,0.0,0.0,0.0,0.0,0.0,0.0,0.0,3.3653,3.2924,3.1506,3.2487,3.3141,3.3526,3.3737,3.4718,3.571,3.2931,3.1299,3.0404,2.9971,2.966,2.9486,2.9737,3.1053,3.2649,3.2797,3.3766,3.4812,3.4714,3.4694,3.4694,3.4694,3.4694,3.4691,3.4682,3.4414,3.4258,3.4534,3.4365,3.4211,3.4431,3.4071,0.0,0.0,0.0,3.2126,3.1915,0.0,3.2276,3.3401,3.311,3.3117,3.3848,3.3783,3.3699,3.3702,3.437,3.4793,3.4793,3.6174,3.6684,3.596,3.6939,3.7723,3.812,3.826,3.9217,4.1034,4.151,4.2105,4.2939,4.3321,4.3286,4.2939,4.3321,4.3286,4.2939,4.3321,4.3956,4.4728,4.5087,4.5711,4.6527,4.7306,4.8359,4.9334,4.9334,5.0222,5.1393,2.9294,2.9113,2.9102,2.9102,2.9813,0.0,3.2602,3.3622,3.4526,3.5449,3.4834,3.4751,3.5815,3.4424,3.4078,3.5759,3.3677,3.2898,3.4392,3.3677,3.2837,3.2004,3.4216,3.4686,3.3038,3.3763,3.416,3.416,0.0,0.0,0.0,0.0,0.0,0.0,3.4286,3.3915,3.4026,3.3237,3.2468,3.1852,3.2622,3.3487,3.4257,3.4141,3.3071,3.1628,3.1621,3.1083,3.0487,3.1333,3.2179,3.2987,3.3566,3.438,3.5053,3.4793,3.4694,3.4694,3.4694,3.4694,3.4883,3.5654,3.5023,3.4604,3.6236,3.5734,3.5192,3.6046,3.5522,3.4954,3.4954,3.3946,3.2931,3.222,3.2952,0.0,0.0,3.3176,3.4666,3.6139,3.5822,3.5233,3.4523,3.5131,3.5588,3.5588,3.6766,3.7256,3.6785,3.845,3.9171,3.8695,3.9676,4.0618,4.1448,4.201,4.2656,4.3479,4.3479,4.3479,4.3479,4.3479,4.3479,4.3497,4.3479,4.3956,4.4764,4.5535,4.6342,4.7149,4.7956,4.9276,5.0743,5.0743,5.1297,5.2065,0.0,3.1788,3.1557,3.0929,3.1506,3.2449,3.3583,3.4545,3.5449,3.6329,3.6208,3.6625,3.8232,3.7379,3.6697,3.6756,3.4981,3.378,3.3653,3.396,3.3716,3.2807,3.5114,3.562,3.389,3.4647,3.5064,3.5064,3.4776,0.0,0.0,0.0,0.0,0.0,3.4477,3.4126,3.418,3.3891,3.3949,3.4295,3.5103,3.5584,3.568,3.3987,3.3353,3.3276,3.2699,3.2295,3.2102,3.2391,3.3064,3.3801,3.3997,3.4659,3.5354,3.5258,3.5223,3.5223,3.5223,3.5223,3.5381,3.6007,3.5875,3.5834,3.6817,3.6742,3.6489,3.6556,3.6522,3.6173,3.5174,3.4586,3.3943,3.2984,3.3323,3.3704,0.0,3.5166,3.6264,3.6405,3.5941,3.552,3.5267,3.547,3.5622,3.5622,3.648,3.6968,3.6818,3.8182,3.9094,3.9423,4.0499,4.1467,4.2316,4.2848,4.3222,4.3497,4.3497,4.3497,4.3497,4.3497,4.3497,4.3497,4.3497,4.425,4.5516,4.5792,4.6691,4.7921,4.8196,4.9334,5.0802,5.0802,5.1669,5.2831,3.3019,3.3639,3.3604,3.2422,3.2872,3.3692,3.4558,3.5482,3.6406,3.7319,3.7429,3.8022,3.9597,3.8984,3.8384,3.8183,3.6328,3.5016,3.4686,3.4622,3.4334,3.3757,3.5211,3.5388,3.3972,3.473,3.5128,3.507,3.5378,3.5526,0.0,0.0,0.0,0.0,3.5218,3.4757,3.4218,3.4526,3.4622,3.4661,3.5488,3.6007,3.6103,3.4449,3.418,3.4545,3.368,3.316,3.2891,3.2891,3.3468,3.4199,3.4199,3.4795,3.5493,3.5493,3.5493,3.5493,3.5493,3.5493,3.5624,3.6167,3.6077,3.6176,3.7327,3.7379,3.7181,3.7234,3.745,3.7156,3.5597,3.5192,3.4821,3.4147,3.4371,3.4906,0.0,3.6628,3.7058,3.6724,3.6374,3.6079,3.5898,3.6337,3.6302,3.5639,3.678,3.7405,3.7225,3.858,3.9748,4.0472,4.1615,4.245,4.2976,4.3339,4.3497,4.3497,4.3497,4.3497,4.3497,4.3497,4.3497,4.3497,4.3497,4.4397,4.5902,4.5902,4.6856,4.8306,4.8306,4.9334,5.0802,5.0802,5.183,5.3243,3.3422,3.4621,3.5116,3.3558,3.393,3.4712,3.5547,3.6459,3.7398,3.8342,3.8458,3.8859,3.9841,3.9199,3.9004,3.9824,3.7559,3.6406,3.7187,3.5664,3.4707,3.4648,3.4636,3.4212,3.332,3.4128,3.4474,3.432,3.5166,3.5565,0.0,0.0,0.0,0.0,3.6315,3.5757,3.4314,3.5161,3.4545,3.3103,3.393,3.4776,3.5565,3.5526,3.5512,3.5449,3.4584,3.3718,3.3026,3.3026,3.3583,3.4257,3.4257,3.4834,3.5493,3.5493,3.5493,3.5493,3.5493,3.5493,3.5624,3.6186,3.5734,3.5719,3.7797,3.7678,3.736,3.8109,3.832,3.787,3.626,3.5762,3.5576,3.5559,3.6019,3.6705,3.7763,3.7542,3.7248,3.7248,3.7266,3.7058,3.6498,3.7589,3.7591,3.579,3.7524,3.8429,3.7953,3.9678,4.1055,4.1775,4.2903,4.3497,4.3497,4.3497,4.3497,4.3497,4.3497,4.3497,4.3497,4.3497,4.3497,4.3497,4.3534,4.4452,4.5902,4.5938,4.6874,4.8306,4.8361,4.9389,5.0857,5.0912,5.1903,5.3335,3.5181,3.5512,3.574,3.59,3.615,3.6362,3.6548,3.7405,3.8357,3.9251,3.9359,3.9742,4.0759,4.0098,3.9668,3.9883,3.8105,3.6797,3.6367,3.6504,3.5742,3.3828,3.5504,3.5491,3.334,3.4633,3.503,3.4445,3.5179,3.5545,3.5584,0.0,0.0,0.0,3.5718,3.5584,3.518,3.5411,3.5238,3.4853,3.5084,3.5661,3.6334,3.5738,3.5872,3.6276,3.5468,3.5026,3.4834,3.4834,3.4988,3.518,3.518,3.5334,3.5493,3.5493,3.5493,3.5493,3.5493,3.5493,3.5685,3.6415,3.6439,3.6612,3.7795,3.7929,3.7764,3.7719,3.7925,3.7827,3.6948,3.6933,3.6912,3.6459,3.6833,3.7375,3.7835,3.815,3.8168,3.7773,3.8083,3.7982,3.7058,3.7291,3.7132,3.6266,3.7214,3.7833,3.7919,3.9678,4.1055,4.1775,4.2903,4.3497,4.3497,4.3497,4.3497,4.3497,4.3497,4.3497,4.3497,4.3497,4.3497,4.3516,4.4121,4.4966,4.5957,4.6562,4.7407,4.8361,4.9003,5.0251,5.1756,5.2362,5.2858,5.3335,3.5819,3.6181,3.6593,3.7376,3.7872,3.8175,3.8136,3.8656,3.9366,4.024,4.0354,4.0577,4.1132,4.0762,4.0469,4.0469,3.8867,3.7812,3.7715,3.709,3.623,3.5156,3.5742,3.5234,3.3379,3.4183,3.4588,3.4467,3.4863,3.5403,3.6084,0.0,0.0,0.0,3.6276,3.6392,3.6026,3.6026,3.6026,3.5988,3.5641,3.5776,0.0,3.568,3.5795,3.6122,3.5661,3.5493,3.5551,3.5911,3.6026,3.6103,3.6469,3.6334,3.6026,3.6026,3.5795,3.5493,3.5493,3.5493,3.5622,3.6065,3.618,3.6411,3.7238,3.7738,3.7843,3.7277,3.7913,3.812,3.6668,3.7069,3.7528,3.7268,3.7664,3.8065,3.8245,3.8496,3.8578,3.83,3.8515,3.8483,3.7895,3.8167,3.806,3.7351,3.784,3.848,3.9091,4.0011,4.1042,4.2167,4.3378,4.3864,4.3497,4.3846,4.3846,4.3497,4.3497,4.3497,4.3497,4.3497,4.3497,4.3534,4.436,4.5168,4.5957,4.6783,4.781,4.8985,5.0178,5.1187,5.2087,5.2913,5.3427,5.3849,3.6124,3.6861,3.7602,3.8348,3.9166,3.9739,3.9874,4.0006,4.0332,4.1094,4.1191,4.1191,4.1191,4.1191,4.1191,4.1191,3.9609,3.8926,3.9687,3.7383,3.6348,3.7109,3.5684,3.4453,3.3594,3.3672,3.4027,3.4616,3.4633,3.5427,0.0,0.0,0.0,0.0,3.718,3.7353,3.6546,3.6661,3.6642,3.6488,3.5795,3.5493,3.5493,3.5493,3.5493,3.5493,3.5493,3.5493,3.5622,3.643,3.6699,3.6853,3.7738,3.7488,3.6873,3.6873,3.6392,3.5815,3.5699,3.5738,3.5815,3.5699,3.5738,3.6007,3.6719,3.7469,3.7796,3.7026,3.8084,3.8488,3.6392,3.6955,3.7851,3.8158,3.8414,3.8621,3.8762,3.8719,3.8707,3.8707,3.8719,0.0,3.8707,3.9331,3.9392,3.8534,3.8959,3.9624,4.0494,4.061,4.1178,4.2495,4.3835,4.4268,4.3644,4.425,4.425,4.3644,4.3534,4.3497,4.3497,4.3497,4.3497,4.3534,4.447,4.5259,4.5975,4.6893,4.8251,4.9903,5.1408,5.205,5.2234,5.2949,5.372,5.4528,3.773,3.8062,3.8458,3.9301,3.9604,3.997,4.0808,4.0967,4.1035,4.1172,4.1191,4.1191,4.1191,4.1191,4.1191,4.1191,3.9609,3.8652,3.8828,3.7051,3.6074,3.6211,3.5937,3.5351,3.4492,3.5117,3.5545,3.5723,3.5505,3.6304,0.0,0.0,0.0,0.0,3.6796,3.6469,3.5757,3.643,3.6334,3.5699,3.5565,3.5493,3.5493,3.5493,3.5493,3.5493,3.5493,3.5493,3.5622,3.643,3.6699,3.6853,3.7738,3.7892,3.7777,3.7777,3.768,3.7411,3.6699,3.7007,3.7392,3.668,3.7026,3.7603,3.7738,3.7892,3.7969,3.7796,3.8027,3.8315,3.8584,3.8621,3.8842,3.96,3.877,3.8256,3.8961,3.8844,3.8707,3.8707,3.8913,3.8933,3.8719,3.8836,3.894,3.8995,3.9608,3.9946,3.9709,4.1343,4.208,4.1647,4.2977,4.3956,4.4488,4.3975,4.3975,4.4488,4.3809,4.3497,4.3497,4.3497,4.3497,4.3571,4.5039,4.5773,4.6012,4.748,4.9077,5.0674,5.1628,5.2417,5.3023,5.317,5.372,5.4528,3.8851,3.9462,3.998,4.0404,4.1195,4.164,4.1271,4.1543,4.168,4.125,4.1191,4.1191,4.1191,4.1191,4.1191,4.1191,4.0019,3.9082,3.8633,3.7383,3.6465,3.6016,3.5996,3.5586,3.4726,3.5078,3.5703,3.6562,3.5563,3.6377,0.0,3.745,3.6762,3.6699,3.6699,3.6488,3.6161,3.6546,3.6488,3.6122,3.6122,3.5872,3.5565,3.5968,3.5872,3.5493,3.5493,3.5776,3.6257,3.7084,3.7373,3.7603,3.8892,3.9008,3.8661,3.8661,3.8354,3.7911,3.7488,3.768,3.7892,3.7488,3.77,3.8007,3.8007,3.8354,3.8546,3.8084,3.8354,3.8796,3.9219,3.9042,3.909,3.9967,3.9365,3.8877,3.9069,3.9144,3.9036,3.8719,3.8933,3.8999,3.8719,3.9074,3.9365,3.9498,4.0229,4.058,4.0348,4.1706,4.2286,4.1867,4.3338,4.4103,4.4085,4.4103,4.4103,4.4066,4.3681,4.3497,4.3497,4.3497,4.3718,4.4195,4.5369,4.614,4.6691,4.8746,5.0325,5.1499,5.2307,5.2858,5.3206,5.3206,5.3977,5.5078,4.0087,4.0999,4.1679,4.1665,4.2606,4.298,4.1872,4.1933,4.1894,4.1289,4.1191,4.1191,4.1191,4.1191,4.1191,4.1191,4.0391,3.9531,3.8652,3.7773,3.6914,3.6035,3.5996,3.5684,3.498,3.498,3.5684,3.7148,3.5817,3.6537,3.9148,3.7973,3.7296,3.7007,3.6988,3.6796,3.6488,3.6642,3.6699,3.6699,3.6507,3.618,3.5815,3.6276,3.6065,3.5512,3.5699,3.6065,3.6603,3.7642,3.8123,3.8546,4.0027,4.0065,3.9546,3.9546,3.9065,3.8488,3.8315,3.8392,3.8488,3.8315,3.8392,3.8527,3.8527,3.9065,3.9354,3.8661,3.9084,3.9546,3.9546,3.9191,3.9202,4.0043,3.977,3.9392,3.9321,3.9481,3.9408,3.896,3.9136,3.9197,3.8931,3.976,4.0246,3.9989,4.0666,4.1185,4.1368,4.1974,4.2304,4.2304,4.3699,4.4213,4.3754,4.4213,4.4213,4.3754,4.3571,4.3497,4.3497,4.3497,4.3938,4.4745,4.5553,4.6562,4.781,5.0105,5.1426,5.2068,5.2894,5.3206,5.3225,5.339,5.4252,5.5372,4.1859,4.2582,4.3199,4.3189,4.2682,4.2509,4.3261,4.2109,4.1152,4.1191,4.1191,4.1191,4.1191,4.1191,4.1191,4.1191,4.0391,3.9531,3.8652,3.7773,3.6914,3.6035,3.5996,3.5957,3.5879,3.5879,3.6348,3.7285,3.7063,3.7456,3.8412,3.8936,3.8753,3.7973,3.7911,3.7065,3.5757,3.643,3.6699,3.6642,3.5911,3.6007,3.6526,3.5872,3.5584,3.5603,3.6334,3.618,3.5872,3.7469,3.8527,3.9335,4.0219,4.045,4.0392,4.0392,4.0315,4.0104,3.9373,3.97,4.0085,3.9354,3.9719,4.0258,4.0258,4.0315,4.0354,4.0277,4.0315,4.0392,4.0392,3.9762,3.9515,4.0338,3.9581,3.9147,3.9888,3.9775,3.9576,3.9529,3.9816,3.988,3.9552,4.0911,4.1357,4.0328,4.0769,4.1423,4.2158,4.2268,4.2304,4.2304,4.3149,4.392,4.458,4.3938,4.3938,4.458,4.3846,4.3497,4.3497,4.3497,4.3938,4.4745,4.5553,4.7223,4.9481,5.1187,5.1922,5.2068,5.2894,5.3206,5.3298,5.4014,5.4381,5.473,4.1928,4.2772,4.3071,4.2027,4.3253,4.4034,4.2976,4.3084,4.3144,4.2754,4.1816,4.1191,4.1191,4.1191,4.1191,4.1191,4.0879,4.0312,3.9434,3.8555,3.7695,3.6816,3.6289,3.5996,3.5996,3.5996,3.6426,3.7305,3.7276,3.7901,3.9127,3.8421,3.7565,3.6656,3.66,3.6214,3.5622,3.5872,3.6257,3.6719,3.693,3.7199,3.745,3.7123,3.7007,3.6969,3.6776,3.718,3.7873,3.8546,3.8661,3.8661,3.9508,4.0104,4.0489,4.0489,4.0489,4.0431,4.0104,4.0258,4.0412,4.0085,4.0258,4.0489,4.0489,4.0489,4.0489,4.0489,4.0489,4.0489,4.0489,4.0239,4.0123,4.045,4.0117,3.9884,4.0063,4.012,4.0004,3.9645,3.9901,3.9982,3.9622,4.1084,4.1781,4.1129,4.1981,4.2268,4.1625,4.2506,4.28,4.2323,4.3075,4.3644,4.3975,4.3644,4.3644,4.3975,4.3644,4.3754,4.4213,4.4213,4.4929,4.6232,4.7535,4.8948,5.0398,5.1536,5.227,5.2747,5.3078,5.35,5.3959,5.4289,5.5005,5.5941,4.2656,4.3492,4.3724,4.2477,4.4049,4.5007,4.3577,4.3916,4.4262,4.4043,4.2793,4.1914,4.1933,4.1719,4.166,4.1914,4.1484,4.0937,4.0312,3.9473,3.8476,3.7344,3.6719,3.6269,3.6016,3.5996,3.6309,3.6914,3.7168,3.7741,3.8549,3.7594,3.6775,3.6108,3.6046,3.588,3.5699,3.5839,3.6392,3.7161,3.7757,3.8142,3.8354,3.8104,3.8007,3.795,3.7584,3.8084,3.895,3.92,3.8892,3.8527,3.9373,4.0027,4.0489,4.0489,4.0489,4.0489,4.0489,4.0489,4.0489,4.0489,4.0489,4.0489,4.0489,4.0489,4.0489,4.0489,4.0489,4.0489,4.0489,4.0489,4.0489,4.0489,4.0489,4.0422,4.0232,4.0372,4.0432,4.0266,4.0463,4.0502,4.0264,4.1446,4.2019,4.1541,4.269,4.2955,4.1846,4.275,4.3129,4.2816,4.3351,4.3646,4.3646,4.3548,4.3497,4.3497,4.3736,4.4158,4.4727,4.5204,4.6159,4.7572,4.9224,5.0398,5.1224,5.2013,5.2692,5.3225,5.3463,5.3904,5.4454,5.4932,5.5831,5.684,4.4607,4.5182,4.5757,4.5738,4.5064,4.4814,4.5719,4.4355,4.3603,4.4646,4.4082,4.3594,4.3652,4.2891,4.2734,4.3594,4.2168,4.1191,4.1172,4.0371,3.9101,3.7383,3.7285,3.6875,3.6016,3.5996,3.6016,3.6016,3.6875,3.6836,3.5957,3.6674,3.7027,3.7087,3.7017,3.659,3.593,3.6589,3.7353,3.808,3.8007,3.8527,3.9181,3.8334,3.8007,3.8104,3.895,3.8719,3.8142,3.9008,3.9277,3.9411,4.0219,4.0489,4.0489,4.0489,4.0489,4.0489,4.0489,4.0489,4.0489,4.0489,4.0489,4.0489,4.0489,4.0489,4.0489,4.0489,4.0489,4.0489,4.0489,4.0489,4.0489,4.0489,4.0489,4.0489,4.0489,4.0489,4.0816,4.1665,4.178,4.178,4.1761,4.2221,4.2158,4.1357,4.2555,4.3343,4.3474,4.3039,4.3159,4.396,4.3998,4.3998,4.3998,4.3679,4.3497,4.3497,4.4305,4.4709,4.4764,4.6361,4.7535,4.8379,5.0068,5.1242,5.205,5.2858,5.3206,5.3298,5.4087,5.4399,5.4583,5.618,5.6785,5.6914,4.4297,4.4586,4.4586,4.4047,4.468,4.518,4.4968,4.4958,4.5119,4.5498,4.5324,4.5206,4.5312,4.4101,4.3164,4.2832,4.2324,4.1797,4.123,4.0371,3.9648,3.9101,3.8496,3.7773,3.6914,3.6894,3.6601,3.5996,3.6875,3.7148,3.6855,3.7084,3.6905,3.6358,3.6277,3.6121,3.5953,3.6658,3.7417,3.8161,3.8715,3.9427,4.0027,3.92,3.9219,3.9662,3.9392,3.9469,3.9738,4.0008,4.0104,4.0162,4.0412,4.0489,4.0489,4.0489,4.0489,4.0489,4.0489,4.0489,4.0489,4.0489,4.0489,4.0489,4.0489,4.0489,4.0489,4.0489,4.0489,4.0489,4.0489,4.0489,4.0489,4.0489,4.0489,4.0489,4.0489,4.0489,4.0585,4.0873,4.145,4.1566,4.0969,4.2115,4.268,4.216,4.3064,4.3553,4.3362,4.3774,4.4137,4.4401,4.4419,4.4419,4.4419,4.4016,4.4128,4.4652,4.4683,4.5278,4.6397,4.8049,4.893,4.9279,5.0912,5.1756,5.205,5.2876,5.3206,5.3298,5.4087,5.473,5.5335,5.6418,5.7152,5.7648,4.4682,4.4816,4.4701,4.4201,4.497,4.5526,4.5064,4.5411,4.5757,4.5853,4.5882,4.5958,4.6079,4.5258,4.4453,4.3906,4.3262,4.2676,4.2168,4.1328,4.0566,3.9922,3.9375,3.8672,3.7812,3.7461,3.7187,3.6973,3.7519,3.7793,3.7793,3.7793,3.75,3.6953,3.6582,3.6426,3.6465,3.7201,3.7786,3.8307,3.9444,4.0158,4.0523,3.995,4.0046,4.0431,3.9931,4.0065,4.0489,4.0489,4.0489,4.0489,4.0489,4.0489,4.0489,4.0489,4.0489,4.0489,4.0489,4.0489,4.0489,4.0489,4.0489,4.0489,4.0489,4.0489,4.0489,4.0489,4.0489,4.0489,4.0489,4.0489,4.0489,4.0489,4.0489,4.0489,4.0489,4.0489,4.0623,4.095,4.1758,4.2066,4.1527,4.272,4.3305,4.2776,4.3503,4.3901,4.3691,4.4374,4.48,4.48,4.48,4.48,4.48,4.4401,4.4557,4.5196,4.5471,4.6471,4.8067,4.9114,4.9921,5.0545,5.1555,5.216,5.2491,5.3004,5.3206,5.3298,5.4087,5.4876,5.5684,5.651,5.7317,5.7997,4.5586,4.5699,4.5796,4.5796,4.5796,4.5796,4.5796,4.568,4.5624,4.5776,4.5853,4.5948,4.6078,4.6201,4.6287,4.6308,4.4766,4.373,4.3613,4.2851,4.168,4.0059,3.998,3.957,3.8711,3.7891,3.7851,3.8594,3.8594,3.8594,3.8594,3.8594,3.8594,3.8555,3.7754,3.7383,3.7441,3.8184,3.8496,3.8611,4.0119,4.0703,4.0696,4.0562,4.0508,4.0489,4.0489,4.0508,4.0508,4.0508,4.0508,4.0508,4.0508,4.0508,4.0508,4.0489,4.0489,4.0489,4.0489,4.0489,4.0489,4.0508,4.0508,4.0508,4.0508,4.0508,4.0508,4.0508,4.0508,4.0508,4.0508,4.0508,4.0508,4.0508,4.0508,4.0489,4.0489,4.0489,4.0816,4.17,4.2566,4.3104,4.3104,4.3835,4.3989,4.3239,4.3874,4.4335,4.4393,4.4862,4.5118,4.5118,4.5118,4.5118,4.5118,4.4857,4.4955,4.5426,4.6722,4.8181,4.9689,4.9781,5.0664,5.2059,5.2114,5.2532,5.3206,5.3206,5.3206,5.3298,5.4161,5.4932,5.5684,5.6565,5.7373,5.7997,4.5586,4.5624,4.5643,4.5643,4.5643,4.5643,4.5643,4.5605,4.5605,4.5624,4.5757,4.5854,4.5944,4.606,4.6192,4.6287,4.5312,4.4121,4.2793,4.2519,4.1953,4.0937,4.0898,4.0488,3.9609,3.9394,3.9062,3.8594,3.8594,3.8594,3.8594,3.8594,3.8594,3.8594,3.8379,3.8281,3.8359,3.9199,3.9492,3.9472,4.0508,4.0835,4.0696,4.0658,4.06,4.0489,4.0489,4.0581,4.0658,4.0658,4.0696,4.0735,4.0735,4.0735,4.0696,4.0562,4.0489,4.0489,4.0489,4.0489,4.0508,4.0639,4.0696,4.0735,4.0735,4.0735,4.0735,4.0735,4.0735,4.0735,4.0735,4.0696,4.0658,4.0658,4.0581,4.0489,4.0489,4.0489,4.0816,4.17,4.2566,4.3104,4.3104,4.3835,4.422,4.4028,4.4182,4.4586,4.5259,4.5398,4.5495,4.5495,4.5495,4.5495,4.5495,4.575,4.6455,4.7579,4.9164,5.0115,5.0547,5.1785,5.2404,5.2494,5.3088,5.3299,5.3206,5.3206,5.3206,5.3353,5.4748,5.5427,5.5757,5.7189,5.7831,5.7997,4.5586,4.5586,4.5586,4.5586,4.5586,4.5586,4.5586,4.5586,4.5586,4.5586,4.5719,4.5843,4.5891,4.6027,4.6151,4.6286,4.5879,4.5019,4.3672,4.3594,4.3223,4.2383,4.1953,4.1523,4.1055,4.0293,3.9668,3.9199,3.959,3.9785,3.9785,3.9785,3.9785,3.9766,3.9375,3.9199,3.9238,3.9707,3.9863,3.9863,4.0664,4.0929,4.0829,4.077,4.0696,4.0639,4.0639,4.0677,4.0746,4.0759,4.0769,4.0808,4.0808,4.0808,4.0788,4.066,4.0635,4.0639,4.0639,4.0639,4.0665,4.0732,4.0769,4.0808,4.0808,4.0808,4.0808,4.0808,4.0808,4.0808,4.0808,4.0769,4.0759,4.0746,4.0658,4.06,4.06,4.0927,4.1331,4.1758,4.3006,4.3775,4.3662,4.4451,4.4951,4.4893,4.4893,4.5086,4.5566,4.5586,4.5586,4.5586,4.5586,4.5586,4.5586,4.6428,4.7615,4.9136,5.026,5.1194,5.193,5.2817,5.3282,5.3496,5.3931,5.3996,5.3795,5.3795,5.3795,5.3888,5.4914,5.5554,5.6034,5.7291,5.7855,5.8042,4.5586,4.5586,4.5586,4.5586,4.5586,4.5586,4.5586,4.5586,4.5586,4.5586,4.5719,4.5812,4.588,4.6003,4.6141,4.6268,4.6289,4.5937,4.5058,4.5,4.4609,4.373,4.2988,4.2539,4.2402,4.0898,4.0098,4.0098,4.084,4.1191,4.1191,4.1328,4.1328,4.1172,4.0547,4.0215,4.0098,4.0098,4.0098,4.0156,4.0781,4.1016,4.0994,4.0869,4.0808,4.0805,4.0805,4.08,4.0819,4.0828,4.0832,4.0857,4.0867,4.0859,4.0859,4.0859,4.0865,4.0844,4.0805,4.0819,4.0829,4.0829,4.0859,4.0864,4.0864,4.0864,4.0864,4.0864,4.0864,4.0864,4.0864,4.0844,4.0871,4.1016,4.0839,4.0761,4.0904,4.154,4.2013,4.2044,4.3612,4.4672,4.455,4.531,4.5757,4.5624,4.5605,4.5586,4.5586,4.5586,4.5586,4.5586,4.5586,4.572,4.597,4.7178,4.8651,5.0374,5.0916,5.1954,5.3383,5.3526,5.394,5.4597,5.4597,5.4566,5.4503,5.4503,5.4503,5.4546,5.4947,5.551,5.6238,5.7116,5.7695,5.8054,4.5586,4.5586,4.5586,4.5586,4.5586,4.5586,4.5586,4.5586,4.5586,4.5586,4.5719,4.5794,4.5803,4.5982,4.6104,4.6133,4.623,4.5937,4.5058,4.5,4.4609,4.373,4.3574,4.3144,4.2422,4.1484,4.0996,4.0996,4.1133,4.1191,4.1211,4.1894,4.1855,4.1211,4.1777,4.1621,4.0996,4.0996,4.0996,4.1016,4.1113,4.1094,4.0996,4.0988,4.0905,4.0809,4.0809,4.0878,4.0962,4.0964,4.1049,4.1142,4.1143,4.1132,4.1132,4.1132,4.1146,4.1081,4.0867,4.0892,4.0962,4.0964,4.1062,4.1149,4.1149,4.1149,4.1149,4.1149,4.1149,4.1149,4.1149,4.1051,4.1205,4.196,4.131,4.0989,4.1778,4.194,4.229,4.3054,4.4078,4.4954,4.5589,4.5752,4.5796,4.5776,4.5643,4.5586,4.5586,4.5586,4.5586,4.5586,4.5586,4.6278,4.7702,4.8645,4.9951,5.1642,5.2444,5.3344,5.4322,5.4994,5.5197,5.5007,5.5007,5.4819,5.4503,5.4503,5.4503,5.4578,5.5291,5.5653,5.5879,5.6673,5.7446,5.8087,4.5586,4.5586,4.5586,4.5586,4.5586,4.5586,4.5586,4.5586,4.5586,4.5586,4.5643,4.5719,4.5796,4.588,4.5988,4.6093,4.6152,4.6055,4.5723,4.5703,4.5527,4.5117,4.4648,4.3769,4.2422,4.2031,4.1621,4.1191,4.1191,4.1191,4.1211,4.1582,4.1797,4.1836,4.1777,4.1797,4.1816,4.1387,4.1445,4.1855,4.1855,4.209,4.2441,4.2441,4.2417,4.235,4.235,4.21,4.1746,4.1746,4.1796,4.1855,4.1855,4.2174,4.2448,4.1979,4.155,4.1179,4.1039,4.1061,4.1123,4.1123,4.116,4.1191,4.1191,4.1191,4.1328,4.1758,4.1504,4.1328,4.1777,4.1445,4.123,4.1641,4.1231,4.1018,4.1441,4.2302,4.3007,4.3361,4.4686,4.5659,4.5879,4.5935,4.5908,4.5811,4.5738,4.568,4.5586,4.5586,4.5586,4.5586,4.6067,4.6874,4.8086,4.8952,5.024,5.1914,5.2779,5.3664,5.453,5.5318,5.5599,5.5423,5.5423,5.5306,5.516,5.516,5.516,5.521,5.5788,5.6023,5.6137,5.699,5.7629,5.8144,4.5586,4.5586,4.5586,4.5586,4.5586,4.5586,4.5586,4.5586,4.5586,4.5586,4.5586,4.5624,4.5738,4.5776,4.5872,4.6041,4.6088,4.6152,4.6289,4.6308,4.6308,4.6308,4.5469,4.4375,4.3027,4.2812,4.2402,4.1777,4.1777,4.1777,4.1797,4.1992,4.2305,4.2676,4.2266,4.2305,4.2656,4.2031,4.2148,4.2695,4.2695,4.3105,4.3691,4.3691,4.3691,4.3691,4.3691,4.3262,4.2695,4.2695,4.2695,4.2695,4.2695,4.3027,4.3301,4.2832,4.2266,4.1738,4.1523,4.1484,4.1523,4.1738,4.1777,4.1777,4.1777,4.1777,4.1953,4.2578,4.2051,4.168,4.2285,4.1738,4.1269,4.1445,4.1211,4.1153,4.1565,4.2767,4.3647,4.3753,4.528,4.6223,4.6001,4.6058,4.6041,4.5883,4.5834,4.5776,4.5643,4.5643,4.572,4.5893,4.674,4.7567,4.8394,4.9452,5.0741,5.2222,5.3087,5.3953,5.4799,5.5415,5.5703,5.5703,5.5703,5.5703,5.5703,5.5703,5.5703,5.572,5.6039,5.6167,5.6262,5.7141,5.7749,5.8223,4.5586,4.5586,4.5586,4.5586,4.5586,4.5586,4.5586,4.5586,4.5586,4.5586,4.5586,4.5586,4.5605,4.5738,4.5832,4.5899,4.6021,4.6152,4.6289,4.6308,4.6308,4.6308,4.5469,4.4941,4.4805,4.4023,4.3574,4.3516,4.3516,4.3516,4.3535,4.4336,4.4316,4.3633,4.4394,4.4297,4.3594,4.3535,4.3555,4.3594,4.3594,4.3633,4.3691,4.3691,4.3691,4.3691,4.3691,4.3652,4.3594,4.3594,4.3594,4.3594,4.3594,4.3086,4.2637,4.3398,4.3555,4.334,4.2539,4.2305,4.2519,4.3301,4.3516,4.3516,4.3516,4.3516,4.3535,4.3594,4.291,4.2324,4.2383,4.1738,4.1445,4.2187,4.1562,4.1582,4.3279,4.3559,4.3928,4.4778,4.5722,4.6289,4.6268,4.6172,4.6099,4.6075,4.5969,4.5853,4.5796,4.5796,4.6086,4.6778,4.7586,4.8432,4.9298,5.0914,5.2183,5.3106,5.3991,5.4818,5.5607,5.5665,5.5703,5.5703,5.5703,5.5703,5.5703,5.5703,5.5703,5.5703,5.5739,5.5758,5.5855,5.672,5.7562,5.8404,4.5586,4.5586,4.5586,4.5586,4.5586,4.5586,4.5586,4.5586,4.5586,4.5586,4.5586,4.5586,4.5586,4.5643,4.5719,4.5834,4.592,4.6019,4.6172,4.625,4.6308,4.6308,4.5976,4.5547,4.5019,4.4687,4.4238,4.3691,4.3691,4.3691,4.3711,4.4043,4.4316,4.4492,4.4297,4.4316,4.4473,4.3926,4.4004,4.4512,4.4512,4.4824,4.5312,4.5312,4.5312,4.5312,4.5312,4.4961,4.4512,4.4512,4.4512,4.4512,4.4512,4.4648,4.4785,4.457,4.4121,4.375,4.3965,4.3613,4.3281,4.3613,4.3691,4.3691,4.3691,4.3691,4.3848,4.4394,4.3808,4.3379,4.3906,4.332,4.2851,4.3164,4.291,4.291,4.3594,4.4133,4.4601,4.496,4.5762,4.6308,4.6308,4.625,4.6184,4.6099,4.6042,4.5969,4.58,4.5706,4.6278,4.7605,4.7952,4.8529,4.9394,5.0567,5.1568,5.2414,5.328,5.4145,5.4972,5.5472,5.5703,5.5703,5.5703,5.5703,5.5703,5.5703,5.5703,5.5703,5.5703,5.603,5.6549,5.6876,5.7857,5.9088,4.5586,4.5586,4.5586,4.5586,4.5586,4.5586,4.5586,4.5586,4.5586,4.5586,4.5586,4.5586,4.5586,4.5586,4.5643,4.5796,4.5852,4.5963,4.6093,4.623,4.6308,4.6308,4.6308,4.6016,4.543,4.541,4.5117,4.4512,4.4512,4.4512,4.4512,4.4512,4.4844,4.5371,4.4785,4.4844,4.5371,4.4766,4.4863,4.541,4.541,4.5762,4.6308,4.6308,4.6308,4.6308,4.6308,4.5918,4.541,4.541,4.541,4.541,4.541,4.582,4.6074,4.4922,4.4551,4.459,4.4902,4.4766,4.4512,4.4512,4.4512,4.4512,4.4512,4.4512,4.4687,4.5273,4.4707,4.4297,4.4883,4.4297,4.3691,4.3691,4.3691,4.3808,4.4062,4.4629,4.5098,4.5371,4.5937,4.6308,4.6308,4.6308,4.6269,4.6172,4.6153,4.6076,4.5899,4.5742,4.6431,4.8124,4.8125,4.8644,4.9798,5.0644,5.1491,5.2318,5.3203,5.4049,5.4895,5.5453,5.5703,5.5703,5.5703,5.5703,5.5703,5.5703,5.5703,5.5703,5.5703,5.6222,5.703,5.73,5.83,5.955,4.5586,4.5586,4.5586,4.5586,4.5586,4.5586,4.5586,4.5586,4.5586,4.5586,4.5586,4.5586,4.5586,4.5586,4.5643,4.5796,4.5853,4.5951,4.6093,4.623,4.6308,4.6308,4.6308,4.6308,4.6308,4.6308,4.6308,4.6308,4.6308,4.6308,4.6308,4.6308,4.6308,4.6308,4.6308,4.6308,4.6308,4.6308,4.6308,4.6308,4.6308,4.6308,4.6308,4.6308,4.6308,4.6308,4.6308,4.6308,4.6308,4.6308,4.6308,4.6308,4.6308,4.6308,4.5957,4.4238,4.4941,4.6113,4.5254,4.5644,4.6308,4.6308,4.6308,4.6308,4.6308,4.6308,4.6308,4.6308,4.5605,4.5019,4.5019,4.4297,4.3711,4.3711,4.3711,4.4023,4.4883,4.5019,4.5332,4.6191,4.6308,4.6308,4.6308,4.6308,4.6308,4.6308,4.6308,4.6231,4.6114,4.5911,4.6565,4.8257,4.8182,4.8933,5.0664,5.1491,5.2337,5.3222,5.4087,5.4914,5.5703,5.5703,5.5703,5.5703,5.5703,5.5703,5.5703,5.5703,5.5703,5.5703,5.5703,5.6222,5.7107,5.7973,5.8819,5.9627,4.5586,4.5586,4.5586,4.5586,4.5586,4.5586,4.5586,4.5586,4.5586,4.5586,4.5586,4.5586,4.5586,4.5586,4.5605,4.5643,4.5815,4.599,4.6229,4.6289,4.6308,4.6308,4.6308,4.6308,4.6308,4.6308,4.6308,4.6308,4.6308,4.6308,4.6308,4.6308,4.6308,4.6308,4.6308,4.6308,4.6308,4.6308,4.6308,4.6308,4.6308,4.6308,4.6308,4.6308,4.6308,4.6308,4.6308,4.6308,4.6308,4.6308,4.6308,4.6308,4.6308,4.6308,4.6191,4.5683,4.5898,4.623,4.5976,4.6094,4.6308,4.6308,4.6308,4.6308,4.6308,4.6308,4.6308,4.6308,4.6094,4.5918,4.5918,4.5703,4.5527,4.5527,4.5527,4.5625,4.5879,4.5918,4.6016,4.6269,4.6308,4.6308,4.6308,4.6308,4.6308,4.6308,4.6211,4.6147,4.6094,4.6532,4.7262,4.8275,4.8836,4.9663,5.0683,5.0933,5.1779,5.3203,5.3472,5.4337,5.5703,5.5703,5.5703,5.5703,5.5703,5.5703,5.5703,5.5703,5.5703,5.5703,5.5703,5.6222,5.7107,5.7973,5.8819,5.9627,4.5586,4.5874,4.6105,4.6105,4.6374,4.6471,4.6163,4.6105,4.599,4.5643,4.5586,4.5586,4.5586,4.5586,4.5586,4.5586,4.577,4.5998,4.6288,4.6308,4.6308,4.6308,4.6308,4.6308,4.6308,4.6308,4.6308,4.6308,4.6308,4.6308,4.6308,4.6308,4.6308,4.6308,4.6308,4.6308,4.6308,4.6308,4.6308,4.6308,4.6308,4.6308,4.6308,4.6308,4.6308,4.6308,4.6308,4.6308,4.6308,4.6308,4.6308,4.6308,4.6308,4.6308,4.6308,4.6308,4.6308,4.6308,4.6308,4.6308,4.6308,4.6308,4.6308,4.6308,4.6308,4.6308,4.6308,4.6308,4.6308,4.6308,4.6308,4.6308,4.6308,4.6308,4.6308,4.6308,4.6308,4.6308,4.6308,4.6308,4.6308,4.6308,4.6308,4.6308,4.6308,4.6308,4.6211,4.6172,4.6172,4.6557,4.7294,4.8416,4.8871,4.9625,5.076,5.0721,5.1529,5.3203,5.3203,5.4087,5.5703,5.5703,5.5703,5.5703,5.5703,5.5703,5.5703,5.5703,5.5703,5.5703,5.5703,5.6222,5.7049,5.7588,5.8511,5.9588,4.572,4.6413,4.699,4.6913,4.7567,4.7855,4.7124,4.6951,4.6644,4.5913,4.5759,4.574,4.5817,4.5817,4.5817,4.5817,4.6014,4.6203,4.6406,4.6426,4.6426,4.6426,4.6426,4.6426,4.6426,4.6348,4.6308,4.6308,4.6308,4.6308,4.6308,4.6308,4.6308,4.6308,4.6308,4.6308,4.6308,4.6308,4.6308,4.6308,4.6308,4.6308,4.6308,4.6308,4.6308,4.6308,4.6308,4.6308,4.6308,4.6308,4.6308,4.6308,4.6308,4.6308,4.6308,4.6308,4.6308,4.6308,4.6308,4.6308,4.6308,4.6308,4.6308,4.6308,4.6308,4.6308,4.6308,4.6308,4.6308,4.6308,4.6308,4.6308,4.6308,4.6308,4.6308,4.6308,4.6308,4.6308,4.6308,4.6308,4.6308,4.6308,4.6308,4.6308,4.6308,4.6308,4.6367,4.6426,4.6426,4.6445,4.7187,4.8769,4.865,4.9317,5.0914,5.0818,5.1568,5.3203,5.3203,5.4087,5.5703,5.5703,5.5703,5.5703,5.5703,5.5703,5.5703,5.5703,5.5703,5.5703,5.5703,5.6184,5.6876,5.6953,5.7973,5.93,4.674,4.7278,4.7644,4.7009,4.7567,4.8048,4.7875,4.7298,4.7067,4.7509,4.7009,4.6855,4.749,4.7567,4.7567,4.7567,4.7791,4.7768,4.7343,4.7324,4.7324,4.7324,4.7324,4.7324,4.7324,4.6641,4.6308,4.6308,4.6308,4.6308,4.6308,4.6308,4.6308,4.6308,4.6308,4.6308,4.6308,4.6308,4.6308,4.6308,4.6308,4.6308,4.6308,4.6308,4.6308,4.6308,4.6308,4.6308,4.6308,4.6308,4.6308,4.6308,4.6308,4.6308,4.6308,4.6308,4.6308,4.6308,4.6308,4.6308,4.6308,4.6308,4.6308,4.6308,4.6308,4.6308,4.6308,4.6308,4.6308,4.6308,4.6308,4.6308,4.6308,4.6308,4.6308,4.6308,4.6308,4.6308,4.6308,4.6308,4.6308,4.6308,4.6308,4.6308,4.6308,4.6308,4.6933,4.7324,4.7324,4.8594,4.9433,4.9707,5.0273,5.0721,5.1049,5.1029,5.1741,5.3203,5.3203,5.4087,5.5703,5.5703,5.5703,5.5703,5.5703,5.5703,5.5703,5.5703,5.5703,5.5703,5.5703,5.5818,5.6049,5.6742,5.7223,5.7723,4.7567,4.8144,4.8586,4.8163,4.8779,4.9202,4.8779,4.8355,4.8086,4.8105,4.774,4.7625,4.8048,4.8105,4.8144,4.8202,4.8393,4.8392,4.8144,4.8183,4.8223,4.8223,4.7812,4.7793,4.8203,4.6953,4.6308,4.6308,4.6308,4.6308,4.6308,4.6308,4.6308,4.6308,4.6308,4.6308,4.6308,4.6308,4.6308,4.6308,4.6308,4.6308,4.6308,4.6308,4.6308,4.6308,4.6308,4.6308,4.6308,4.6308,4.6308,4.6308,4.6308,4.6308,4.6308,4.6308,4.6308,4.6308,4.6308,4.6308,4.6308,4.6308,4.6308,4.6308,4.6308,4.6308,4.6308,4.6308,4.6308,4.6308,4.6308,4.6308,4.6308,4.6308,4.6308,4.6308,4.6308,4.6308,4.6308,4.6308,4.6308,4.6308,4.6308,4.668,4.6914,4.6914,4.7734,4.8223,4.8223,4.9082,4.9746,5.0078,5.044,5.0791,5.1126,5.1512,5.2244,5.3406,5.3379,5.428,5.5955,5.5838,5.5799,5.578,5.5722,5.5703,5.5703,5.5703,5.5703,5.5703,5.5703,5.5703,5.5761,5.6203,5.6626,5.7165,4.8355,4.9029,4.9586,4.9433,5.0106,5.0452,4.9721,4.949,4.9183,4.8625,4.8413,4.8375,4.8529,4.8548,4.8606,4.874,4.885,4.8904,4.8925,4.9023,4.9101,4.9121,4.8437,4.8379,4.9101,4.7715,4.6816,4.6523,4.6367,4.6308,4.6308,4.6308,4.6308,4.6308,4.6308,4.6308,4.6308,4.6308,4.6308,4.6308,4.6308,4.6308,4.6308,4.6308,4.6308,4.6308,4.6308,4.6308,4.6308,4.6308,4.6308,4.6308,4.6308,4.6308,4.6308,4.6308,4.6406,4.6484,4.6348,4.6523,4.668,4.6367,4.6406,4.6484,4.6328,4.6308,4.6308,4.6308,4.6308,4.6308,4.6308,4.6308,4.6308,4.6308,4.6308,4.6308,4.6308,4.6308,4.6308,4.6308,4.6308,4.6367,4.6504,4.7187,4.7656,4.7812,4.8633,4.9121,4.9121,4.9258,4.9668,5.0371,5.0293,5.0567,5.1238,5.1999,5.2816,5.3672,5.3836,5.4709,5.6174,5.602,5.5942,5.5876,5.578,5.5722,5.5703,5.5703,5.5703,5.5703,5.5703,5.5703,5.5703,5.5703,5.6242,5.7088,4.9375,4.9933,5.0279,4.9529,5.0106,5.0644,5.0529,4.9875,4.9625,5.026,4.9683,4.951,5.026,5.0337,5.0394,5.0529,5.0566,5.0364,4.9862,4.9844,4.9902,5.0019,4.9902,4.9902,5.0019,4.9785,4.8926,4.7422,4.668,4.6308,4.6308,4.6308,4.6308,4.6308,4.6308,4.6308,4.6308,4.6308,4.6308,4.6308,4.6308,4.6308,4.6308,4.6308,4.6308,4.6308,4.6308,4.6308,4.6308,4.6308,4.6308,4.6308,4.6308,4.6308,4.6308,4.6308,4.6836,4.7266,4.6504,4.7402,4.8183,4.668,4.6875,4.7226,4.6465,4.6308,4.6308,4.6308,4.6308,4.6308,4.6308,4.6308,4.6308,4.6308,4.6308,4.6308,4.6308,4.6308,4.6308,4.6308,4.6308,4.6601,4.7344,4.7539,4.791,4.8672,4.9531,5.0019,5.0019,5.0683,5.1113,5.123,5.1211,5.1268,5.1372,5.2212,5.3069,5.3955,5.4722,5.5466,5.6212,5.6173,5.6052,5.5895,5.5876,5.5799,5.5703,5.5703,5.5703,5.5703,5.5703,5.5703,5.5703,5.5703,5.6242,5.7011,5.0202,5.0433,5.0567,5.0183,5.0433,5.0702,5.0702,5.0356,5.026,5.0644,5.0356,5.026,5.0644,5.0702,5.0894,5.1414,5.1529,5.1657,5.1874,5.2034,5.1908,5.1386,5.1047,5.084,5.0762,4.9902,4.9336,4.9043,4.7695,4.6777,4.6308,4.6308,4.6308,4.6308,4.6308,4.6308,4.6308,4.6308,4.6308,4.6308,4.6308,4.6308,4.6348,4.6836,4.7031,4.7031,4.7031,4.6719,4.6308,4.6308,4.6308,4.6308,4.6308,4.6308,4.6406,4.6875,4.7305,4.7617,4.7715,4.8301,4.8711,4.7949,4.8047,4.8223,4.7832,4.7683,4.7386,4.6498,4.6699,4.6875,4.6387,4.6699,4.7031,4.7031,4.6621,4.6465,4.6953,4.6601,4.6484,4.6973,4.7031,4.7363,4.8242,4.8769,4.9219,4.9609,5.0391,5.0879,5.0879,5.1211,5.1406,5.1406,5.1875,5.1894,5.1406,5.2758,5.3615,5.4006,5.4884,5.5684,5.6421,5.6343,5.6251,5.6184,5.6094,5.5974,5.5799,5.5799,5.5761,5.5703,5.5703,5.5703,5.5703,5.5703,5.5934,5.6261]},{"header":{"parameterUnit":"m.s-1","parameterCategory":1,"la1":30.6,"la2":28.766,"lo1":-90.7593,"lo2":-88.6598,"dx":0.0162,"dy":0.0183,"nx":116,"ny":114,"refTime":"2023-01-19T06:00:00:Z","depth":0,"parameterNumber":3,"parameterNumberName":"V-component_of_WINDS"},"data":[0.0,0.0,0.0,0.0,0.0,0.0,0.0,0.0,0.0,0.0,0.0,0.0,0.0,0.0,0.0,0.0,0.0,0.0,0.0,0.0,0.0,0.0,0.0,0.0,0.0,0.0,0.0,0.0,0.0,0.0,0.0,0.0,0.0,0.0,0.0,0.0,0.0,0.0,0.0,0.0,0.0,0.0,0.0,0.0,0.0,0.0,0.0,0.0,0.0,0.0,0.0,0.0,0.0,0.0,0.0,0.0,0.0,0.0,0.0,0.0,0.0,0.0,0.0,0.0,0.0,0.0,0.0,0.0,0.0,0.0,0.0,0.0,0.0,0.0,0.0,0.0,0.0,0.0,0.0,0.0,0.0,0.0,0.0,0.0,0.0,0.0,0.0,0.0,0.0,0.0,0.0,0.0,0.0,0.0,0.0,0.0,0.0,0.0,0.0,0.0,0.0,0.0,0.0,0.0,0.0,0.0,0.0,0.0,0.0,0.0,0.0,0.0,0.0,0.0,0.0,0.0,0.0,0.0,0.0,0.0,0.0,0.0,0.0,0.0,0.0,0.0,0.0,0.0,0.0,0.0,0.0,0.0,0.0,0.0,0.0,0.0,0.0,0.0,0.0,0.0,0.0,0.0,0.0,0.0,0.0,0.0,0.0,0.0,0.0,0.0,0.0,0.0,0.0,0.0,0.0,0.0,0.0,0.0,0.0,0.0,0.0,0.0,0.0,0.0,0.0,0.0,0.0,0.0,0.0,0.0,0.0,0.0,0.0,0.0,0.0,0.0,0.0,0.0,0.0,0.0,0.0,0.0,0.0,0.0,0.0,0.0,0.0,0.0,0.0,0.0,0.0,0.0,0.0,0.0,0.0,0.0,0.0,0.0,0.0,0.0,0.0,0.0,0.0,0.0,0.0,0.0,0.0,0.0,0.0,0.0,0.0,0.0,0.0,0.0,0.0,0.0,0.0,0.0,0.0,0.0,0.0,0.0,0.0,0.0,0.0,0.0,0.0,0.0,0.0,0.0,0.0,0.0,0.0,0.0,0.0,0.0,0.0,0.0,0.0,0.0,0.0,0.0,0.0,0.0,0.0,0.0,0.0,0.0,0.0,0.0,0.0,0.0,0.0,0.0,0.0,0.0,0.0,0.0,0.0,0.0,0.0,0.0,0.0,0.0,0.0,0.0,0.0,0.0,0.0,0.0,0.0,0.0,0.0,0.0,0.0,0.0,0.0,0.0,0.0,0.0,0.0,0.0,0.0,0.0,0.0,0.0,0.0,0.0,0.0,0.0,0.0,0.0,0.0,0.0,0.0,0.0,0.0,0.0,0.0,0.0,0.0,0.0,0.0,0.0,0.0,0.0,0.0,0.0,0.0,0.0,0.0,0.0,0.0,0.0,0.0,0.0,0.0,0.0,0.0,0.0,0.0,0.0,0.0,0.0,0.0,0.0,0.0,0.0,0.0,0.0,0.0,0.0,0.0,0.0,0.0,0.0,0.0,0.0,0.0,0.0,0.0,0.0,0.0,0.0,0.0,0.0,0.0,0.0,0.0,0.0,0.0,0.0,0.0,0.0,0.0,0.0,0.0,0.0,0.0,0.0,0.0,0.0,0.0,0.0,0.0,0.0,0.0,0.0,0.0,0.0,0.0,0.0,0.0,0.0,0.0,0.0,0.0,0.0,0.0,0.0,0.0,0.0,0.0,0.0,0.0,0.0,0.0,0.0,0.0,0.0,0.0,0.0,0.0,0.0,0.0,0.0,0.0,0.0,0.0,0.0,0.0,0.0,0.0,0.0,0.0,0.0,0.0,0.0,0.0,0.0,0.0,0.0,0.0,0.0,0.0,0.0,0.0,0.0,0.0,0.0,0.0,0.0,0.0,0.0,0.0,0.0,0.0,0.0,0.0,0.0,0.0,0.0,0.0,0.0,0.0,0.0,0.0,0.0,0.0,0.0,0.0,0.0,0.0,0.0,0.0,0.0,0.0,0.0,0.0,0.0,0.0,0.0,0.0,0.0,0.0,0.0,0.0,0.0,0.0,0.0,0.0,0.0,0.0,0.0,0.0,0.0,0.0,0.0,0.0,0.0,0.0,0.0,0.0,0.0,0.0,0.0,0.0,0.0,0.0,0.0,0.0,0.0,0.0,0.0,0.0,0.0,0.0,0.0,0.0,0.0,0.0,0.0,0.0,0.0,0.0,0.0,0.0,0.0,0.0,0.0,0.0,0.0,0.0,0.0,0.0,0.0,0.0,0.0,0.0,0.0,0.0,0.0,0.0,0.0,0.0,0.0,0.0,0.0,0.0,0.0,0.0,0.0,0.0,0.0,0.0,0.0,0.0,0.0,0.0,0.0,0.0,0.0,0.0,0.0,0.0,0.0,0.0,0.0,0.0,0.0,0.0,0.0,0.0,0.0,0.0,0.0,0.0,0.0,0.0,0.0,0.0,0.0,0.0,0.0,0.0,0.0,0.0,0.0,0.0,0.0,0.0,0.0,0.0,0.0,0.0,0.0,0.0,0.0,0.0,0.0,0.0,0.0,0.0,0.0,0.0,0.0,0.0,0.0,0.0,0.0,0.0,0.0,0.0,0.0,0.0,0.0,0.0,0.0,0.0,0.0,0.0,0.0,0.0,0.0,0.0,0.0,0.0,0.0,0.0,0.0,0.0,0.0,0.0,0.0,0.0,0.0,0.0,0.0,0.0,0.0,0.0,0.0,0.0,0.0,0.0,0.0,0.0,0.0,0.0,0.0,0.0,0.0,0.0,0.0,0.0,0.0,0.0,0.0,0.0,0.0,0.0,0.0,0.0,0.0,0.0,0.0,0.0,0.0,0.0,0.0,0.0,0.0,0.0,0.0,0.0,0.0,0.0,0.0,0.0,0.0,0.0,0.0,0.0,0.0,0.0,0.0,0.0,0.0,0.0,0.0,0.0,0.0,0.0,0.0,0.0,0.0,0.0,0.0,0.0,0.0,0.0,0.0,0.0,0.0,0.0,0.0,0.0,0.0,0.0,0.0,0.0,0.0,0.0,0.0,0.0,0.0,0.0,0.0,0.0,0.0,0.0,0.0,0.0,0.0,0.0,0.0,0.0,0.0,0.0,0.0,0.0,0.0,0.0,0.0,0.0,0.0,0.0,0.0,0.0,0.0,0.0,0.0,0.0,0.0,0.0,0.0,0.0,0.0,0.0,0.0,0.0,0.0,0.0,0.0,0.0,0.0,0.0,0.0,0.0,0.0,0.0,0.0,0.0,0.0,0.0,0.0,0.0,0.0,0.0,0.0,0.0,0.0,0.0,0.0,0.0,0.0,0.0,0.0,0.0,0.0,0.0,0.0,0.0,0.0,0.0,0.0,0.0,0.0,0.0,0.0,0.0,0.0,0.0,0.0,0.0,0.0,0.0,0.0,0.0,0.0,0.0,0.0,0.0,0.0,0.0,0.0,0.0,0.0,0.0,0.0,0.0,0.0,0.0,0.0,0.0,0.0,0.0,0.0,0.0,0.0,0.0,0.0,0.0,0.0,0.0,0.0,0.0,0.0,0.0,0.0,0.0,0.0,0.0,0.0,0.0,0.0,0.0,0.0,0.0,0.0,0.0,0.0,0.0,0.0,0.0,0.0,0.0,0.0,0.0,0.0,0.0,0.0,0.0,0.0,0.0,0.0,0.0,0.0,0.0,0.0,0.0,0.0,0.0,0.0,0.0,0.0,0.0,0.0,0.0,0.0,0.0,0.0,0.0,0.0,0.0,0.0,0.0,0.0,0.0,0.0,0.0,0.0,0.0,0.0,0.0,0.0,0.0,0.0,0.0,0.0,0.0,0.0,0.0,0.0,0.0,0.0,0.0,0.0,0.0,0.0,0.0,0.0,0.0,0.0,0.0,0.0,0.0,0.0,0.0,0.0,0.0,0.0,0.0,0.0,0.0,0.0,0.0,0.0,0.0,0.0,0.0,0.0,0.0,0.0,0.0,0.0,0.0,0.0,0.0,0.0,0.0,0.0,0.0,0.0,0.0,0.0,0.0,0.0,0.0,0.0,0.0,0.0,0.0,0.0,0.0,0.0,0.0,0.0,0.0,0.0,0.0,0.0,0.0,0.0,0.0,0.0,0.0,0.0,0.0,0.0,0.0,0.0,0.0,0.0,0.0,0.0,0.0,0.0,0.0,0.0,0.0,0.0,0.0,0.0,0.0,0.0,0.0,0.0,0.0,0.0,0.0,0.0,0.0,0.0,0.0,0.0,0.0,0.0,0.0,0.0,0.0,0.0,0.0,0.0,0.0,0.0,0.0,0.0,0.0,0.0,0.0,0.0,0.0,0.0,0.0,0.0,0.0,0.0,0.0,0.0,0.0,0.0,0.0,0.0,0.0,0.0,0.0,0.0,0.0,0.0,0.0,0.0,0.0,0.0,0.0,0.0,0.0,0.0,0.0,0.0,0.0,0.0,0.0,0.0,0.0,0.0,0.0,0.0,0.0,0.0,0.0,0.0,0.0,0.0,0.0,0.0,0.0,0.0,0.0,0.0,0.0,0.0,0.0,0.0,0.0,0.0,0.0,0.0,0.0,0.0,0.0,0.0,0.0,0.0,0.0,0.0,0.0,0.0,0.0,0.0,0.0,0.0,0.0,0.0,0.0,0.0,0.0,0.0,0.0,0.0,0.0,0.0,0.0,0.0,0.0,0.0,0.0,0.0,0.0,0.0,0.0,0.0,0.0,0.0,0.0,0.0,0.0,0.0,0.0,0.0,0.0,0.0,0.0,0.0,0.0,0.0,0.0,0.0,0.0,0.0,0.0,0.0,0.0,0.0,0.0,0.0,0.0,0.0,0.0,0.0,0.0,0.0,0.0,0.0,0.0,0.0,0.0,0.0,0.0,0.0,0.0,0.0,0.0,0.0,0.0,0.0,0.0,0.0,0.0,0.0,0.0,0.0,0.0,0.0,0.0,0.0,0.0,0.0,0.0,0.0,0.0,0.0,0.0,0.0,0.0,0.0,0.0,0.0,0.0,0.0,0.0,0.0,0.0,0.0,0.0,0.0,0.0,0.0,0.0,0.0,0.0,0.0,0.0,0.0,0.0,0.0,0.0,0.0,0.0,0.0,0.0,0.0,0.0,0.0,0.0,0.0,0.0,0.0,0.0,0.0,0.0,0.0,0.0,0.0,0.0,0.0,0.0,0.0,0.0,0.0,0.0,0.0,0.0,0.0,0.0,0.0,0.0,0.0,0.0,0.0,0.0,0.0,0.0,0.0,0.0,0.0,0.0,0.0,0.0,0.0,0.0,0.0,0.0,0.0,0.0,0.0,0.0,0.0,0.0,0.0,0.0,0.0,0.0,0.0,0.0,0.0,0.0,0.0,0.0,0.0,0.0,0.0,0.0,0.0,0.0,0.0,0.0,0.0,0.0,0.0,0.0,0.0,0.0,0.0,0.0,0.0,0.0,0.0,0.0,0.0,0.0,0.0,0.0,0.0,0.0,0.0,0.0,0.0,0.0,0.0,0.0,0.0,0.0,0.0,0.0,0.0,0.0,0.0,0.0,0.0,0.0,0.0,0.0,0.0,0.0,0.0,0.0,0.0,0.0,0.0,0.0,0.0,0.0,0.0,0.0,0.0,0.0,0.0,0.0,0.0,0.0,0.0,0.0,0.0,0.0,0.0,0.0,0.0,0.0,0.0,0.0,0.0,0.0,0.0,0.0,0.0,0.0,0.0,0.0,0.0,0.0,0.0,0.0,0.0,0.0,0.0,0.0,0.0,0.0,0.0,0.0,0.0,0.0,0.0,0.0,0.0,0.0,0.0,0.0,0.0,0.0,0.0,0.0,0.0,0.0,0.0,0.0,0.0,0.0,0.0,0.0,0.0,0.0,0.0,0.0,0.0,0.0,0.0,0.0,0.0,0.0,0.0,0.0,0.0,0.0,0.0,0.0,0.0,0.0,0.0,0.0,0.0,0.0,0.0,0.0,0.0,0.0,0.0,0.0,0.0,0.0,0.0,0.0,0.0,0.0,0.0,0.0,0.0,0.0,0.0,0.0,0.0,0.0,0.0,0.0,0.0,0.0,0.0,0.0,0.0,0.0,0.0,0.0,0.0,0.0,0.0,0.0,0.0,0.0,0.0,-1.8003,-1.848,0.0,0.0,0.0,0.0,0.0,0.0,0.0,0.0,0.0,0.0,0.0,0.0,0.0,0.0,0.0,0.0,0.0,0.0,0.0,0.0,0.0,0.0,0.0,0.0,0.0,0.0,0.0,0.0,0.0,0.0,0.0,0.0,0.0,0.0,0.0,0.0,0.0,0.0,0.0,0.0,0.0,0.0,0.0,0.0,0.0,0.0,0.0,0.0,0.0,0.0,0.0,0.0,0.0,0.0,0.0,0.0,0.0,0.0,0.0,0.0,0.0,0.0,0.0,0.0,0.0,0.0,0.0,0.0,0.0,0.0,0.0,0.0,0.0,0.0,0.0,0.0,0.0,0.0,0.0,0.0,0.0,0.0,0.0,0.0,0.0,0.0,0.0,0.0,0.0,0.0,0.0,0.0,0.0,0.0,0.0,0.0,0.0,0.0,0.0,0.0,0.0,0.0,0.0,0.0,0.0,0.0,0.0,0.0,0.0,0.0,0.0,0.0,0.0,0.0,-1.784,-1.8053,0.0,0.0,0.0,0.0,0.0,0.0,0.0,0.0,0.0,0.0,0.0,0.0,0.0,0.0,0.0,0.0,0.0,0.0,0.0,0.0,0.0,0.0,0.0,0.0,0.0,0.0,0.0,0.0,0.0,0.0,0.0,0.0,0.0,0.0,0.0,0.0,0.0,0.0,0.0,0.0,0.0,0.0,0.0,0.0,0.0,0.0,0.0,0.0,0.0,0.0,0.0,0.0,0.0,0.0,0.0,0.0,0.0,0.0,0.0,0.0,0.0,0.0,0.0,0.0,0.0,0.0,0.0,0.0,0.0,0.0,0.0,0.0,0.0,0.0,0.0,0.0,0.0,0.0,0.0,0.0,0.0,0.0,0.0,0.0,0.0,0.0,0.0,0.0,0.0,0.0,0.0,0.0,0.0,0.0,0.0,0.0,0.0,0.0,0.0,0.0,0.0,0.0,0.0,0.0,0.0,0.0,0.0,0.0,-1.8154,-1.8154,-1.8066,-1.8166,-1.7903,-1.74,-1.7865,-1.7802,-1.7451,-1.8367,0.0,0.0,0.0,0.0,0.0,0.0,0.0,0.0,0.0,0.0,0.0,0.0,0.0,0.0,0.0,0.0,0.0,0.0,0.0,0.0,0.0,0.0,0.0,0.0,0.0,0.0,0.0,0.0,0.0,0.0,0.0,0.0,0.0,0.0,0.0,0.0,0.0,0.0,-1.4748,-1.5196,-1.5435,-1.5392,0.0,0.0,0.0,0.0,0.0,0.0,0.0,0.0,0.0,0.0,0.0,0.0,0.0,0.0,0.0,0.0,0.0,0.0,0.0,0.0,0.0,0.0,0.0,0.0,0.0,0.0,0.0,0.0,0.0,0.0,0.0,0.0,0.0,0.0,0.0,0.0,0.0,0.0,0.0,0.0,0.0,0.0,0.0,0.0,-1.7386,-1.7276,0.0,0.0,0.0,0.0,0.0,0.0,0.0,0.0,0.0,0.0,0.0,0.0,0.0,-1.8157,-1.8097,-1.8157,-1.7965,-1.7501,-1.7978,-1.7953,-1.7501,-1.799,-1.7903,-1.7388,-1.7451,0.0,-1.7388,-1.7539,0.0,0.0,0.0,0.0,0.0,0.0,0.0,0.0,0.0,0.0,0.0,0.0,0.0,0.0,0.0,0.0,0.0,0.0,0.0,0.0,0.0,0.0,0.0,0.0,0.0,0.0,0.0,0.0,0.0,0.0,0.0,0.0,0.0,0.0,0.0,0.0,-1.5532,-1.5757,-1.5141,-1.5952,-1.6517,-1.6855,-1.5756,-1.5247,-1.5271,-1.4199,0.0,0.0,0.0,0.0,0.0,0.0,0.0,0.0,0.0,0.0,0.0,0.0,0.0,0.0,0.0,0.0,0.0,0.0,0.0,0.0,0.0,0.0,0.0,0.0,0.0,0.0,0.0,0.0,0.0,0.0,0.0,0.0,0.0,0.0,0.0,0.0,0.0,0.0,0.0,-1.8015,-1.7346,-1.662,-1.7392,-1.7803,0.0,0.0,0.0,0.0,0.0,0.0,0.0,0.0,0.0,-1.7237,-1.7529,-1.7588,-1.7166,-1.7576,-1.7777,-1.7852,-1.8091,-1.8078,-1.7852,-1.8091,-1.8078,-1.784,-1.784,-1.784,-1.7815,-1.7513,-1.7664,-1.8176,0.0,0.0,0.0,0.0,-1.9867,-1.9786,0.0,0.0,0.0,0.0,0.0,0.0,0.0,0.0,0.0,0.0,0.0,0.0,0.0,0.0,0.0,-1.4764,0.0,0.0,0.0,0.0,0.0,0.0,0.0,0.0,0.0,0.0,0.0,0.0,-1.6171,-1.6668,-1.6021,-1.7132,-1.8071,-1.8601,-1.7743,-1.6679,-1.5316,-1.3995,-1.3239,0.0,0.0,0.0,0.0,0.0,0.0,0.0,0.0,0.0,0.0,0.0,0.0,0.0,0.0,0.0,0.0,0.0,0.0,0.0,0.0,0.0,0.0,0.0,0.0,0.0,0.0,0.0,0.0,0.0,0.0,0.0,0.0,0.0,0.0,0.0,0.0,0.0,0.0,-1.7867,-1.712,-1.6115,-1.6746,-1.6974,0.0,0.0,0.0,0.0,0.0,0.0,-1.7954,-1.8234,-1.7952,-1.688,-1.7334,-1.738,-1.6868,-1.7471,-1.794,-1.8204,-1.848,-1.8543,-1.8417,-1.8555,-1.8543,-1.8417,-1.8417,-1.8342,-1.8179,-1.7765,-1.7677,-1.784,-1.8254,-1.8754,-1.9277,-1.9146,-1.9081,-1.8989,0.0,0.0,0.0,0.0,0.0,0.0,0.0,0.0,0.0,0.0,0.0,0.0,0.0,0.0,-1.4649,-1.4892,-1.4934,-1.4593,0.0,0.0,0.0,0.0,0.0,0.0,0.0,0.0,0.0,-1.5886,-1.5875,-1.6496,-1.7672,-1.9138,-1.991,-2.0087,-2.006,-1.834,-1.5449,-1.4225,-1.3706,-1.3712,0.0,0.0,0.0,0.0,0.0,0.0,0.0,0.0,0.0,0.0,0.0,0.0,0.0,0.0,0.0,0.0,0.0,0.0,0.0,0.0,0.0,0.0,0.0,0.0,0.0,0.0,0.0,0.0,0.0,0.0,0.0,0.0,0.0,0.0,0.0,0.0,0.0,0.0,0.0,-1.6204,-1.5845,0.0,0.0,0.0,0.0,-1.6496,-1.7455,-1.7855,-1.7351,-1.8388,-1.8682,-1.8131,-1.8166,-1.8166,-1.8106,-1.8632,-1.8694,-1.8216,-1.9233,-1.9459,-1.8958,-1.9497,-1.9447,-1.8933,-1.8933,-1.8694,-1.8204,-1.8179,-1.8468,-1.8895,-1.8933,-1.9284,-1.9699,-1.9208,-1.9032,-1.8881,0.0,0.0,0.0,0.0,0.0,0.0,0.0,0.0,0.0,0.0,0.0,0.0,0.0,-1.5354,-1.5016,-1.5174,-1.4842,-1.4186,-1.3085,0.0,0.0,0.0,0.0,0.0,0.0,0.0,-1.4925,-1.5276,-1.6651,-1.7793,-1.8675,-2.0166,-2.1236,-2.2054,-2.2054,-2.0946,-1.8843,-1.6874,-1.5311,-1.4271,-1.4402,-1.4823,0.0,0.0,0.0,0.0,0.0,0.0,0.0,0.0,0.0,0.0,0.0,0.0,0.0,0.0,0.0,0.0,0.0,0.0,0.0,0.0,0.0,0.0,0.0,0.0,0.0,0.0,0.0,0.0,0.0,0.0,0.0,0.0,0.0,0.0,0.0,0.0,0.0,-1.6059,-1.7051,0.0,-1.6157,-1.6598,-1.7076,-1.7342,-1.7156,-1.7255,-1.7834,-1.8284,-1.8405,-1.8216,-1.8204,-1.838,-1.8731,-1.8883,-1.9284,-1.9786,-1.9798,-1.9899,-2.0087,-2.0275,-2.0263,-2.01,-2.0464,-2.0501,-2.0313,-2.0313,-1.9597,-1.8505,-1.8505,-1.8832,-1.9233,-1.8694,-1.8719,-1.892,0.0,0.0,0.0,0.0,0.0,0.0,0.0,0.0,0.0,0.0,0.0,-1.5189,-1.5804,-1.5382,-1.5177,-1.5402,-1.4822,-1.4001,-1.3106,0.0,0.0,0.0,0.0,0.0,0.0,-1.4728,-1.4843,-1.4908,-1.6481,-1.7903,-1.9239,-2.0274,-2.1302,-2.2492,-2.295,-2.2339,-2.0929,-1.9722,-1.7794,-1.5546,-1.5583,-1.5904,-1.6288,0.0,0.0,0.0,0.0,0.0,0.0,0.0,0.0,0.0,0.0,0.0,0.0,0.0,0.0,0.0,0.0,0.0,0.0,0.0,0.0,0.0,0.0,0.0,0.0,0.0,0.0,0.0,0.0,0.0,0.0,0.0,0.0,0.0,0.0,-1.7968,-1.7692,-1.7211,-1.8064,-1.8219,-1.7047,-1.6967,-1.7126,-1.7354,-1.7144,-1.7316,-1.8092,-1.8534,-1.8744,-1.8744,-1.8932,-1.9208,-1.9572,-1.9761,-2.0225,-2.0995,-2.0552,-2.0577,-2.0941,-2.0941,-2.0941,-2.0966,-2.133,-2.1493,-2.1493,-2.1493,-2.0627,-1.9309,-1.9309,-1.9535,-1.9811,-1.9447,-1.9547,-1.9748,0.0,0.0,0.0,0.0,0.0,0.0,0.0,0.0,0.0,0.0,-1.4558,-1.4348,-1.5491,-1.4989,-1.4903,-1.5765,-1.4756,-1.3955,-1.3661,-1.2735,0.0,0.0,0.0,0.0,-1.3564,-1.4815,-1.5291,-1.4977,-1.5362,-1.682,-1.9497,-1.9588,-2.0215,-2.1382,-2.258,-2.2403,-2.1391,-2.2599,-2.0922,-1.7466,-1.7494,-1.7834,-1.8313,0.0,0.0,0.0,0.0,0.0,0.0,0.0,0.0,0.0,0.0,0.0,0.0,0.0,0.0,0.0,0.0,0.0,0.0,0.0,0.0,0.0,0.0,0.0,0.0,0.0,0.0,0.0,0.0,0.0,0.0,0.0,0.0,0.0,-1.8046,-1.8609,-1.9129,-1.9514,-1.8749,-1.8123,-1.7929,-1.7035,-1.653,-1.6541,-1.7588,-1.8166,-1.819,-1.9253,-1.9849,-1.9849,-2.0401,-2.0743,-2.0743,-2.123,-2.1493,-2.1506,-2.1493,-2.1506,-2.1543,-2.1543,-2.1543,-2.1568,-2.1594,-2.1594,-2.1594,-2.1594,-2.1594,-2.1594,-2.1518,-2.1493,-2.1506,-2.1493,-2.1493,-2.133,0.0,0.0,0.0,0.0,0.0,0.0,0.0,0.0,0.0,0.0,-1.5212,-1.5375,-1.5936,-1.5611,-1.5651,-1.6112,-1.4689,-1.3967,-1.4522,0.0,0.0,0.0,0.0,0.0,-1.4479,-1.4529,-1.4729,-1.5277,-1.6487,-1.7864,-1.9497,-2.0395,-2.1025,-2.1382,-2.258,-2.2403,-2.14,-2.2914,-2.2997,-2.1864,-1.9785,-1.8755,-1.8385,0.0,0.0,0.0,0.0,0.0,0.0,0.0,0.0,0.0,0.0,0.0,0.0,0.0,0.0,0.0,0.0,0.0,0.0,0.0,0.0,0.0,0.0,0.0,0.0,0.0,0.0,0.0,0.0,0.0,0.0,0.0,-1.9039,-1.8906,-1.8193,-1.8609,-1.8934,-1.8904,-1.9872,-2.0349,-1.9743,-1.9558,-1.965,-2.0042,-2.0019,-2.0151,-2.0548,-2.0886,-2.1029,-2.1029,-2.1179,-2.1267,-2.1267,-2.1418,-2.1694,-2.2083,-2.1681,-2.1907,-2.2686,-2.2686,-2.2912,-2.3326,-2.3728,-2.3904,-2.3904,-2.3904,-2.3904,-2.374,-2.2121,-2.1732,-2.2033,-2.1631,-2.1493,-2.1443,0.0,0.0,0.0,0.0,0.0,0.0,0.0,0.0,0.0,0.0,-1.5299,-1.5551,-1.5372,-1.5648,-1.5805,-1.5732,-1.4563,-1.3988,-1.4452,0.0,0.0,0.0,0.0,-1.4229,-1.5434,-1.4919,-1.5212,-1.6401,-1.6764,-1.7584,-1.8772,-1.9497,-1.9845,-2.0079,-2.1843,-2.2025,-2.1164,-2.3189,-2.4053,-2.3945,-2.2246,-2.1239,-2.0527,-1.9089,-1.9158,-1.9853,-1.874,-1.875,-1.9203,-1.8728,0.0,0.0,0.0,0.0,0.0,0.0,0.0,0.0,0.0,0.0,0.0,0.0,0.0,0.0,0.0,0.0,0.0,0.0,0.0,0.0,0.0,0.0,0.0,0.0,-1.9654,-2.0107,-1.9871,-2.0153,-2.0365,-2.0473,-2.1485,-2.1998,-2.1565,-2.1232,-2.1142,-2.1468,-2.1192,-2.1154,-2.1468,-2.1493,-2.1594,-2.1832,-2.2058,-2.2297,-2.2535,-2.2774,-2.305,-2.3351,-2.3037,-2.3226,-2.3779,-2.3779,-2.4029,-2.4356,-2.4682,-2.482,-2.482,-2.482,-2.482,-2.4695,0.0,0.0,0.0,0.0,-2.2385,-2.2184,0.0,0.0,0.0,0.0,0.0,0.0,0.0,0.0,0.0,0.0,0.0,-1.5233,-1.4491,-1.5099,-1.5424,-1.5082,-1.4433,-1.4107,0.0,0.0,0.0,-1.3734,-1.4459,-1.5313,-1.6193,-1.568,-1.6137,-1.7557,-1.6529,-1.6644,-1.7796,-1.7984,-1.804,-1.8222,-2.067,-2.1233,-2.057,-2.3121,-2.4224,-2.4365,-2.4419,-2.4209,-2.3574,-2.1553,-2.124,-2.1758,-2.0771,-2.0059,-1.9551,-1.9355,0.0,0.0,0.0,0.0,0.0,0.0,0.0,0.0,0.0,0.0,0.0,0.0,0.0,0.0,0.0,0.0,0.0,0.0,0.0,0.0,0.0,0.0,0.0,0.0,-2.0313,-2.133,-2.2435,-2.2648,-2.2849,-2.3215,-2.3265,-2.3265,-2.3265,-2.2435,-2.1857,-2.1857,-2.1807,-2.1794,-2.1857,-2.1807,0.0,0.0,0.0,-2.3577,-2.4092,-2.4569,-2.482,-2.482,-2.482,-2.4858,-2.4908,-2.4971,-2.5046,-2.5096,-2.5096,-2.5134,-2.5184,-2.5121,-2.5096,-2.5084,-2.4895,-2.482,-2.4757,-2.4268,-2.3766,-2.3265,0.0,0.0,0.0,0.0,0.0,0.0,0.0,0.0,0.0,-1.5129,-1.5248,-1.4998,-1.4364,-1.4365,-1.4706,-1.5493,-1.4501,-1.4044,0.0,0.0,-1.4883,-1.4962,-1.4706,-1.4878,-1.5561,-1.5658,-1.598,-1.6566,-1.7323,-1.7927,-1.8372,-1.9421,-1.9356,-1.8461,-1.9999,-2.0031,-1.9056,-2.2057,-2.3459,-2.3929,-2.4679,-2.4482,-2.3672,-2.2559,-2.2031,-2.168,-2.0107,-2.0332,-2.1172,-1.9756,-2.0059,-2.0958,-2.0295,0.0,0.0,0.0,0.0,0.0,0.0,0.0,0.0,0.0,0.0,0.0,0.0,0.0,0.0,0.0,0.0,0.0,0.0,0.0,0.0,-2.2076,-2.2523,-2.305,-2.418,-2.4695,-2.4845,-2.4531,-2.4494,-2.4494,-2.4494,-2.4305,-2.418,-2.418,-2.3766,-2.3715,-2.4155,-2.3753,-2.3766,-2.4318,-2.4443,-2.4556,-2.4657,-2.477,-2.482,-2.482,-2.482,0.0,-2.546,-2.5937,-2.6389,-2.6804,-2.6804,-2.7055,-2.7431,-2.6992,-2.6804,-2.6678,-2.5347,-2.482,-2.4808,-2.4695,-2.4594,-2.4494,0.0,0.0,0.0,0.0,0.0,0.0,0.0,0.0,0.0,0.0,-1.5116,-1.5085,-1.4385,-1.4501,-1.4825,-1.5196,-1.4977,0.0,0.0,-1.5255,-1.5606,-1.5364,-1.519,-1.5722,-1.6975,-1.6477,-1.6626,-1.7351,-1.7351,-1.7436,-1.7584,-1.8255,-1.835,-1.7924,-1.936,-1.9729,-1.9411,-2.1783,-2.3379,-2.426,-2.4783,-2.5042,-2.4951,-2.3652,-2.3018,-2.2695,-2.1611,-2.1504,-2.1758,-2.0879,-2.0732,-2.0781,-2.0137,-1.9336,-1.8613,0.0,0.0,0.0,0.0,0.0,0.0,0.0,0.0,0.0,0.0,0.0,0.0,0.0,0.0,-1.9291,-1.9331,0.0,-2.2083,-2.2636,-2.3427,-2.4268,-2.5096,-2.5435,-2.5498,-2.5247,-2.5209,-2.5209,-2.5209,-2.4971,-2.4933,-2.5197,-2.4707,-2.4644,-2.5184,-2.4707,-2.4795,-2.5611,-2.536,-2.5611,-2.6452,-2.6189,-2.6189,-2.6465,-2.6465,-2.6603,-2.6854,-2.7155,-2.7431,-2.7695,-2.7695,-2.7846,-2.8084,-2.7808,-2.7695,-2.7607,-2.6791,-2.6126,-2.5598,-2.531,-2.5209,-2.5209,0.0,0.0,0.0,0.0,0.0,0.0,0.0,0.0,0.0,0.0,0.0,-1.5126,-1.438,-1.4668,-1.4888,0.0,0.0,0.0,0.0,-1.596,-1.6469,-1.5604,-1.5845,-1.6697,-1.8156,-1.7193,-1.722,-1.8265,-1.7344,-1.6907,-1.6967,-1.7027,-1.7181,-1.7526,-1.8786,-1.9557,-1.9927,-2.1454,-2.2888,-2.4123,-2.4578,-2.5321,-2.592,-2.4662,-2.4062,-2.3857,-2.3418,-2.2617,-2.1797,-2.2041,-2.126,-2.0137,-1.9971,-1.9736,-1.9316,-1.8203,-1.7881,0.0,0.0,0.0,0.0,0.0,0.0,0.0,0.0,-1.6699,-1.6959,-1.7955,-1.9024,-1.9829,-2.0209,-2.1893,-2.3263,-2.3138,-2.4155,-2.5234,-2.5975,-2.59,-2.5799,-2.5912,-2.5824,-2.5812,-2.5912,-2.5548,-2.5523,-2.605,-2.5598,-2.5523,-2.605,-2.5586,-2.5749,-2.6753,-2.6327,-2.6728,-2.8097,-2.7657,-2.767,-2.8109,-2.8109,-2.8109,-2.8109,-2.821,-2.826,-2.8273,-2.8386,-2.836,-2.8273,-2.8386,-2.836,-2.826,-2.826,-2.7657,-2.6716,-2.6251,-2.6088,-2.6088,0.0,0.0,0.0,0.0,0.0,0.0,0.0,0.0,0.0,0.0,0.0,0.0,0.0,0.0,0.0,0.0,0.0,0.0,0.0,-1.7151,-1.7331,-1.6229,-1.6453,-1.674,-1.69,-1.6807,-1.6935,-1.7299,-1.7459,-1.7629,-1.7903,-1.817,-1.831,-1.8343,-1.859,-1.8624,-1.8761,-2.0172,-2.1099,-2.1782,-2.3937,-2.4846,-2.503,-2.5369,-2.5029,-2.4287,-2.3867,-2.2676,-2.1475,-2.2617,-2.2148,-2.1211,-2.1924,-2.1357,-2.0322,-1.9785,0.0,-1.7334,-1.686,-1.595,-1.527,-1.5954,-1.603,-1.5953,0.0,-1.6644,-1.759,-1.8318,-1.9343,-2.0521,-2.1705,-2.2997,-2.4368,-2.5762,-2.5724,-2.605,-2.7607,-2.6979,-2.6553,-2.7042,-2.6666,-2.6553,-2.7042,-2.7042,-2.7231,-2.7783,-2.7318,-2.7243,-2.7795,-2.7306,-2.7293,-2.7896,-2.7858,-2.7908,-2.8109,-2.8047,-2.8047,-2.8109,-2.8109,-2.8109,-2.8122,-2.8612,-2.8837,-2.8863,-2.9377,-2.9315,-2.8875,-2.939,-2.9302,-2.8837,-2.8837,-2.8461,-2.7908,-2.7846,-2.7821,-2.7821,0.0,0.0,0.0,0.0,0.0,0.0,0.0,0.0,0.0,0.0,0.0,0.0,0.0,0.0,0.0,0.0,0.0,0.0,-1.5923,-1.7006,-1.7287,-1.6565,-1.6807,-1.7128,-1.7475,-1.7488,-1.7635,-1.7929,-1.805,-1.8176,-1.831,-1.843,-1.849,-1.8497,-1.8664,-1.8744,-1.8751,-1.9583,-2.0935,-2.2696,-2.2884,-2.4196,-2.5984,-2.5079,-2.4297,-2.3633,-2.3203,-2.2432,0.0,0.0,-2.1465,-2.1299,-2.166,-2.1045,-2.0098,-1.9678,-1.8691,0.0,-1.6779,-1.6141,-1.5874,-1.6144,-1.6263,-1.6437,-1.6648,-1.7707,-1.8801,-1.9197,-2.0647,-2.2199,-2.3503,-2.4691,-2.5762,-2.6779,-2.7005,-2.7306,-2.8009,-2.7431,-2.703,-2.7256,-2.6804,-2.6747,-2.7231,-2.7281,-2.7645,-2.8511,-2.8072,-2.7996,-2.8561,-2.8059,-2.8009,-2.8561,-2.8273,-2.8423,-2.9076,-2.875,-2.875,-2.9089,-2.9089,-2.9089,-2.9101,-2.9327,-2.9428,-2.9453,-2.9691,-2.9654,-2.9453,-2.9691,-2.9641,-2.9428,-2.9428,-2.9289,-2.9013,-2.8348,-2.8109,-2.8109,0.0,0.0,0.0,0.0,0.0,0.0,0.0,0.0,0.0,0.0,0.0,0.0,0.0,0.0,0.0,0.0,0.0,0.0,0.0,-1.6815,-1.7297,-1.6981,-1.7103,0.0,-1.7789,-1.7876,-1.8063,-1.837,-1.845,-1.8531,-1.8611,-1.8698,-1.8731,-1.8744,-1.8951,-1.9092,-1.9178,-1.9312,-2.0867,-2.3279,-2.2414,-2.367,-2.6018,-2.4427,-2.3476,-2.2939,-2.2627,-2.1855,0.0,0.0,-2.0547,-2.0586,-2.0937,-2.0527,-1.9834,-1.9414,-1.8594,-1.7662,-1.6989,-1.6646,-1.6619,-1.6919,-1.701,-1.7227,-1.7783,-1.8829,-1.9923,-2.0886,-2.212,-2.358,-2.5186,-2.6025,-2.6691,-2.7394,-2.772,-2.8047,-2.8499,-2.7833,-2.7344,-2.7494,-2.6892,-2.6741,-2.7444,-2.7507,-2.7908,-2.885,-2.8699,-2.875,-2.9151,-2.8787,-2.875,-2.9151,-2.8775,-2.8963,-2.9779,-2.9377,-2.9377,-2.9792,-2.9792,-2.9792,-2.9792,-2.9792,-2.9792,-2.9792,-2.9792,-2.9792,-2.9792,-2.9792,-2.9792,-2.9792,-2.9792,-2.9792,-2.9691,-2.8875,-2.8574,-2.8574,0.0,0.0,0.0,0.0,0.0,0.0,0.0,0.0,0.0,0.0,0.0,0.0,0.0,0.0,0.0,0.0,0.0,0.0,0.0,-1.7166,-1.7431,-1.7461,-1.7265,-1.7257,-1.7174,-1.7455,-1.7749,-1.8063,-1.835,-1.8637,-1.8918,-1.9205,-1.9339,-1.9339,-1.9352,-1.9512,-1.976,-1.9486,-2.0424,-2.2113,-2.2815,-2.3619,-2.4059,-2.3295,-2.2834,-2.2529,-2.2519,0.0,0.0,0.0,-1.9736,-1.8936,-2.0195,-2.0273,0.0,-1.9414,-1.8398,0.0,-1.7719,-1.7223,-1.6977,-1.8132,-1.8213,-1.8193,-1.9043,-1.9551,-2.0672,-2.3544,-2.3835,-2.4261,-2.6726,-2.6804,-2.6816,-2.7908,-2.7645,-2.7871,-2.9515,-2.8323,-2.7482,-2.8009,-2.7118,-2.6892,-2.7971,-2.8084,-2.831,-2.8888,-2.9428,-2.9754,-2.9767,-2.9754,-2.9754,-2.9767,-2.9754,-2.9767,-2.9792,-2.9779,-2.9779,-2.9792,-2.9792,-2.9792,-2.9792,-2.9792,-2.9792,-2.9792,-2.9792,-2.9792,-2.9792,-2.9792,-2.9792,-2.9792,-2.9792,-2.9792,-2.9792,-2.9754,-2.9741,-2.9741,0.0,0.0,0.0,0.0,0.0,0.0,0.0,0.0,0.0,0.0,0.0,0.0,0.0,0.0,0.0,0.0,0.0,0.0,0.0,-1.6805,-1.7374,-1.7431,-1.7574,-1.8112,-1.9201,-1.7939,-1.7948,-1.9299,-1.8571,-1.8769,-1.9921,-1.9172,-1.9766,-2.1399,-2.0847,-2.1114,-2.2112,-2.222,-2.3087,-2.4141,-2.2251,-2.3018,-2.4852,-2.1602,-2.0898,-2.1553,0.0,0.0,0.0,0.0,0.0,0.0,-1.915,0.0,0.0,-1.8154,-1.8095,-1.809,-1.7981,-1.8364,-1.8893,-1.9283,-1.9594,-1.9932,-2.081,-2.1419,-2.2056,-2.3043,-2.3604,-2.4355,-2.5539,-2.6148,-2.6816,-2.7921,-2.826,-2.8712,-2.9654,-2.8976,-2.831,-2.8134,-2.7457,-2.7155,-2.7519,-2.7896,-2.8499,-2.9428,-2.9679,-2.9792,-2.9792,-2.9792,-2.9792,-2.9792,-2.9792,-2.9792,-2.9792,-2.9792,-2.9792,-2.9792,-2.9792,-2.9792,-2.9792,-2.9792,-2.9792,-2.9792,-2.9792,-2.9792,-2.9792,-2.9792,-2.9792,-2.9792,-2.9792,-2.9792,-2.9792,-2.9792,-2.9792,-2.9792,0.0,0.0,0.0,0.0,0.0,0.0,0.0,0.0,0.0,0.0,0.0,0.0,0.0,0.0,0.0,0.0,0.0,0.0,0.0,0.0,-1.6914,-1.7421,-1.7494,-1.7979,-1.9144,-1.8007,-1.8054,-1.9275,-1.86,-1.8913,-2.0043,-1.9056,-1.9582,-2.1144,-2.032,-2.0753,-2.2053,-2.2148,-2.3053,-2.4248,-2.1973,-2.2368,-2.3905,-2.0281,-1.9531,0.0,0.0,0.0,0.0,0.0,0.0,0.0,0.0,0.0,0.0,-1.751,-1.8085,-1.8765,-1.8518,-1.9352,-2.0383,-2.0594,-2.0947,-2.1445,-2.2168,-2.2469,-2.2672,-2.2726,-2.3394,-2.3979,-2.4446,-2.5136,-2.5937,-2.703,-2.7507,-2.8084,-2.9051,-2.8863,-2.8574,-2.8411,-2.7908,-2.7657,-2.7846,-2.8185,-2.8699,-2.9428,-2.9679,-2.9792,-2.9792,-2.9792,-2.9792,-2.9792,-2.9792,-2.9792,-2.9792,-2.9792,-2.9792,-2.9792,-2.9792,-2.9792,-2.9792,-2.9792,-2.9792,-2.9792,-2.9792,-2.9792,-2.9792,-2.9792,-2.9792,-2.9792,-2.9792,-2.9792,-2.9792,-2.9792,-2.9792,-2.9792,0.0,0.0,0.0,0.0,0.0,0.0,0.0,0.0,0.0,0.0,0.0,0.0,0.0,0.0,0.0,0.0,0.0,0.0,0.0,0.0,0.0,-1.7382,-1.7004,-1.6918,-1.7471,-1.7648,-1.7906,-1.8249,-1.8584,-1.8928,-1.9287,-1.8897,-1.8814,-1.8944,-1.8149,-1.8548,-1.9956,-1.9761,-2.0736,-2.2513,-2.1768,-2.1697,-2.1627,-1.9353,0.0,0.0,0.0,0.0,0.0,0.0,0.0,-1.7393,-1.7402,-1.7686,-1.7939,-1.7607,-1.8369,-1.9336,-1.9404,-2.0342,-2.1406,-2.1846,-2.2246,-2.2646,-2.3018,-2.2744,-2.2502,-2.282,-2.3015,-2.3281,-2.3506,-2.386,-2.4381,-2.5423,-2.5674,-2.6302,-2.7959,-2.821,-2.8411,-2.8875,-2.8499,-2.8386,-2.8875,-2.8925,-2.8938,-2.8976,-2.9478,-2.9792,-2.9792,-2.9792,-2.9792,-2.9792,-2.9792,-2.9792,-2.9792,-2.9792,-2.9792,-2.9792,-2.9792,-2.9792,-2.9792,-2.9792,-2.9792,-2.9792,-2.9792,-2.9792,-2.9792,-2.9792,-2.9792,-2.9792,-2.9792,-2.9792,-2.9792,-2.9792,-2.9792,-2.9792,0.0,0.0,0.0,0.0,0.0,0.0,0.0,0.0,0.0,0.0,0.0,0.0,0.0,0.0,0.0,0.0,0.0,0.0,0.0,0.0,0.0,0.0,0.0,0.0,0.0,0.0,0.0,0.0,0.0,-1.7968,-1.9204,-1.8105,-1.8861,-2.1107,-2.0116,-2.052,-2.1835,-2.2026,-2.2342,-2.2385,0.0,-2.0838,-2.1089,0.0,0.0,0.0,0.0,0.0,0.0,0.0,-1.7383,-1.7441,-1.7754,-1.793,-1.8174,-1.9023,-1.9502,-1.9971,-2.0957,-2.1699,-2.2295,-2.2715,-2.29,-2.292,-2.2715,-2.1836,-2.1303,-2.1973,-2.1674,-2.145,-2.2103,-2.3536,-2.4833,-2.5485,-2.6653,-2.7908,-2.9189,-2.9716,-2.9716,-2.9013,-2.9189,-2.9252,-2.895,-2.8925,-2.9114,-2.9541,-2.9704,-2.9792,-2.9792,-2.9792,-2.9792,-2.9792,-2.9792,-2.9792,-2.9792,-2.9792,-2.9792,-2.9792,-2.9792,-2.9792,-2.9792,-2.9792,-2.9792,-2.9792,-2.9792,-2.9792,-2.9792,-2.9792,-2.9792,-2.9792,-2.9792,-2.9792,-2.9792,-2.9792,-2.9792,-2.9792,0.0,0.0,0.0,0.0,0.0,0.0,0.0,0.0,0.0,0.0,0.0,0.0,0.0,0.0,0.0,0.0,0.0,0.0,0.0,0.0,0.0,0.0,0.0,0.0,0.0,0.0,0.0,0.0,0.0,0.0,0.0,-1.7823,-1.8339,-1.9624,-1.9169,-1.9596,-2.0818,0.0,0.0,0.0,0.0,0.0,0.0,0.0,0.0,0.0,0.0,0.0,0.0,-1.7031,-1.7353,-1.7764,-1.8379,-1.8828,-1.9307,-2.0225,-2.0635,-2.0977,-2.1914,-2.2471,-2.2842,-2.3076,-2.2998,-2.2754,-2.2334,-2.1367,-2.0648,-2.0648,-2.0614,-2.0579,-2.0783,-2.22,-2.3615,-2.4393,-2.5724,-2.7143,-2.8499,-2.9591,-3.0105,-2.9716,-2.9955,-3.003,-2.9704,-2.9453,-2.944,-2.9767,-2.9792,-2.9792,-2.9792,-2.9792,-2.9792,-2.9792,-2.9792,-2.9792,-2.9792,-2.9792,-2.9792,-2.9792,-2.9792,-2.9792,-2.9792,-2.9792,-2.9792,-2.9792,-2.9792,-2.9792,-2.9792,-2.9792,-2.9792,-2.9792,-2.9792,-2.9792,-2.9792,-2.9792,-2.9792,-2.9792,0.0,0.0,0.0,0.0,0.0,0.0,0.0,0.0,0.0,0.0,0.0,0.0,0.0,0.0,0.0,0.0,0.0,0.0,0.0,0.0,0.0,0.0,0.0,0.0,0.0,0.0,0.0,0.0,0.0,0.0,0.0,0.0,0.0,0.0,0.0,0.0,0.0,0.0,0.0,0.0,0.0,0.0,0.0,0.0,0.0,0.0,0.0,0.0,0.0,0.0,-1.7393,-1.8164,-1.9082,-1.9961,-2.0752,-2.126,-2.167,-2.206,-2.248,-2.2861,-2.3135,-2.3135,-2.2783,-2.2314,-2.1894,-2.0977,-2.0093,-1.9422,-1.9717,-2.0104,-1.9868,-2.0878,-2.2096,-2.3263,-2.4406,-2.5724,-2.7381,-2.9001,-3.0077,-3.0306,-3.0653,-3.0636,-3.0214,-3.0111,-2.9889,-2.9658,-2.9814,-2.9867,-2.9792,-2.9792,-2.9792,-2.9792,-2.9792,-2.9792,-2.9792,-2.9792,-2.9792,-2.9792,-2.9867,-2.9867,-2.9792,-2.9867,-2.9867,-2.9792,-2.9792,-2.9792,-2.9792,-2.9792,-2.9792,-2.9792,-2.9792,-2.9792,-2.9792,-2.9792,-2.9792,-2.9792,0.0,0.0,0.0,0.0,0.0,0.0,0.0,0.0,0.0,0.0,0.0,0.0,0.0,0.0,0.0,0.0,0.0,0.0,0.0,0.0,0.0,0.0,0.0,0.0,0.0,0.0,0.0,0.0,-1.5314,0.0,0.0,0.0,0.0,0.0,0.0,0.0,0.0,0.0,0.0,0.0,0.0,0.0,0.0,0.0,0.0,0.0,0.0,0.0,0.0,0.0,-1.7891,-1.8223,-1.9424,-2.041,-2.1269,-2.206,-2.2344,-2.249,-2.292,-2.3086,-2.3135,-2.3135,-2.2568,-2.1885,-2.1445,-1.9844,-1.8764,-1.9933,-1.9432,-1.9287,-2.0902,-2.2056,-2.3364,-2.4921,-2.6113,-2.7444,-2.9126,-3.0369,-3.0636,-2.9268,-3.0774,-3.0964,-2.8431,-2.9951,-3.0493,-2.9042,-2.9875,-3.0269,-2.9817,-2.9792,-2.9792,-2.9792,-2.9792,-2.9792,-2.9792,-2.9792,-2.9792,-2.9804,-3.0256,-3.0231,-2.9817,-3.0269,-3.0218,-2.9792,-2.9792,-2.9792,-2.9792,-2.9792,-2.9792,-2.9792,-2.9792,-2.9792,-2.9792,-2.9792,-2.9792,-2.9792,0.0,0.0,0.0,0.0,0.0,0.0,0.0,0.0,0.0,0.0,0.0,0.0,0.0,0.0,0.0,0.0,0.0,0.0,0.0,0.0,0.0,0.0,0.0,0.0,0.0,-1.56,-1.5551,-1.6064,0.0,-1.5501,-1.5896,-1.6466,-1.6891,-1.7285,-1.7794,0.0,0.0,0.0,0.0,0.0,0.0,0.0,0.0,0.0,0.0,0.0,0.0,0.0,0.0,0.0,-1.75,-1.8066,-2.0254,-2.1377,-2.2021,-2.2656,-2.2832,-2.2881,-2.3086,-2.3135,-2.3135,-2.3135,-2.2334,-2.1435,-2.0986,-1.9394,-1.8332,-1.9408,-1.8985,-1.8976,-2.0772,-2.1732,-2.2824,-2.4494,-2.5222,-2.6352,-2.8599,-2.9036,-2.9407,-3.0074,-3.0844,-3.0846,-2.9689,-3.0692,-3.0916,-2.9792,-3.0276,-3.0382,-2.9829,-2.9792,-2.9792,-2.9792,-2.9792,-2.9792,-2.9792,-2.9792,-2.9942,-3.0218,-3.0495,-3.0482,-3.0231,-3.0495,-3.0319,-2.9792,-2.9792,-2.9792,-2.9792,-2.9792,-2.9792,-2.9792,-2.9792,-2.9792,-2.9792,-2.9792,-2.9792,-2.9792,0.0,0.0,0.0,0.0,0.0,0.0,0.0,0.0,0.0,0.0,0.0,0.0,0.0,0.0,0.0,0.0,0.0,0.0,0.0,0.0,0.0,0.0,0.0,0.0,0.0,0.0,0.0,-1.6268,-1.5813,0.0,0.0,0.0,0.0,0.0,-1.7379,-1.7734,-1.7715,0.0,0.0,0.0,0.0,-1.6592,0.0,0.0,0.0,0.0,0.0,0.0,0.0,0.0,-1.6963,-1.7705,-2.0361,-2.1543,-2.2051,-2.2578,-2.2793,-2.291,-2.3086,-2.3135,-2.3115,-2.3027,-2.2041,-2.0977,-2.0527,-1.9033,-1.7915,-1.8542,-1.8475,-1.8805,-2.0355,-2.1181,-2.2209,-2.3904,-2.4268,-2.5222,-2.7758,-2.7657,-2.8116,-3.0343,-3.047,-3.0405,-3.0192,-3.0868,-3.1005,-3.0229,-3.0338,-3.0231,-2.9829,-2.9792,-2.9792,-2.9792,-2.9792,-2.9792,-2.9792,-2.9792,-3.0068,-3.062,-3.062,-3.067,-3.0783,-3.0783,-3.0482,-2.9967,-2.9967,-2.9905,-2.9792,-2.9792,-2.9792,-2.9792,-2.9792,-2.9792,-2.9792,-2.9792,-2.9792,-2.9817,0.0,0.0,0.0,0.0,0.0,0.0,0.0,0.0,0.0,0.0,0.0,0.0,0.0,0.0,0.0,0.0,0.0,0.0,0.0,0.0,0.0,0.0,0.0,0.0,0.0,0.0,0.0,-1.4862,-1.4345,0.0,0.0,0.0,0.0,0.0,0.0,-1.6846,-1.6846,-1.6807,0.0,0.0,0.0,0.0,0.0,0.0,0.0,0.0,0.0,-1.5449,-1.5547,-1.6436,-1.6758,-1.6977,-1.8486,-1.9492,-2.0312,-2.1162,-2.1689,-2.2168,-2.293,-2.3135,-2.3047,-2.2666,-2.1592,-2.0518,-2.0078,-1.835,-1.7007,-1.776,-1.8202,-1.8874,-2.0211,-2.1445,-2.2786,-2.4469,-2.5146,-2.6076,-2.7858,-2.8037,-2.8011,-2.8042,-2.9502,-2.9461,-2.6496,-2.9261,-3.0502,-2.8933,-2.9344,-2.9685,-2.9764,-2.9792,-2.9792,-2.9792,-2.9792,-2.9792,-2.9792,-2.9792,-3.0068,-3.062,-3.062,-3.0871,-3.1323,-3.1323,-3.1035,-3.0545,-3.0545,-3.0256,-2.9792,-2.9792,-2.9792,-2.9792,-2.9792,-2.9792,-2.9792,-2.9792,-2.9792,-2.9867,0.0,0.0,0.0,0.0,0.0,0.0,0.0,0.0,0.0,0.0,0.0,0.0,0.0,0.0,0.0,0.0,0.0,0.0,0.0,0.0,0.0,0.0,0.0,0.0,0.0,0.0,-1.4751,-1.4751,-1.4796,0.0,0.0,0.0,0.0,0.0,0.0,-1.6665,-1.6655,-1.6445,0.0,0.0,0.0,0.0,0.0,0.0,0.0,0.0,0.0,0.0,-1.5088,-1.5439,-1.5732,-1.6025,-1.6533,-1.7109,-1.8027,-2.0195,-2.1143,-2.168,-2.2529,-2.2949,-2.3037,-2.2617,-2.1533,-2.0449,-2.0019,-1.8262,-1.6908,-1.7678,-1.7503,-1.7898,-2.0038,-2.0416,-2.1356,-2.429,-2.3482,-2.3475,-2.636,-2.5309,-2.4957,-2.6853,-2.7383,-2.7327,-2.6747,-2.8254,-2.8973,-2.8242,-2.8672,-2.8856,-2.8572,-2.9224,-2.9849,-3.0294,-3.0281,-3.0444,-3.0746,-3.0118,-3.0231,-3.1085,-3.1085,-3.1185,-3.1386,-3.1386,-3.111,-3.0595,-3.0269,-3.0181,-3.0269,-2.993,-2.9993,-3.0256,-2.993,-2.9792,-2.9829,-3.0168,-3.0281,-3.0369,0.0,0.0,0.0,0.0,0.0,0.0,0.0,0.0,0.0,0.0,0.0,0.0,0.0,0.0,0.0,0.0,0.0,0.0,0.0,0.0,0.0,0.0,0.0,0.0,0.0,0.0,-1.4717,-1.459,-1.5137,-1.5283,0.0,0.0,-1.5977,-1.6162,0.0,0.0,0.0,0.0,0.0,0.0,0.0,0.0,0.0,0.0,0.0,0.0,0.0,0.0,0.0,0.0,0.0,-1.541,-1.541,0.0,0.0,-1.8887,-2.0117,-2.085,-2.1699,-2.2344,-2.2637,-2.208,-2.1143,-2.0195,-1.9502,-1.7998,-1.6815,-1.7205,-1.72,-1.7614,-1.9377,-1.9652,-2.0514,0.0,-2.1957,-2.1698,-2.4552,-2.313,-2.2974,-2.6155,-2.5923,-2.6034,-2.7517,-2.8172,-2.8288,-2.7843,-2.8162,-2.823,-2.7988,-2.8491,-2.9075,-2.9525,-2.9582,-2.9841,-3.0387,-2.9646,-2.9915,-3.116,-3.0997,-3.1173,-3.1625,-3.1311,-3.1135,-3.106,-3.0507,-3.0482,-3.0809,-3.0256,-3.0269,-3.057,-3.0181,-3.0043,-3.0093,-3.0645,-3.0846,-3.0922,0.0,0.0,0.0,0.0,0.0,0.0,0.0,0.0,0.0,0.0,0.0,0.0,0.0,0.0,0.0,0.0,0.0,0.0,0.0,0.0,0.0,0.0,0.0,0.0,0.0,0.0,0.0,-1.4087,-1.499,-1.498,-1.4107,-1.5019,-1.5205,-1.4824,0.0,0.0,0.0,0.0,0.0,0.0,0.0,0.0,0.0,0.0,0.0,0.0,0.0,0.0,0.0,0.0,0.0,0.0,0.0,0.0,0.0,0.0,-1.8311,-1.9492,-2.0352,-2.123,-2.1689,-2.081,-2.0254,-1.959,-1.832,-1.7363,-1.6602,-1.6223,-1.7408,-1.8367,-1.8084,-1.9625,-2.0932,-2.0715,-2.107,-2.1733,-2.2745,-2.241,-2.3107,-2.6155,-2.5652,-2.5948,-2.8333,-2.9104,-2.8844,-2.7662,-2.7579,-2.7929,-2.8601,-2.7506,-2.6986,-2.7138,-2.7115,-2.7467,-2.8108,-2.8096,-2.8955,-3.062,-3.0068,-3.0645,-3.2177,-3.111,-3.1198,-3.2164,-3.1612,-3.1373,-3.1336,-3.0821,-3.0608,-3.062,-3.0608,-3.0608,-3.067,-3.1185,-3.1386,-3.1461,0.0,0.0,0.0,0.0,0.0,0.0,0.0,0.0,0.0,0.0,0.0,0.0,0.0,0.0,0.0,0.0,0.0,0.0,0.0,0.0,0.0,0.0,0.0,0.0,0.0,0.0,0.0,0.0,0.0,-1.4844,-1.458,-1.4853,-1.5068,-1.5205,-1.5049,-1.5146,0.0,0.0,0.0,0.0,0.0,0.0,0.0,0.0,0.0,0.0,0.0,0.0,0.0,0.0,0.0,0.0,0.0,0.0,0.0,0.0,0.0,-1.8174,-1.9014,-1.9668,-1.9971,-1.9394,-1.8926,-1.8428,-1.7734,-1.6904,-1.623,-1.6154,-1.6227,-1.6605,-1.7417,-1.7819,-1.8743,-2.0839,-2.0492,-2.0503,-2.2061,-2.1778,-2.1949,-2.3227,-2.3533,-2.4092,-2.5166,-2.546,-2.5493,-2.5438,-2.5748,-2.5943,-2.6166,-2.6094,-2.6568,-2.764,-2.7379,-2.7882,-2.9261,-2.8055,-2.848,-3.062,-3.0318,-3.0548,-3.1135,-3.1524,-3.1687,-3.1637,-3.1461,-3.1599,-3.1888,-3.0984,-3.0821,-3.111,-3.0758,-3.062,-3.0721,-3.1625,-3.1951,-3.2039,0.0,0.0,0.0,0.0,0.0,0.0,0.0,0.0,0.0,0.0,0.0,0.0,0.0,0.0,0.0,0.0,0.0,0.0,0.0,0.0,0.0,0.0,0.0,0.0,0.0,0.0,0.0,0.0,0.0,0.0,0.0,0.0,-1.4756,-1.4687,-1.459,-1.4775,0.0,0.0,0.0,0.0,0.0,0.0,0.0,0.0,0.0,0.0,0.0,0.0,0.0,0.0,0.0,0.0,0.0,0.0,0.0,0.0,0.0,0.0,0.0,-1.8359,-1.8701,-1.8271,-1.7969,-1.7617,-1.7021,-1.6455,-1.6076,-1.585,-1.5831,-1.6113,-1.696,-1.7134,-1.7765,-1.9796,-1.9371,-1.9308,-2.0744,-2.0824,-2.1074,-2.2012,-2.3604,-2.4425,-2.3849,-2.4366,-2.4656,-2.4394,-2.4814,-2.5068,-2.5068,-2.5176,-2.5618,-2.654,-2.6341,-2.6846,-2.8089,-2.7004,-2.7622,-2.993,-2.981,-3.0048,-3.0633,-3.0642,-3.1001,-3.1605,-3.0528,-3.0761,0.0,-3.0667,-3.0532,-3.1033,-3.0935,-3.1035,-3.1323,-3.2215,-3.2541,-3.2591,0.0,0.0,0.0,0.0,0.0,0.0,0.0,0.0,0.0,0.0,0.0,0.0,0.0,0.0,0.0,0.0,0.0,0.0,0.0,0.0,0.0,0.0,0.0,0.0,0.0,0.0,0.0,-1.3555,-1.4321,-1.434,-1.3662,0.0,0.0,-1.3613,-1.3975,-1.4355,0.0,0.0,0.0,0.0,0.0,0.0,0.0,0.0,0.0,0.0,0.0,0.0,0.0,0.0,0.0,0.0,0.0,0.0,0.0,0.0,0.0,0.0,0.0,-1.7217,-1.7734,-1.7344,-1.7246,-1.7031,-1.6201,-1.6076,0.0,-1.5498,-1.5921,-1.6485,-1.6697,-1.7264,-1.7799,-1.8035,-1.8076,-1.8389,-1.9219,-1.9746,-2.0664,-2.2314,-2.5168,-2.6141,-2.4009,-2.5135,-2.556,-2.4457,-2.4746,-2.498,-2.498,-2.4619,-2.4404,-2.4375,-2.4375,-2.4696,-2.5371,-2.5347,-2.6443,-2.8739,-2.8763,-2.9374,-3.0361,-2.8899,-2.9573,-3.1717,-2.9195,-2.9206,-3.1003,-2.9996,-2.9865,-3.0245,-3.0901,-3.1522,-3.2143,-3.2757,-3.2982,-3.3081,0.0,0.0,0.0,0.0,0.0,0.0,0.0,0.0,0.0,0.0,0.0,0.0,0.0,0.0,0.0,0.0,0.0,0.0,0.0,0.0,0.0,0.0,0.0,0.0,0.0,0.0,0.0,-1.3984,-1.3784,-1.4147,-1.4971,-1.4406,0.0,0.0,0.0,0.0,0.0,0.0,0.0,0.0,0.0,0.0,0.0,0.0,0.0,0.0,0.0,0.0,0.0,0.0,0.0,0.0,0.0,0.0,0.0,0.0,0.0,0.0,0.0,0.0,-1.5996,-1.5898,-1.5879,-1.582,0.0,0.0,0.0,0.0,0.0,-1.5851,-1.6572,-1.6855,-1.7303,-1.8301,-1.8769,-1.917,-1.9697,-2.0723,-2.1689,-2.2422,-2.3467,-2.3884,-2.3399,-2.3643,-2.392,-2.3916,-2.4033,-2.4092,-2.4092,-2.4297,-2.4268,-2.3945,-2.3935,-2.4236,-2.4965,-2.4715,-2.5823,-2.8298,-2.8556,-2.868,-2.8723,-2.9164,-2.9034,-2.853,-2.9535,-2.9706,-2.9349,-2.9683,-2.9227,-2.8521,-2.8666,-2.9397,-3.0495,-3.1339,-3.2239,-3.3081,0.0,0.0,0.0,0.0,0.0,0.0,0.0,0.0,0.0,0.0,0.0,0.0,0.0,0.0,0.0,0.0,0.0,0.0,0.0,0.0,0.0,0.0,0.0,0.0,0.0,0.0,0.0,0.0,0.0,-1.3677,0.0,0.0,0.0,0.0,0.0,0.0,0.0,0.0,0.0,0.0,0.0,0.0,0.0,0.0,0.0,0.0,0.0,0.0,0.0,-1.4004,-1.4389,-1.4893,0.0,0.0,0.0,0.0,0.0,0.0,0.0,0.0,-1.541,-1.541,-1.541,0.0,0.0,0.0,0.0,0.0,0.0,-1.5918,-1.6611,-1.6894,-1.7383,-1.8467,-1.8828,-1.9277,-2.0098,-2.1006,-2.1816,-2.2441,-2.2715,-2.293,-2.3135,-2.3144,-2.3242,-2.3477,-2.3682,-2.3789,-2.3789,-2.4004,-2.4023,-2.3799,-2.3594,-2.3722,-2.4364,-2.4247,-2.5112,-2.7144,-2.7119,-2.7311,-2.7637,-2.7531,-2.7403,-2.7341,-2.8256,-2.8243,-2.7699,-2.8573,-2.8324,-2.7545,-2.8453,-2.9437,-3.0548,-3.1659,-3.2152,-3.2239,0.0,0.0,0.0,0.0,0.0,0.0,0.0,0.0,0.0,0.0,0.0,0.0,0.0,0.0,0.0,0.0,0.0,0.0,0.0,0.0,0.0,0.0,0.0,0.0,0.0,0.0,0.0,0.0,0.0,0.0,0.0,0.0,-1.3072,0.0,0.0,0.0,0.0,0.0,0.0,0.0,0.0,0.0,0.0,0.0,0.0,0.0,0.0,0.0,0.0,-1.3877,-1.418,-1.4375,-1.5166,0.0,0.0,0.0,0.0,0.0,0.0,-1.5459,-1.5498,-1.543,-1.541,0.0,0.0,0.0,0.0,0.0,0.0,-1.6318,-1.6836,-1.7227,-1.7754,-1.8594,-1.8848,-1.9385,-2.0684,-2.1191,-2.1699,-2.2422,-2.2568,-2.2725,-2.3018,-2.3096,-2.3135,-2.3135,-2.3486,-2.3691,-2.3691,-2.3691,-2.3691,-2.3691,-2.333,-2.332,-2.3691,-2.375,-2.4546,-2.5894,-2.557,-2.5882,-2.6727,-2.5391,-2.5519,-2.6612,-2.6309,-2.6067,-2.5988,-2.7195,-2.7212,-2.6749,-2.8623,-2.9799,-3.0749,-3.2028,-3.1865,-3.0944,0.0,0.0,0.0,0.0,0.0,0.0,0.0,0.0,0.0,0.0,0.0,0.0,0.0,0.0,0.0,0.0,0.0,0.0,0.0,0.0,0.0,0.0,0.0,0.0,0.0,0.0,0.0,0.0,0.0,0.0,-1.3443,-1.2993,-1.2825,0.0,0.0,0.0,0.0,0.0,0.0,0.0,-1.2881,0.0,0.0,0.0,0.0,0.0,0.0,0.0,0.0,-1.3912,-1.4375,-1.4775,-1.5254,0.0,0.0,0.0,0.0,0.0,-1.541,-1.5684,-1.5879,-1.5508,-1.541,0.0,0.0,0.0,0.0,0.0,-1.6582,-1.6875,-1.7666,-1.7871,-1.8193,-1.9043,-1.9795,-2.0723,-2.2031,-2.2275,-2.2363,-2.249,-2.2822,-2.293,-2.2637,-2.293,-2.3135,-2.3135,-2.3203,-2.3242,-2.3242,-2.3242,-2.3242,-2.3242,-2.3174,-2.3164,-2.3242,-2.3603,-2.4225,-2.5007,-2.5256,-2.5291,-2.5147,-2.4904,-2.4413,-2.3854,-2.5134,-2.5166,-2.4346,-2.5926,-2.5865,-2.4993,-2.6645,-2.7404,-2.7758,-2.9341,-2.9863,-2.9681,0.0,0.0,0.0,0.0,0.0,0.0,0.0,0.0,0.0,0.0,0.0,0.0,0.0,0.0,0.0,0.0,0.0,0.0,0.0,0.0,0.0,0.0,0.0,0.0,0.0,0.0,0.0,0.0,0.0,-1.3044,-1.2995,-1.2584,-1.2557,-1.2887,0.0,0.0,0.0,0.0,0.0,0.0,0.0,0.0,0.0,0.0,0.0,0.0,0.0,0.0,0.0,0.0,-1.4424,-1.4863,-1.5283,0.0,0.0,0.0,0.0,0.0,-1.541,-1.5557,-1.5664,-1.5459,0.0,0.0,0.0,0.0,0.0,0.0,-1.6665,-1.6924,-1.7559,-1.8047,-1.8711,-1.9795,-2.0713,-2.1494,-2.209,-2.2178,-2.2256,-2.248,-2.2685,-2.2812,-2.2852,-2.3027,-2.3135,-2.3135,-2.3135,-2.3135,-2.3135,-2.3135,-2.3135,-2.3135,-2.3135,-2.3135,-2.3135,-2.334,-2.3703,-2.424,-2.421,-2.422,-2.424,-2.3998,-2.3637,-2.3154,-2.4856,-2.4743,-2.3575,-2.5533,-2.5562,-2.4545,-2.6259,-2.7043,-2.7389,-2.815,-2.8402,-2.8402,0.0,0.0,0.0,0.0,0.0,0.0,0.0,0.0,0.0,0.0,0.0,0.0,0.0,0.0,0.0,0.0,0.0,0.0,0.0,0.0,0.0,0.0,0.0,0.0,0.0,0.0,-1.3603,-1.3613,-1.329,-1.2906,-1.2354,-1.2043,-1.2135,0.0,0.0,0.0,0.0,0.0,0.0,0.0,0.0,0.0,0.0,0.0,0.0,0.0,0.0,0.0,0.0,0.0,0.0,0.0,0.0,0.0,0.0,0.0,-1.541,-1.541,-1.541,-1.5488,-1.5508,-1.5312,0.0,0.0,0.0,-1.5879,-1.6152,-1.7129,-1.7246,-1.7285,-1.7617,-1.8281,-1.9219,-2.0518,-2.1377,-2.1953,-2.2148,-2.2178,-2.2295,-2.2617,-2.2656,-2.2783,-2.3105,-2.3135,-2.3135,-2.3135,-2.3135,-2.3135,-2.3135,-2.3135,-2.3135,-2.3135,-2.3135,-2.3135,-2.3135,-2.3135,-2.3301,-2.3633,-2.3301,-2.332,-2.3623,-2.3291,-2.3135,-2.3154,-2.4492,-2.4338,-2.3438,-2.5145,-2.5361,-2.4702,-2.6414,-2.7274,-2.7589,-2.7315,-2.7125,-2.7125,0.0,0.0,0.0,0.0,0.0,0.0,0.0,0.0,0.0,0.0,0.0,0.0,0.0,0.0,0.0,0.0,0.0,0.0,0.0,0.0,0.0,0.0,0.0,0.0,0.0,-1.2151,-1.2274,-1.2341,-1.2483,-1.2198,-1.1471,-1.1253,-1.1383,-1.1806,0.0,0.0,0.0,0.0,0.0,0.0,0.0,0.0,0.0,0.0,0.0,0.0,0.0,0.0,0.0,0.0,0.0,0.0,0.0,0.0,0.0,0.0,-1.541,-1.541,-1.541,-1.5703,-1.589,-1.5029,-1.5146,0.0,-1.6973,-1.7246,-1.7598,-1.8848,-1.8779,-1.8436,-1.8545,-1.8926,-1.9668,-2.0977,-2.1582,-2.2158,-2.2939,-2.3047,-2.3057,-2.3086,-2.3096,-2.3105,-2.3135,-2.3135,-2.3135,-2.3135,-2.3135,-2.3135,-2.3135,-2.3135,-2.3135,-2.3135,-2.3135,-2.3135,-2.3135,-2.3135,-2.3154,-2.3184,-2.3154,-2.3154,-2.3184,-2.3154,-2.3135,-2.3144,-2.3251,-2.3477,-2.3779,-2.432,-2.4741,-2.5248,-2.6898,-2.7558,-2.7505,-2.6294,-2.583,-2.583,0.0,0.0,0.0,0.0,0.0,0.0,0.0,0.0,0.0,0.0,0.0,0.0,0.0,0.0,0.0,0.0,0.0,0.0,0.0,0.0,0.0,0.0,0.0,-1.0608,-1.0919,-1.1873,-1.244,-1.252,-1.2232,-1.1785,-1.1136,-1.1098,0.0,0.0,0.0,0.0,0.0,0.0,0.0,0.0,0.0,0.0,0.0,0.0,0.0,0.0,0.0,0.0,0.0,0.0,0.0,0.0,0.0,0.0,0.0,0.0,-1.541,-1.541,-1.541,-1.5527,-1.5576,-1.5254,-1.5498,0.0,-1.7139,-1.7383,-1.7822,-1.9355,-1.9336,-1.9043,-1.9043,-1.9394,-2.0019,-2.1064,-2.1816,-2.248,-2.3057,-2.3135,-2.3135,-2.3135,-2.3135,-2.3135,-2.3135,-2.3135,-2.3135,-2.3135,-2.3135,-2.3135,-2.3135,-2.3135,-2.3135,-2.3135,-2.3135,-2.3135,-2.3135,-2.3135,-2.3135,-2.3135,-2.3135,-2.3135,-2.3135,-2.3135,-2.3135,-2.3135,-2.3135,-2.3232,-2.3437,-2.4131,-2.4512,-2.483,-2.6004,-2.639,-2.639,-2.5927,-2.5742,-2.5781,0.0,0.0,0.0,0.0,0.0,0.0,0.0,0.0,0.0,0.0,0.0,0.0,0.0,0.0,0.0,0.0,0.0,0.0,0.0,0.0,0.0,0.0,0.0,-1.0095,-0.9933,-1.1088,-1.1821,-1.2013,-1.1724,-1.139,-1.0982,0.0,0.0,0.0,0.0,0.0,-1.1641,0.0,0.0,0.0,0.0,0.0,0.0,0.0,0.0,0.0,0.0,0.0,0.0,0.0,0.0,0.0,0.0,0.0,0.0,0.0,0.0,-1.4917,-1.5157,-1.5032,-1.4975,-1.5157,0.0,0.0,-1.7519,-1.7773,-1.8262,-1.998,-1.999,-1.9648,-1.9512,-1.9717,-2.0205,-2.1094,-2.1836,-2.251,-2.3057,-2.3135,-2.3135,-2.3135,-2.3135,-2.3135,-2.3135,-2.3135,-2.3135,-2.3135,-2.3135,-2.3135,-2.3135,-2.3135,-2.3135,-2.3135,-2.3135,-2.3135,-2.3135,-2.3135,-2.3135,-2.3135,-2.3135,-2.3135,-2.3135,-2.3135,-2.3135,-2.3135,-2.3135,-2.3213,-2.3398,-2.4121,-2.458,-2.4893,-2.5498,-2.5742,-2.5752,-2.5889,-2.5947,-2.6006,0.0,0.0,0.0,0.0,0.0,0.0,0.0,0.0,0.0,0.0,0.0,0.0,0.0,0.0,0.0,0.0,0.0,0.0,0.0,0.0,0.0,0.0,0.0,-0.9609,-0.9225,-0.9526,-0.9973,-1.0624,-1.0855,-1.0995,-1.0975,-1.0388,0.0,0.0,0.0,0.0,0.0,0.0,0.0,0.0,0.0,0.0,0.0,0.0,0.0,0.0,0.0,0.0,0.0,0.0,0.0,0.0,0.0,0.0,0.0,0.0,-1.4639,-1.3921,-1.4617,-1.4326,-1.3978,-1.4617,-1.5439,-1.6514,-1.8242,-1.8562,-1.9058,-2.0869,-2.0869,-2.043,-1.999,-1.9912,-2.0205,-2.1084,-2.1592,-2.2168,-2.3008,-2.3125,-2.3125,-2.3135,-2.3135,-2.3135,-2.3135,-2.3135,-2.3135,-2.3135,-2.3135,-2.3135,-2.3135,-2.3135,-2.3135,-2.3135,-2.3135,-2.3135,-2.3135,-2.3135,-2.3135,-2.3135,-2.3135,-2.3135,-2.3135,-2.3135,-2.3135,-2.3135,-2.3135,-2.3379,-2.3818,-2.4238,-2.4941,-2.5742,-2.5742,-2.5742,-2.5791,-2.623,-2.6387,-2.6455,0.0,0.0,0.0,0.0,0.0,0.0,0.0,0.0,0.0,0.0,0.0,0.0,0.0,0.0,0.0,0.0,0.0,0.0,0.0,0.0,0.0,0.0,0.0,0.0,0.0,0.0,-0.9973,-1.0624,-1.0855,-1.0889,0.0,0.0,0.0,-1.0389,0.0,0.0,0.0,0.0,0.0,0.0,0.0,0.0,0.0,0.0,0.0,0.0,0.0,0.0,0.0,0.0,0.0,0.0,0.0,0.0,0.0,-1.5225,-1.4368,-1.3382,-1.4159,-1.366,-1.3065,-1.364,-1.4835,-1.615,-1.7306,-1.8128,-1.9043,-2.0469,-2.041,-2.0068,-1.9941,-1.9912,-2.0098,-2.0674,-2.1133,-2.1621,-2.2178,-2.2256,-2.2373,-2.2656,-2.2705,-2.2812,-2.3105,-2.3135,-2.3135,-2.3135,-2.3135,-2.3135,-2.3135,-2.3135,-2.3135,-2.3135,-2.3135,-2.3135,-2.3135,-2.3135,-2.3135,-2.3135,-2.3135,-2.3135,-2.3135,-2.3135,-2.3135,-2.3135,-2.3135,-2.3213,-2.3389,-2.4121,-2.4941,-2.5742,-2.5742,-2.5742,-2.5791,-2.623,-2.6387,-2.6494,0.0,0.0,0.0,0.0,0.0,0.0,0.0,0.0,0.0,0.0,0.0,0.0,0.0,0.0,0.0,0.0,0.0,0.0,0.0,0.0,0.0,0.0,0.0,0.0,0.0,-0.9542,-0.974,0.0,0.0,0.0,0.0,0.0,0.0,-1.0281,0.0,-0.9986,-1.0243,0.0,0.0,0.0,0.0,0.0,0.0,0.0,0.0,0.0,0.0,0.0,0.0,0.0,0.0,0.0,0.0,0.0,0.0,-1.4975,-1.3745,-1.2362,-1.327,-1.2994,-1.2572,-1.3399,-1.455,-1.5722,-1.6272,-1.8081,-1.9893,-2.0674,-2.0478,-2.0225,-2.04,-2.0146,-2.0117,-2.0732,-2.1055,-2.1387,-2.1826,-2.1885,-2.1982,-2.2236,-2.2266,-2.2363,-2.2617,-2.2793,-2.2822,-2.2656,-2.2793,-2.2891,-2.2891,-2.2891,-2.2969,-2.3135,-2.3135,-2.3135,-2.3135,-2.3135,-2.3135,-2.3135,-2.3135,-2.3135,-2.3135,-2.3135,-2.3135,-2.3135,-2.3135,-2.333,-2.3682,-2.4199,-2.4941,-2.5742,-2.5742,-2.5742,-2.581,-2.6416,-2.6641,-2.6758,0.0,0.0,0.0,0.0,0.0,0.0,0.0,0.0,0.0,0.0,0.0,0.0,0.0,0.0,0.0,0.0,0.0,0.0,0.0,0.0,0.0,0.0,0.0,0.0,0.0,0.0,0.0,0.0,0.0,0.0,0.0,0.0,-1.0624,-1.0611,0.0,-1.014,-1.0094,0.0,0.0,0.0,0.0,0.0,0.0,0.0,0.0,0.0,0.0,0.0,0.0,0.0,0.0,0.0,0.0,-1.4085,-1.42,-1.4725,-1.3046,-1.1279,-1.2334,-1.2303,-1.2251,-1.338,-1.4462,-1.5274,-1.5345,-1.814,-2.0796,-2.0847,-2.0546,-2.0498,-2.0956,-2.042,-2.0137,-2.0977,-2.1113,-2.125,-2.165,-2.1738,-2.1787,-2.1816,-2.1826,-2.1846,-2.1885,-2.2236,-2.2295,-2.1914,-2.2236,-2.2471,-2.251,-2.251,-2.2705,-2.3125,-2.3135,-2.3135,-2.3135,-2.3135,-2.3135,-2.3135,-2.3135,-2.3135,-2.3135,-2.3135,-2.3135,-2.3135,-2.3135,-2.3623,-2.4414,-2.4414,-2.4941,-2.5742,-2.5742,-2.5742,-2.584,-2.6699,-2.7012,-2.7139,0.0,0.0,0.0,0.0,0.0,0.0,0.0,0.0,0.0,0.0,0.0,0.0,0.0,0.0,0.0,0.0,0.0,0.0,0.0,0.0,0.0,0.0,0.0,0.0,0.0,0.0,0.0,0.0,0.0,0.0,0.0,0.0,0.0,-1.0618,0.0,-1.0334,0.0,0.0,0.0,0.0,0.0,0.0,0.0,0.0,0.0,0.0,0.0,0.0,0.0,0.0,0.0,0.0,-1.3252,-1.3252,-1.3537,-1.4887,-1.374,-1.2282,-1.3111,-1.2189,-1.1226,-1.2143,-1.3528,-1.4969,-1.6427,-1.7086,-1.7582,-1.798,-1.8257,-1.8845,-1.9965,-1.9775,-1.959,-2.0117,-2.0195,-2.0234,-2.0322,-2.0635,-2.0977,-2.1328,-2.1377,-2.1514,-2.1846,-2.1963,-2.1982,-2.1894,-2.1973,-2.2168,-2.249,-2.251,-2.2705,-2.3125,-2.3135,-2.3135,-2.3135,-2.3135,-2.3135,-2.3135,-2.3135,-2.3135,-2.3135,-2.3135,-2.3135,-2.3135,-2.3135,-2.3623,-2.4414,-2.4414,-2.4941,-2.5742,-2.5742,-2.5742,-2.584,-2.6699,-2.7012,-2.7139,0.0,0.0,0.0,0.0,0.0,0.0,0.0,0.0,0.0,0.0,0.0,0.0,0.0,0.0,0.0,0.0,0.0,0.0,0.0,0.0,0.0,0.0,0.0,0.0,0.0,0.0,0.0,0.0,0.0,0.0,0.0,0.0,0.0,-1.0624,0.0,-1.0474,0.0,0.0,0.0,0.0,0.0,0.0,0.0,0.0,0.0,0.0,0.0,0.0,0.0,0.0,0.0,0.0,0.0,0.0,-1.2716,-1.4105,-1.3249,-1.2033,-1.2826,-1.2341,-1.1698,-1.1985,-1.3164,-1.4379,-1.494,-1.4927,-1.5122,-1.6351,-1.7072,-1.799,-1.9383,-1.9268,-1.918,-1.9814,-1.9746,-1.9687,-1.9883,-2.0107,-2.0342,-2.0576,-2.0791,-2.1006,-2.123,-2.1445,-2.1484,-2.1269,-2.1455,-2.167,-2.1894,-2.21,-2.2402,-2.2822,-2.3037,-2.3047,-2.2842,-2.3037,-2.3037,-2.2842,-2.3047,-2.3135,-2.3135,-2.3135,-2.3135,-2.3135,-2.3135,-2.3516,-2.4131,-2.4336,-2.4814,-2.5439,-2.5654,-2.5742,-2.584,-2.6699,-2.6894,-2.6865,0.0,0.0,0.0,0.0,0.0,0.0,0.0,0.0,0.0,0.0,0.0,0.0,0.0,0.0,0.0,0.0,0.0,0.0,0.0,0.0,0.0,0.0,0.0,0.0,0.0,0.0,0.0,0.0,0.0,0.0,0.0,0.0,0.0,-1.0624,0.0,0.0,0.0,0.0,0.0,0.0,0.0,0.0,0.0,0.0,-0.9539,-0.926,-0.9585,0.0,0.0,0.0,0.0,0.0,0.0,0.0,-1.202,-1.3175,-1.2622,-1.1853,-1.2501,-1.2677,-1.2525,-1.2223,-1.2918,-1.3478,-1.2966,-1.2809,-1.3393,-1.5475,-1.6419,-1.7342,-1.8865,-1.8818,-1.8809,-1.9668,-1.9453,-1.9346,-1.9844,-1.9912,-1.9941,-2.0019,-2.0342,-2.0566,-2.0566,-2.0898,-2.0967,-2.0596,-2.0908,-2.1152,-2.123,-2.1582,-2.1973,-2.2393,-2.2744,-2.2754,-2.2412,-2.2822,-2.2852,-2.2519,-2.2939,-2.3135,-2.3135,-2.3135,-2.3135,-2.3135,-2.3135,-2.3428,-2.3926,-2.4277,-2.4717,-2.5215,-2.5596,-2.5781,-2.5947,-2.6728,-2.6836,-2.6768,0.0,0.0,0.0,0.0,0.0,0.0,0.0,0.0,0.0,0.0,0.0,0.0,0.0,0.0,0.0,0.0,0.0,0.0,0.0,0.0,0.0,0.0,0.0,0.0,0.0,0.0,0.0,0.0,0.0,0.0,0.0,0.0,0.0,-1.0624,0.0,0.0,0.0,0.0,0.0,0.0,0.0,0.0,0.0,0.0,-0.9719,-0.9232,-0.9247,-0.9287,-0.9339,-0.9707,-1.0071,0.0,0.0,0.0,-1.1943,-1.283,-1.3185,-1.3314,-1.3444,-1.31,-1.2655,-1.2003,-1.1782,-1.202,-1.3042,-1.2461,-1.2423,-1.528,-1.5644,-1.6139,-1.828,-1.8379,-1.8379,-1.9238,-1.9004,-1.9004,-1.9805,-1.9912,-2.0059,-2.0439,-2.0527,-2.0566,-2.0566,-2.0625,-2.0635,-2.0566,-2.0625,-2.082,-2.1211,-2.1289,-2.1514,-2.1953,-2.2021,-2.2031,-2.1973,-2.2383,-2.2568,-2.2519,-2.2939,-2.3135,-2.3135,-2.3135,-2.3135,-2.3135,-2.3135,-2.3594,-2.4336,-2.4394,-2.4902,-2.5654,-2.5713,-2.5967,-2.6357,-2.6836,-2.7217,-2.7568,0.0,0.0,0.0,0.0,0.0,0.0,0.0,0.0,0.0,0.0,0.0,0.0,0.0,0.0,0.0,0.0,0.0,0.0,0.0,0.0,0.0,0.0,0.0,0.0,0.0,0.0,0.0,0.0,0.0,0.0,0.0,-1.0557,-1.0624,0.0,0.0,0.0,0.0,0.0,0.0,0.0,0.0,0.0,0.0,-1.0067,-0.9853,-0.9486,-0.9486,-0.9593,-0.9753,-0.988,-1.012,-1.045,-1.094,0.0,0.0,0.0,-1.2461,-1.2574,-1.2574,-1.2906,-1.2932,-1.1487,-1.175,-1.236,-1.246,-1.2171,-1.2439,-1.4504,-1.4942,-1.5601,-1.7849,-1.8135,-1.8213,-1.8818,-1.8564,-1.8496,-1.9111,-1.9199,-1.9268,-1.9463,-1.9697,-1.9853,-1.9853,-2.0059,-2.0195,-2.0195,-2.043,-2.0654,-2.085,-2.1103,-2.1318,-2.1514,-2.1758,-2.1768,-2.1523,-2.2187,-2.2627,-2.2861,-2.3057,-2.3135,-2.3135,-2.3135,-2.3135,-2.3135,-2.3135,-2.335,-2.374,-2.4219,-2.4648,-2.5049,-2.5547,-2.5859,-2.6074,-2.6504,-2.6631,-2.6709,0.0,0.0,0.0,0.0,0.0,0.0,0.0,0.0,0.0,0.0,0.0,0.0,0.0,0.0,0.0,0.0,0.0,0.0,0.0,0.0,0.0,0.0,0.0,0.0,0.0,0.0,0.0,0.0,0.0,0.0,-1.0624,-1.0624,-1.0624,0.0,-1.0624,-1.0624,0.0,0.0,0.0,0.0,0.0,-1.0144,-0.9947,-0.9573,-0.9518,-0.9579,-0.9472,-0.9597,-0.9913,-1.0067,-1.0267,-1.0461,-1.0598,-1.0624,0.0,0.0,0.0,-1.1787,-1.1869,-1.2753,-1.3101,-1.1171,-1.1907,-1.2932,-1.2035,-1.1951,-1.2477,-1.3737,-1.4023,-1.4757,-1.676,-1.7648,-1.8144,-1.8494,-1.8281,-1.8193,-1.873,-1.8711,-1.8601,-1.8789,-1.9092,-1.9287,-1.9287,-1.957,-1.9805,-1.9902,-2.0117,-2.0332,-2.0557,-2.0781,-2.0947,-2.1064,-2.1387,-2.1396,-2.1064,-2.1924,-2.2617,-2.3135,-2.3135,-2.3135,-2.3135,-2.3135,-2.3135,-2.3135,-2.3135,-2.3203,-2.3359,-2.4111,-2.4482,-2.4658,-2.5439,-2.5801,-2.5957,-2.6387,-2.6338,-2.623,0.0,0.0,0.0,0.0,0.0,0.0,0.0,0.0,0.0,0.0,0.0,0.0,0.0,0.0,0.0,0.0,0.0,0.0,0.0,0.0,0.0,0.0,0.0,0.0,0.0,0.0,0.0,0.0,0.0,0.0,-1.0624,-1.0624,-1.0624,-1.0624,-1.0624,-1.0624,-1.0624,0.0,0.0,0.0,0.0,-0.9348,-0.9583,-0.8156,-0.8288,-0.9187,-0.8817,-0.8927,-0.9316,-0.9927,-1.0127,-1.0187,-1.0474,-1.0624,-1.0624,0.0,0.0,0.0,-1.2082,-1.2853,-1.3171,-1.1414,-1.2307,-1.3233,-1.2088,-1.1779,-1.2134,-1.3361,-1.302,-1.2979,-1.4587,-1.6606,-1.8144,-1.8494,-1.8281,-1.8301,-1.9131,-1.8896,-1.8789,-1.9209,-1.9277,-1.9287,-1.9287,-1.9307,-1.9482,-1.9883,-1.957,-1.9707,-2.0527,-2.0195,-2.0176,-2.0586,-2.0625,-2.0625,-2.0596,-2.1475,-2.2324,-2.3135,-2.3135,-2.3135,-2.3135,-2.3135,-2.3135,-2.3135,-2.3135,-2.3379,-2.3789,-2.4228,-2.4658,-2.5088,-2.5557,-2.5986,-2.6406,-2.6826,-2.6973,-2.707,0.0,0.0,0.0,0.0,0.0,0.0,0.0,0.0,0.0,0.0,0.0,0.0,0.0,-0.5492,-0.5977,-0.6249,-0.7176,0.0,0.0,0.0,0.0,0.0,0.0,0.0,0.0,0.0,0.0,0.0,0.0,-1.0624,-1.0624,-1.0624,-1.0624,-1.0624,-1.0624,-1.0301,-0.9786,-0.9786,0.0,-0.9556,-0.9057,-0.8896,-0.8968,-0.8909,-0.8743,-0.8596,-0.9106,-0.9493,-0.9833,-1.0047,-0.9871,-0.9718,-1.0395,-1.0238,-0.9849,-1.0428,-1.117,-1.174,-1.1305,-1.214,-1.3008,-1.2099,-1.2553,-1.3161,-1.3002,-1.236,-1.1987,-1.2567,-1.2523,-1.2611,-1.3395,-1.4656,-1.5968,-1.713,-1.7017,-1.7156,-1.8309,-1.833,-1.8291,-1.8447,-1.8467,-1.8467,-1.8467,-1.8711,-1.9053,-1.9482,-1.9619,-1.9941,-2.0537,-2.042,-2.041,-2.0557,-2.0566,-2.084,-2.1406,-2.1728,-2.2305,-2.3135,-2.3135,-2.3135,-2.3135,-2.3135,-2.3135,-2.3135,-2.3135,-2.3232,-2.3428,-2.4131,-2.4512,-2.4717,-2.5449,-2.583,-2.5986,-2.6143,-2.6377,-2.6699,0.0,0.0,0.0,0.0,0.0,0.0,0.0,0.0,0.0,0.0,0.0,0.0,0.0,0.0,-0.5269,-0.5487,-0.6698,-0.7703,-0.8381,0.0,0.0,0.0,0.0,0.0,0.0,0.0,0.0,0.0,0.0,0.0,0.0,-1.0624,-1.0624,-1.0624,-1.0624,-1.0301,0.0,-0.9722,-0.9722,-0.9627,-0.8751,-0.8686,-0.9079,-0.8597,-0.854,-0.8783,-0.9195,-0.944,-0.9601,-0.9601,-0.9175,-0.8834,-0.9806,-0.9901,-0.9849,-1.0428,-1.0989,-1.1331,-1.0989,-1.1931,-1.283,-1.2329,-1.2995,-1.3647,-1.3251,-1.2875,-1.2506,-1.2112,-1.2165,-1.2213,-1.2225,-1.2709,-1.3696,-1.5521,-1.5995,-1.6407,-1.7244,-1.7697,-1.8008,-1.8008,-1.8008,-1.8008,-1.8008,-1.8262,-1.8603,-1.9043,-1.9326,-1.9736,-2.0312,-2.0352,-2.041,-2.0634,-2.0566,-2.0986,-2.1875,-2.1885,-2.2305,-2.3135,-2.3135,-2.3135,-2.3135,-2.3135,-2.3135,-2.3135,-2.3135,-2.3135,-2.3203,-2.4062,-2.4414,-2.4502,-2.5391,-2.5742,-2.5771,-2.6064,-2.626,-2.6494,0.0,0.0,0.0,0.0,0.0,0.0,0.0,0.0,0.0,-0.4519,0.0,0.0,0.0,0.0,0.0,-0.5449,-0.6398,-0.7165,-0.7711,-0.7747,0.0,0.0,0.0,0.0,0.0,0.0,0.0,0.0,0.0,0.0,0.0,0.0,-1.0624,-1.0624,-1.0624,-1.0624,-1.0624,-1.0561,-1.0568,-1.0395,-0.8342,-0.8526,-0.9739,-0.7065,-0.7553,-0.9479,-0.8768,-0.8534,-0.8539,-0.8545,-0.808,-0.7649,-0.8682,-0.9693,-1.0624,-1.0631,-1.0638,-1.0759,0.0,0.0,0.0,-1.2066,-1.3588,-1.4681,-1.2706,-1.3256,-1.3674,-1.2135,-1.1779,-1.1633,-1.1118,-1.0813,-1.1369,-1.3811,-1.5221,-1.6087,-1.6096,-1.7167,-1.8008,-1.8008,-1.8008,-1.8008,-1.8008,-1.8008,-1.8184,-1.8603,-1.8582,-1.9023,-1.9863,-1.9922,-2.0127,-2.0557,-2.0576,-2.1006,-2.1875,-2.1894,-2.2324,-2.3135,-2.3135,-2.3135,-2.3135,-2.3135,-2.3135,-2.3135,-2.3135,-2.3135,-2.3203,-2.4053,-2.4404,-2.4502,-2.5381,-2.5723,-2.584,-2.6689,-2.6748,-2.6582,0.0,0.0,0.0,0.0,0.0,0.0,0.0,0.0,-0.4519,0.0,0.0,0.0,-0.4626,-0.4724,-0.5085,-0.578,-0.67,-0.7465,-0.8155,-0.8795,-0.9262,-0.9439,-0.8852,0.0,0.0,0.0,0.0,0.0,0.0,0.0,0.0,0.0,0.0,0.0,-1.0624,-1.0624,-1.0561,-0.9919,-0.9768,-0.9831,-0.8838,-0.8493,-0.851,-0.7838,-0.7181,-0.6698,-0.7041,-0.7319,-0.7553,-0.7656,-0.722,-0.6897,-0.7927,-0.933,-1.0665,-1.0815,-1.0875,-1.0955,-1.1323,0.0,0.0,0.0,0.0,0.0,-1.3172,-1.2941,-1.2554,-1.1941,-1.146,-1.1268,-1.1502,-1.1038,-1.1045,-1.2264,-1.3818,-1.5111,-1.5993,-1.7167,-1.8008,-1.8008,-1.8008,-1.8008,-1.8008,-1.8008,-1.8184,-1.8603,-1.8926,-1.9346,-1.9883,-2.0215,-2.0439,-2.0634,-2.0879,-2.1318,-2.1875,-2.2187,-2.2607,-2.3135,-2.3135,-2.3135,-2.3135,-2.3135,-2.3135,-2.3135,-2.3135,-2.3135,-2.3184,-2.374,-2.4141,-2.4473,-2.5039,-2.5449,-2.5801,-2.6357,-2.668,-2.6934,0.0,0.0,0.0,0.0,0.0,0.0,0.0,0.0,0.0,0.0,0.0,0.0,-0.4779,-0.4918,-0.5105,-0.5521,-0.6055,-0.6666,-0.7359,-0.7892,-0.831,-0.861,-0.8128,-0.793,0.0,0.0,0.0,0.0,0.0,0.0,0.0,0.0,0.0,0.0,0.0,0.0,-1.0561,-1.0047,-0.975,-0.945,-0.8606,-0.8282,-0.8259,-0.7549,-0.7059,-0.6783,-0.6809,-0.6815,-0.6766,-0.6705,-0.6576,-0.6706,-0.7787,-0.9137,-1.0416,-1.0989,-1.1176,-1.1236,-1.153,-1.161,-1.1749,-1.2365,0.0,0.0,-1.3137,-1.3119,-1.2827,-1.2187,-1.2205,-1.2248,-1.1864,-1.1717,-1.1832,-1.2453,-1.383,-1.4946,-1.5296,-1.608,-1.6961,-1.791,-1.7295,-1.7157,-1.794,-1.7647,-1.7751,-1.8533,-1.9043,-1.9551,-2.0156,-2.043,-2.0566,-2.0566,-2.0996,-2.1357,-2.1611,-2.2217,-2.2637,-2.2881,-2.3057,-2.3135,-2.3135,-2.3135,-2.3135,-2.3135,-2.3135,-2.3135,-2.3174,-2.3613,-2.4033,-2.4482,-2.5098,-2.5615,-2.6064,-2.6494,-2.6924,-2.7344,0.0,0.0,0.0,0.0,0.0,0.0,0.0,0.0,0.0,0.0,-0.4728,-0.4799,-0.4952,-0.5081,-0.5104,-0.4979,-0.5161,-0.5501,-0.6092,-0.6206,-0.6506,-0.7169,-0.7084,-0.7157,0.0,0.0,0.0,0.0,0.0,0.0,0.0,0.0,0.0,0.0,0.0,0.0,-1.0624,-1.0624,-1.0091,-0.9122,-0.8111,-0.8133,-0.8533,-0.6681,-0.6904,-0.8021,-0.712,-0.6542,-0.6125,-0.5784,-0.6153,-0.685,-0.7912,-0.8981,-1.0018,-1.1162,-1.145,-1.1496,-1.183,-1.1917,-1.1911,-1.1877,-1.2228,0.0,-1.2664,-1.3395,-1.3813,-1.2668,-1.3417,-1.3839,-1.2437,-1.2693,-1.3293,-1.3735,-1.4705,-1.5136,-1.4469,-1.479,-1.5762,-1.7609,-1.6367,-1.6088,-1.7794,-1.7139,-1.7158,-1.8523,-1.9082,-1.9707,-2.0527,-2.0566,-2.0566,-2.0566,-2.0996,-2.126,-2.1309,-2.2109,-2.2539,-2.2588,-2.2959,-2.3135,-2.3135,-2.3135,-2.3135,-2.3135,-2.3135,-2.3164,-2.3242,-2.3682,-2.4082,-2.4492,-2.5332,-2.5957,-2.6435,-2.6865,-2.7295,-2.7725,0.0,0.0,0.0,0.0,0.0,0.0,0.0,0.0,0.0,-0.4874,-0.4972,-0.5104,-0.526,-0.5301,-0.5304,-0.5277,-0.6066,-0.6613,-0.6714,-0.7375,-0.7839,-0.7971,-0.7214,-0.6823,-0.6858,0.0,0.0,0.0,0.0,0.0,0.0,0.0,0.0,0.0,0.0,0.0,-1.0624,-1.0624,-0.997,-0.8865,-0.8772,-0.8635,-0.827,-0.6611,-0.5697,-0.5266,-0.5068,-0.493,-0.4905,-0.5047,-0.5829,-0.6876,-0.8031,-0.8832,-0.9742,-1.1362,-1.1617,-1.1543,-1.2071,-1.2218,-1.2164,-1.1924,-1.1965,0.0,-1.1736,-1.2579,-1.3344,-1.2887,-1.3727,-1.4612,-1.4757,-1.4384,-1.4281,-1.4994,-1.4815,-1.4578,-1.4605,-1.6215,-1.7269,-1.6913,-1.6567,-1.6784,-1.7872,-1.7139,-1.7158,-1.8523,-1.9355,-2.0019,-2.0537,-2.0566,-2.0566,-2.0566,-2.0996,-2.1406,-2.1758,-2.2256,-2.2685,-2.3018,-2.3096,-2.3135,-2.3135,-2.3135,-2.3135,-2.3135,-2.3135,-2.334,-2.3691,-2.4121,-2.4346,-2.4473,-2.499,-2.5684,-2.6435,-2.6865,-2.7295,-2.7725,0.0,0.0,0.0,0.0,0.0,0.0,0.0,0.0,-0.505,-0.5128,-0.5332,-0.5494,-0.5572,-0.5583,-0.5583,-0.5583,-0.6058,-0.6382,-0.6382,-0.6732,-0.6969,-0.6886,-0.6451,-0.6097,-0.6075,0.0,0.0,0.0,0.0,0.0,0.0,0.0,0.0,0.0,0.0,0.0,-0.9137,-0.9344,-0.9117,-0.875,-0.8896,-0.8746,-0.827,-0.7195,-0.6365,-0.5865,-0.5381,-0.5015,-0.4738,-0.5036,-0.5982,-0.7219,-0.828,-0.9295,-1.0317,-1.1735,-1.1977,-1.1924,-1.2225,-1.2305,-1.2231,-1.1944,-1.187,0.0,0.0,-1.2376,-1.293,-1.252,-1.3834,-1.4962,-1.4837,-1.5201,-1.5735,-1.6337,-1.6104,-1.5699,-1.5221,-1.5426,-1.5869,-1.654,-1.572,-1.5869,-1.7794,-1.7139,-1.7241,-1.8835,-1.9756,-2.0332,-2.0557,-2.0566,-2.0664,-2.0889,-2.1113,-2.1445,-2.1885,-2.1684,-2.171,-2.1917,-2.1496,-2.1587,-2.2217,-2.1587,-2.1667,-2.2129,-2.1587,-2.1428,-2.1753,-2.301,-2.3467,-2.3626,-2.4946,-2.5937,-2.6728,-2.6934,-2.7422,-2.8008,0.0,0.0,0.0,0.0,0.0,0.0,0.0,0.0,-0.5274,-0.5426,-0.563,-0.5762,-0.5766,-0.5739,-0.5732,-0.5834,-0.584,-0.5789,-0.584,-0.5895,-0.5827,-0.5637,-0.563,-0.5559,-0.541,0.0,0.0,0.0,0.0,0.0,0.0,0.0,0.0,0.0,0.0,-0.9086,-0.783,-0.8092,-0.8308,-0.8457,-0.8737,-0.8612,-0.8082,-0.735,-0.7,-0.6787,-0.6061,-0.5415,-0.4999,-0.527,-0.6078,-0.7174,-0.8443,-0.9547,-1.066,-1.189,-1.2265,-1.2231,-1.2285,-1.2305,-1.2171,-1.1788,-1.1807,-1.1959,0.0,0.0,0.0,-1.2402,-1.3876,-1.5085,-1.4422,-1.5629,-1.6792,-1.7052,-1.7309,-1.7081,-1.5842,-1.4624,-1.4611,-1.6307,-1.5166,-1.5292,-1.8025,-1.7665,-1.7834,-1.9282,-1.9965,-2.0401,-2.0566,-2.0401,-2.0566,-2.1094,-2.0864,-2.1015,-2.1524,-2.0711,-2.0323,-2.0474,-1.9799,-2.0034,-2.0935,-1.9943,-2.0034,-2.0935,-1.9943,-1.953,-1.9737,-2.1541,-2.2262,-2.2491,-2.4522,-2.5843,-2.6583,-2.6266,-2.6903,-2.7843,-0.4546,-0.4585,0.0,0.0,0.0,0.0,0.0,0.0,-0.5589,-0.5732,-0.5671,-0.562,-0.57,-0.5579,-0.562,-0.5974,-0.5856,-0.582,-0.5986,-0.6113,-0.6101,-0.5779,-0.5776,-0.5708,-0.5566,0.0,0.0,0.0,0.0,0.0,0.0,0.0,0.0,0.0,-0.9355,-0.9219,-0.828,-0.822,-0.8066,-0.7856,-0.8174,-0.7913,-0.7306,-0.5895,-0.5353,-0.5335,-0.5125,-0.5044,-0.5131,-0.5304,-0.5609,-0.6143,-0.8365,-0.8959,-0.9275,-1.1627,-1.2118,-1.1977,-1.2231,-1.2305,-1.207,-1.1125,-1.1575,-1.2004,-1.1114,0.0,-1.3554,-1.3509,0.0,-1.518,-1.511,0.0,0.0,-1.6151,-1.712,-1.7484,-1.6066,-1.6049,-1.6201,-1.6246,-1.6266,-1.7058,-1.899,-1.9399,-1.9577,-1.9834,-1.9425,-1.9599,-2.0566,-1.9678,-1.9627,-2.0644,-1.9752,-1.9543,-2.0196,-1.9136,-1.8971,-1.9612,-1.9563,-1.9579,-1.967,-1.9579,-1.9579,-1.967,-1.9579,-1.967,-2.0085,-2.0595,-2.105,-2.1573,-2.3215,-2.4381,-2.4873,-2.3702,-2.4506,-2.6381,-0.4666,-0.4785,0.0,0.0,0.0,0.0,0.0,0.0,-0.5867,-0.5925,-0.5959,-0.6017,-0.6039,-0.5992,-0.5638,-0.4856,-0.5555,-0.6082,-0.6023,-0.62,-0.6154,-0.5932,-0.5932,-0.5864,-0.5715,-0.5711,0.0,0.0,-0.5853,0.0,0.0,0.0,0.0,0.0,-0.8236,-0.7748,-0.6631,-0.6765,-0.6772,-0.6734,-0.6881,-0.6857,-0.6802,-0.689,-0.6506,-0.594,-0.528,-0.5081,-0.5142,-0.5206,-0.584,-0.678,-0.778,-0.8515,-0.9201,-1.0289,-1.0502,-1.0438,-1.0548,-1.0571,-1.0571,-1.0789,-1.1087,-1.1465,-1.162,-1.2285,-1.2879,-1.2879,0.0,0.0,0.0,0.0,0.0,0.0,-1.7241,-1.7762,-1.7053,-1.7398,-1.7543,-1.6858,-1.6902,-1.7583,-1.9156,-1.9668,-1.9912,-1.9912,-2.0157,-2.0356,-2.0576,-2.0407,-2.0575,-2.1328,-2.0003,-1.9695,-2.07,-1.8643,-1.7913,-1.8411,-1.7669,-1.7762,-1.8411,-1.7669,-1.7762,-1.8411,-1.7669,-1.7574,-1.7993,-1.9082,-1.9716,-2.0161,-2.1014,-2.2208,-2.3483,-2.2961,-2.3528,-2.482,-0.4826,0.0,0.0,0.0,0.0,0.0,0.0,-0.5864,-0.6044,-0.6091,-0.6159,-0.6264,-0.6275,-0.6139,-0.5199,-0.3044,-0.4782,-0.5841,-0.5274,-0.5908,-0.623,-0.6068,-0.6108,-0.6003,-0.5882,-0.5844,-0.5864,0.0,0.0,0.0,0.0,0.0,0.0,0.0,-0.7384,-0.6773,-0.5555,-0.5728,-0.5844,-0.5911,-0.5949,-0.6122,-0.6457,-0.7301,-0.7082,-0.6324,-0.5487,-0.523,-0.5199,-0.5243,-0.5966,-0.694,-0.7271,-0.8029,-0.8922,-0.9221,-0.9296,-0.9296,-0.9296,-0.9296,-0.9458,-1.0273,-1.0686,-1.1049,-1.1891,-1.2254,-1.2452,-1.2532,-1.2993,0.0,0.0,0.0,-1.5756,-1.5652,0.0,-1.7343,-1.7388,-1.7977,-1.8169,-1.7714,-1.7963,-1.8488,-1.936,-1.9844,-2.0088,-2.0088,-2.0466,-2.0755,-2.0762,-2.0581,-2.0696,-2.1349,-1.96,-1.9127,-2.0124,-1.7727,-1.6798,-1.7131,-1.6197,-1.6292,-1.7131,-1.6197,-1.6292,-1.7131,-1.6197,-1.5999,-1.639,-1.7647,-1.8353,-1.868,-1.8993,-2.0031,-2.1579,-2.1579,-2.2229,-2.3151,-0.5165,-0.5068,-0.5131,-0.5131,-0.5257,0.0,-0.5749,-0.5928,-0.6088,-0.6251,-0.6142,-0.6049,-0.6315,-0.5761,-0.4033,-0.0468,-0.3391,-0.477,-0.3312,-0.5108,-0.6309,-0.6293,-0.6264,-0.6194,-0.5974,-0.6029,-0.6023,-0.6023,0.0,0.0,0.0,0.0,0.0,0.0,-0.7131,-0.69,-0.6,-0.5861,-0.5725,-0.5616,-0.5752,-0.5905,-0.604,-0.602,-0.5906,-0.5648,-0.5576,-0.5481,-0.5376,-0.5525,-0.5674,-0.6039,-0.7135,-0.7622,-0.8012,-0.8998,-0.9296,-0.9296,-0.9296,-0.9296,-0.9347,-0.9637,-1.0291,-1.0994,-1.1599,-1.2304,-1.2896,-1.312,-1.3017,-1.2808,-1.2808,-1.3372,-1.3641,-1.3264,-1.4585,0.0,0.0,-1.727,-1.8046,-1.8813,-1.9856,-2.0342,-1.9932,-2.0283,-2.0547,-2.0547,-1.9962,-2.0123,-2.1131,-1.9486,-1.8999,-2.0036,-1.7873,-1.6825,-1.7168,-1.6021,-1.5631,-1.5825,-1.5825,-1.5825,-1.5825,-1.5825,-1.5825,-1.5832,-1.5825,-1.5999,-1.6293,-1.6686,-1.6982,-1.7277,-1.7573,-1.8057,-1.8594,-1.8594,-1.9948,-2.1699,0.0,-0.5534,-0.5493,-0.5454,-0.5555,-0.5722,-0.5922,-0.6091,-0.6251,-0.6324,-0.6222,-0.6211,-0.6312,-0.6087,-0.4343,-0.0321,-0.1145,-0.214,-0.2796,-0.2375,-0.3395,-0.6154,-0.5405,-0.5323,-0.6205,-0.6187,-0.6183,-0.6183,-0.6132,0.0,0.0,0.0,0.0,0.0,-0.6468,-0.6325,-0.6027,-0.5976,-0.5986,-0.6047,-0.619,-0.6274,-0.6291,-0.5993,-0.5881,-0.5867,-0.5766,-0.5694,-0.5661,-0.5711,-0.583,-0.6036,-0.6378,-0.6659,-0.6872,-0.7253,-0.7326,-0.7326,-0.7326,-0.7326,-0.7521,-0.8396,-0.8779,-0.9184,-1.0124,-1.0536,-1.0982,-1.1878,-1.134,-1.1146,-1.2542,-1.2845,-1.2945,-1.341,-1.4662,-1.5806,0.0,-1.6962,-1.7785,-1.885,-1.9923,-2.0508,-2.0361,-2.0478,-2.0566,-2.0566,-2.0639,-2.0809,-2.115,-2.0089,-1.9812,-2.0413,-1.8137,-1.707,-1.742,-1.6234,-1.5732,-1.5832,-1.5832,-1.5832,-1.5832,-1.5832,-1.5832,-1.5832,-1.5832,-1.6106,-1.6567,-1.6667,-1.6994,-1.7442,-1.7542,-1.7956,-1.849,-1.849,-1.919,-2.0148,-0.5748,-0.5478,-0.5322,-0.5644,-0.5796,-0.5865,-0.6016,-0.6177,-0.6337,-0.6329,-0.6263,-0.5767,-0.4249,-0.4097,-0.2937,-0.025,0.0,-0.0458,-0.1666,-0.068,-0.1199,-0.3921,-0.3934,-0.458,-0.6296,-0.628,-0.6273,-0.6263,-0.6318,-0.6264,0.0,0.0,0.0,0.0,-0.621,-0.6129,-0.6034,-0.6088,-0.6105,-0.6112,-0.6257,-0.6349,-0.6366,-0.6074,-0.6027,-0.6091,-0.5939,-0.5847,-0.58,-0.58,-0.5901,-0.603,-0.603,-0.6135,-0.6338,-0.6338,-0.6338,-0.6338,-0.6338,-0.6338,-0.6602,-0.777,-0.7998,-0.8269,-0.9653,-0.9841,-1.005,-1.0941,-1.0474,-1.0217,-1.148,-1.1775,-1.2075,-1.2682,-1.3887,-1.5087,0.0,-1.6789,-1.7577,-1.831,-1.9036,-1.959,-2.0001,-1.9729,-1.9916,-2.0576,-2.0703,-2.0948,-2.1384,-2.0298,-1.9817,-2.0289,-1.7879,-1.6722,-1.7037,-1.6204,-1.5832,-1.5832,-1.5832,-1.5832,-1.5832,-1.5832,-1.5832,-1.5832,-1.5832,-1.6159,-1.6707,-1.6707,-1.7054,-1.7582,-1.7582,-1.7956,-1.849,-1.849,-1.8865,-1.9379,-0.5593,-0.4866,-0.4701,-0.5842,-0.5983,-0.6043,-0.6028,-0.6019,-0.6091,-0.6244,-0.6263,-0.4685,-0.0435,0.0,0.0,0.0,0.0,0.0,0.0,0.0,0.0,0.0,-0.1891,-0.3898,-0.595,-0.6094,-0.6156,-0.6129,-0.628,-0.6271,0.0,0.0,0.0,0.0,-0.6403,-0.6305,-0.6051,-0.62,-0.6091,-0.5837,-0.5983,-0.6132,-0.6271,-0.6264,-0.6342,-0.6251,-0.6098,-0.5945,-0.5823,-0.5823,-0.5922,-0.604,-0.604,-0.6142,-0.6338,-0.6338,-0.6338,-0.6338,-0.6338,-0.6338,-0.6602,-0.7774,-0.7922,-0.8164,-0.9863,-1.0008,-0.9836,-1.0211,-1.0178,-0.997,-0.9716,-1.0339,-1.0962,-1.1212,-1.2315,-1.3815,-1.5449,-1.6519,-1.7172,-1.7172,-1.718,-1.7577,-1.8798,-1.8232,-1.8538,-2.0352,-2.0162,-2.0541,-2.1802,-1.9999,-1.9036,-1.948,-1.7117,-1.5832,-1.5832,-1.5832,-1.5832,-1.5832,-1.5832,-1.5832,-1.5832,-1.5832,-1.5832,-1.5832,-1.5845,-1.6179,-1.6707,-1.672,-1.7061,-1.7582,-1.7602,-1.7976,-1.851,-1.8531,-1.8891,-1.9412,-0.3465,-0.4833,-0.5821,-0.6169,-0.6212,-0.6248,-0.6198,-0.3602,-0.2766,-0.5866,-0.6322,-0.4704,-0.0445,0.0,0.0,0.0,0.0,0.0,0.0,0.0,0.0,0.0,-0.0542,-0.1084,-0.1601,-0.364,-0.4456,-0.3925,-0.5493,-0.6268,-0.6274,0.0,0.0,0.0,-0.6298,-0.6274,-0.6203,-0.6244,-0.6213,-0.6146,-0.6186,-0.6288,-0.6407,-0.6302,-0.6325,-0.6396,-0.6254,-0.6176,-0.6142,-0.6142,-0.6169,-0.6203,-0.6203,-0.623,-0.6338,-0.6338,-0.6338,-0.6338,-0.6338,-0.6338,-0.6373,-0.6831,-0.6918,-0.6951,-0.7518,-0.7544,-0.7769,-0.8708,-0.8234,-0.804,-0.9555,-0.938,-0.946,-1.1147,-1.2593,-1.3974,-1.5479,-1.522,-1.5228,-1.6034,-1.5387,-1.5636,-1.7577,-1.7588,-1.801,-1.9283,-1.9579,-2.0329,-2.1783,-1.9999,-1.9036,-1.948,-1.7117,-1.5832,-1.5832,-1.5832,-1.5832,-1.5832,-1.5832,-1.5832,-1.5832,-1.5832,-1.5832,-1.5838,-1.6059,-1.6366,-1.6727,-1.6947,-1.7255,-1.7602,-1.7836,-1.829,-1.8838,-1.9058,-1.9239,-1.9412,-0.2662,-0.4844,-0.6288,-0.6339,-0.6338,-0.6303,-0.6296,-0.2703,-0.0859,-0.3255,-0.353,-0.266,-0.0269,0.0,0.0,0.0,0.0,0.0,0.0,0.0,0.0,0.0,0.0,0.0,0.0,-0.1567,-0.3102,-0.4691,-0.4822,-0.5449,-0.6363,0.0,0.0,0.0,-0.6396,-0.6417,-0.6352,-0.6352,-0.6352,-0.6346,-0.6285,-0.6308,0.0,-0.6291,-0.6312,-0.6369,-0.6288,-0.6338,-0.6349,-0.6332,-0.6352,-0.6366,-0.643,-0.6407,-0.6352,-0.6352,-0.6312,-0.6338,-0.6338,-0.6338,-0.6281,-0.6359,-0.638,-0.642,-0.6566,-0.6654,-0.6843,-0.7415,-0.7112,-0.7065,-0.8129,-0.8218,-0.8923,-1.1305,-1.2877,-1.4137,-1.4873,-1.4489,-1.4328,-1.4894,-1.4496,-1.458,-1.5794,-1.6005,-1.6747,-1.8318,-1.8252,-1.8768,-2.0458,-1.8871,-1.8166,-1.8664,-1.6978,-1.5965,-1.5832,-1.5959,-1.5959,-1.5832,-1.5832,-1.5832,-1.5832,-1.5832,-1.5832,-1.5845,-1.6146,-1.644,-1.6727,-1.7027,-1.7402,-1.7829,-1.8263,-1.8631,-1.8958,-1.9259,-1.9446,-1.9599,-0.2209,-0.4608,-0.6292,-0.6331,-0.6291,-0.6294,-0.6315,-0.271,0.0,0.0,0.0,0.0,0.0,0.0,0.0,0.0,0.0,0.0,0.0,0.0,0.0,0.0,0.0,0.0,0.0,0.0,-0.1932,-0.5793,-0.4329,-0.4585,0.0,0.0,0.0,0.0,-0.6556,-0.6586,-0.6444,-0.6464,-0.6461,-0.6434,-0.6312,-0.6338,-0.6338,-0.6338,-0.6338,-0.6338,-0.6338,-0.6338,-0.6281,-0.6424,-0.6471,-0.6498,-0.6654,-0.661,-0.6502,-0.6502,-0.6417,-0.6315,-0.6295,-0.6302,-0.6315,-0.6295,-0.6302,-0.6349,-0.6474,-0.6607,-0.6664,-0.6529,-0.6715,-0.6787,-0.6417,-0.7435,-0.9,-1.1122,-1.2853,-1.3866,-1.3822,-1.3997,-1.4088,-1.4088,-1.3997,0.0,-1.4088,-1.4315,-1.5319,-1.7459,-1.6738,-1.6921,-1.8668,-1.7447,-1.7056,-1.7602,-1.6717,-1.6112,-1.5885,-1.6106,-1.6106,-1.5885,-1.5845,-1.5832,-1.5832,-1.5832,-1.5832,-1.5845,-1.6186,-1.6473,-1.6734,-1.7068,-1.7562,-1.8163,-1.8711,-1.8945,-1.9011,-1.9272,-1.9553,-1.9846,0.0576,-0.3497,-0.6263,-0.6313,-0.6273,-0.6331,-0.6281,-0.2685,0.0,0.0,0.0,0.0,0.0,0.0,0.0,0.0,0.0,0.0,0.0,0.0,0.0,0.0,0.0,0.0,0.0,0.0,-0.0388,-0.1169,-0.4438,-0.6238,0.0,0.0,0.0,0.0,-0.6488,-0.643,-0.6305,-0.6424,-0.6407,-0.6295,-0.6271,-0.6338,-0.6338,-0.6338,-0.6338,-0.6338,-0.6338,-0.6338,-0.6281,-0.6424,-0.6471,-0.6498,-0.6654,-0.6681,-0.6661,-0.6661,-0.6644,-0.6597,-0.6471,-0.6525,-0.6593,-0.6468,-0.6529,-0.663,-0.6654,-0.6681,-0.6695,-0.6664,-0.6705,-0.6756,-0.6803,-0.777,-0.8789,-0.9325,-1.1117,-1.2523,-1.2565,-1.347,-1.4088,-1.4088,-1.3209,-1.3027,-1.3997,-1.4135,-1.4753,-1.6252,-1.6609,-1.7162,-1.8411,-1.7869,-1.743,-1.7251,-1.639,-1.5999,-1.6192,-1.6005,-1.6005,-1.6192,-1.5945,-1.5832,-1.5832,-1.5832,-1.5832,-1.5858,-1.6393,-1.666,-1.6747,-1.7281,-1.7862,-1.8444,-1.8791,-1.9078,-1.9299,-1.9352,-1.9553,-1.9846,0.1102,-0.155,-0.3762,-0.5948,-0.634,-0.5574,-0.3339,-0.1269,0.0,0.0,0.0,0.0,0.0,0.0,0.0,0.0,0.0,0.0,0.0,0.0,0.0,0.0,0.0,0.0,0.0,0.0,0.0,-0.0,-0.2097,-0.4386,0.0,-0.6603,-0.6565,-0.6471,-0.6471,-0.6434,-0.6376,-0.6444,-0.6434,-0.6369,-0.6369,-0.6325,-0.6271,-0.6342,-0.6325,-0.6338,-0.6338,-0.6308,-0.6393,-0.6539,-0.659,-0.663,-0.6858,-0.6878,-0.6817,-0.6817,-0.6763,-0.6685,-0.661,-0.6644,-0.6681,-0.661,-0.6647,-0.6702,-0.6702,-0.6763,-0.6797,-0.6715,-0.6763,-0.6841,-0.6915,-0.7854,-0.8756,-0.886,-1.0272,-1.1516,-1.2225,-1.2248,-1.2778,-1.3997,-1.3027,-1.2766,-1.3997,-1.4222,-1.462,-1.5261,-1.5644,-1.6087,-1.661,-1.6533,-1.6444,-1.6281,-1.6096,-1.6052,-1.6046,-1.6052,-1.6052,-1.6039,-1.5899,-1.5832,-1.5832,-1.5832,-1.5912,-1.6086,-1.6513,-1.6794,-1.6994,-1.7742,-1.8317,-1.8744,-1.9038,-1.9239,-1.9366,-1.9366,-1.9646,-2.0047,0.2364,0.1163,-0.0182,-0.3554,-0.4196,-0.3288,-0.0457,0.0,0.0,0.0,0.0,0.0,0.0,0.0,0.0,0.0,0.0,0.0,0.0,0.0,0.0,0.0,0.0,0.0,0.0,0.0,0.0,-0.0,-0.0469,-0.2475,-0.6025,-0.644,-0.6576,-0.6525,-0.6522,-0.6488,-0.6434,-0.6461,-0.6471,-0.6471,-0.6437,-0.638,-0.6315,-0.6396,-0.6359,-0.6342,-0.6295,-0.6359,-0.6454,-0.6637,-0.6722,-0.6797,-0.7058,-0.7065,-0.6973,-0.6973,-0.6888,-0.6787,-0.6756,-0.677,-0.6787,-0.6756,-0.677,-0.6793,-0.6793,-0.6888,-0.6939,-0.6817,-0.6892,-0.6973,-0.6973,-0.7707,-0.8333,-0.8511,-0.9456,-1.0555,-1.1461,-1.1042,-1.13,-1.313,-1.2339,-1.2077,-1.3215,-1.369,-1.3956,-1.4161,-1.4701,-1.499,-1.5057,-1.5277,-1.5398,-1.5398,-1.5905,-1.6092,-1.5925,-1.6092,-1.6092,-1.5925,-1.5858,-1.5832,-1.5832,-1.5832,-1.5992,-1.6286,-1.658,-1.6947,-1.7402,-1.8237,-1.8718,-1.8951,-1.9252,-1.9366,-1.9372,-1.9432,-1.9746,-2.0154,0.7005,0.5134,0.3495,0.3115,0.2798,0.2042,0.0283,0.0,0.0,0.0,0.0,0.0,0.0,0.0,0.0,0.0,0.0,0.0,0.0,0.0,0.0,0.0,0.0,0.0,0.0,0.0,0.0,-0.0,-0.1861,-0.303,-0.353,-0.5732,-0.6746,-0.6781,-0.6685,-0.6536,-0.6305,-0.6424,-0.6471,-0.6461,-0.6332,-0.6349,-0.6441,-0.6325,-0.6274,-0.6278,-0.6407,-0.638,-0.6325,-0.6607,-0.6793,-0.6936,-0.7092,-0.7132,-0.7122,-0.7122,-0.7109,-0.7071,-0.6943,-0.7,-0.7068,-0.6939,-0.7004,-0.7099,-0.7099,-0.7109,-0.7115,-0.7102,-0.7109,-0.7122,-0.7122,-0.7101,-0.7146,-0.7204,-0.8143,-0.8948,-0.9209,-1.0009,-1.0697,-1.0869,-0.9927,-0.9666,-1.0783,-1.1442,-1.2152,-1.2909,-1.4237,-1.5077,-1.5344,-1.5384,-1.5398,-1.5398,-1.5705,-1.5985,-1.6226,-1.5992,-1.5992,-1.6226,-1.5959,-1.5832,-1.5832,-1.5832,-1.5992,-1.6286,-1.658,-1.7188,-1.8009,-1.8631,-1.8898,-1.8951,-1.9252,-1.9366,-1.9399,-1.9659,-1.9793,-1.992,0.7299,0.687,0.6341,0.6187,0.6175,0.5797,0.4422,0.1881,0.0,0.0,0.0,0.0,0.0,0.0,0.0,0.0,0.0,0.0,0.0,0.0,0.0,0.0,0.0,0.0,0.0,0.0,0.0,-0.0,-0.0813,-0.2567,-0.5064,-0.5999,-0.6624,-0.6711,-0.5633,-0.5574,-0.6281,-0.6325,-0.6393,-0.6474,-0.6512,-0.6559,-0.6603,-0.6546,-0.6525,-0.6519,-0.6485,-0.6556,-0.6678,-0.6797,-0.6817,-0.6817,-0.6966,-0.7071,-0.7139,-0.7139,-0.7139,-0.7129,-0.7071,-0.7099,-0.7126,-0.7068,-0.7099,-0.7139,-0.7139,-0.7139,-0.7139,-0.7139,-0.7139,-0.7139,-0.7139,-0.7095,-0.7075,-0.7132,-0.7435,-0.8024,-0.879,-0.8711,-0.9052,-1.0438,-0.9579,-0.9323,-1.0524,-1.1105,-1.1882,-1.2968,-1.4558,-1.5384,-1.515,-1.5471,-1.5578,-1.5404,-1.5678,-1.5885,-1.6005,-1.5885,-1.5885,-1.6005,-1.5885,-1.5925,-1.6092,-1.6092,-1.6353,-1.6827,-1.7301,-1.7816,-1.8343,-1.8758,-1.9025,-1.9199,-1.9319,-1.9472,-1.9639,-1.976,-2.002,-2.0361,0.733,0.7767,0.7907,0.7777,0.7866,0.7835,0.739,0.4035,0.1159,0.0096,0.0,0.0,0.0,0.0,0.0,0.0,0.0,0.0,0.0,0.0,0.0,0.0,0.0,0.0,0.0,0.0,0.0,0.0,0.0,-0.1565,-0.4477,-0.5033,-0.5907,-0.6774,-0.4826,-0.4883,-0.6295,-0.64,-0.6417,-0.6552,-0.6658,-0.6725,-0.6763,-0.6719,-0.6702,-0.6692,-0.6627,-0.6715,-0.6868,-0.6912,-0.6858,-0.6793,-0.6943,-0.7058,-0.7139,-0.7139,-0.7139,-0.7139,-0.7139,-0.7139,-0.7139,-0.7139,-0.7139,-0.7139,-0.7139,-0.7139,-0.7139,-0.7139,-0.7139,-0.7139,-0.7139,-0.7139,-0.7139,-0.7139,-0.7139,-0.7401,-0.8277,-0.7665,-0.7768,-0.9481,-0.897,-0.8794,-0.9574,-1.0334,-1.1161,-1.201,-1.3665,-1.479,-1.5231,-1.5139,-1.5061,-1.4952,-1.5139,-1.5242,-1.5242,-1.5635,-1.5832,-1.5832,-1.5919,-1.6072,-1.6279,-1.6453,-1.68,-1.7315,-1.7916,-1.8343,-1.8644,-1.8931,-1.9178,-1.9372,-1.9459,-1.9619,-1.982,-1.9993,-2.0321,-2.0688,0.7966,0.7967,0.7965,0.7962,0.7845,0.7801,0.7959,0.6332,0.3815,0.0487,0.0,0.0,0.0,0.0,0.0,0.0,0.0,0.0,0.0,0.0,0.0,0.0,0.0,0.0,0.0,0.0,0.0,0.0,0.0,-0.0,-0.0157,-0.2163,-0.4546,-0.6957,-0.4627,-0.4574,-0.6335,-0.6534,-0.6586,-0.6629,-0.6702,-0.6793,-0.6909,-0.6759,-0.6702,-0.6719,-0.6868,-0.6827,-0.6725,-0.6878,-0.6926,-0.6949,-0.7092,-0.7139,-0.7139,-0.7139,-0.7139,-0.7139,-0.7139,-0.7139,-0.7139,-0.7139,-0.7139,-0.7139,-0.7139,-0.7139,-0.7139,-0.7139,-0.7139,-0.7139,-0.7139,-0.7139,-0.7139,-0.7139,-0.7139,-0.7139,-0.7139,-0.7139,-0.7197,-0.744,-0.7461,-0.7461,-0.7458,-0.8686,-0.9443,-0.9358,-1.0808,-1.2942,-1.5609,-1.4296,-1.3608,-1.3861,-1.3872,-1.3872,-1.3872,-1.5146,-1.5832,-1.5832,-1.6126,-1.6273,-1.6293,-1.6874,-1.7301,-1.7609,-1.8223,-1.8651,-1.8945,-1.9239,-1.9366,-1.9399,-1.9686,-1.98,-1.9867,-2.0448,-2.0668,-2.0715,0.7811,0.7862,0.7862,0.7767,0.7778,0.7865,0.7828,0.7423,0.6642,0.5586,0.3866,0.2073,0.0198,0.0,0.0,0.0,0.0,0.0,0.0,0.0,0.0,0.0,0.0,0.0,0.0,0.0,0.0,0.0,0.0,0.0,-0.0,-0.0647,-0.145,-0.2224,-0.1505,-0.1498,-0.212,-0.3611,-0.5175,-0.6729,-0.6739,-0.6863,-0.7058,-0.6912,-0.6915,-0.6993,-0.6946,-0.6959,-0.7007,-0.7054,-0.7071,-0.7082,-0.7126,-0.7139,-0.7139,-0.7139,-0.7139,-0.7139,-0.7139,-0.7139,-0.7139,-0.7139,-0.7139,-0.7139,-0.7139,-0.7139,-0.7139,-0.7139,-0.7139,-0.7139,-0.7139,-0.7139,-0.7139,-0.7139,-0.7139,-0.7139,-0.7139,-0.7139,-0.7156,-0.7207,-0.7309,-0.7329,-0.7224,-0.7805,-0.8586,-0.9347,-1.0041,-1.1162,-1.2947,-1.2655,-1.2448,-1.2522,-1.2528,-1.2528,-1.2528,-1.3878,-1.4551,-1.4832,-1.5823,-1.648,-1.6887,-1.7488,-1.7809,-1.7936,-1.8531,-1.8838,-1.8945,-1.9245,-1.9366,-1.9399,-1.9686,-1.992,-2.014,-2.0535,-2.0802,-2.0982,0.7879,0.7902,0.7882,0.7794,0.7929,0.7925,0.7845,0.7905,0.7965,0.7982,0.655,0.483,0.3222,0.1185,0.0,0.0,0.0,0.0,0.0,0.0,0.0,0.0,0.0,0.0,0.0,0.0,0.0,0.0,0.0,0.0,0.0,0.0,0.0,0.0,0.0,0.0,-0.008,-0.138,-0.2808,-0.4365,-0.6159,-0.6991,-0.7054,-0.7044,-0.7061,-0.7129,-0.7041,-0.7065,-0.7139,-0.7139,-0.7139,-0.7139,-0.7139,-0.7139,-0.7139,-0.7139,-0.7139,-0.7139,-0.7139,-0.7139,-0.7139,-0.7139,-0.7139,-0.7139,-0.7139,-0.7139,-0.7139,-0.7139,-0.7139,-0.7139,-0.7139,-0.7139,-0.7139,-0.7139,-0.7139,-0.7139,-0.7139,-0.7139,-0.7163,-0.7221,-0.7363,-0.7417,-0.7322,-0.7533,-0.8026,-0.8703,-0.895,-0.9431,-1.0187,-1.0858,-1.117,-1.117,-1.117,-1.117,-1.117,-1.2522,-1.3516,-1.4359,-1.5879,-1.6914,-1.7495,-1.7876,-1.817,-1.8397,-1.8764,-1.8985,-1.9105,-1.9292,-1.9366,-1.9399,-1.9686,-1.9973,-2.0267,-2.0568,-2.0862,-2.1109,0.8038,0.7955,0.7972,0.7972,0.7972,0.7972,0.7972,0.7952,0.8045,0.7969,0.7982,0.7895,0.7711,0.3433,0.0404,0.0,0.0,0.0,0.0,0.0,0.0,0.0,0.0,0.0,0.0,0.0,0.0,0.0,0.0,0.0,0.0,0.0,0.0,0.0,0.0,0.0,0.0,0.0,0.0,-0.0421,-0.4837,-0.6811,-0.7084,-0.7061,-0.7143,-0.7139,-0.7139,-0.7143,-0.7143,-0.7143,-0.7143,-0.7143,-0.7143,-0.7143,-0.7143,-0.7139,-0.7139,-0.7139,-0.7139,-0.7139,-0.7139,-0.7143,-0.7143,-0.7143,-0.7143,-0.7143,-0.7143,-0.7143,-0.7143,-0.7143,-0.7143,-0.7143,-0.7143,-0.7143,-0.7143,-0.7139,-0.7139,-0.7139,-0.7197,-0.7353,-0.7506,-0.76,-0.76,-0.7729,-0.7756,-0.7624,-0.7736,-0.7818,-0.7828,-0.9127,-0.9899,-0.9899,-0.9899,-0.9899,-0.9899,-1.1184,-1.2573,-1.4214,-1.6088,-1.718,-1.7718,-1.7751,-1.8066,-1.8691,-1.8711,-1.899,-1.9366,-1.9366,-1.9366,-1.9399,-1.9713,-1.9993,-2.0267,-2.0588,-2.0882,-2.1109,0.8038,0.8045,0.8048,0.8048,0.8048,0.8048,0.8048,0.8041,0.8041,0.8045,0.7965,0.7263,0.5133,0.5655,0.4448,0.0404,0.0,0.0,0.0,0.0,0.0,0.0,0.0,0.0,0.0,0.0,0.0,0.0,0.0,0.0,0.0,0.0,0.0,0.0,0.0,0.0,0.0,0.0,0.0,-0.0086,-0.1238,-0.3842,-0.7084,-0.7078,-0.7068,-0.7139,-0.7139,-0.7064,-0.7078,-0.7078,-0.7084,-0.7091,-0.7091,-0.7091,-0.7084,-0.7061,-0.7139,-0.7139,-0.7139,-0.7139,-0.7143,-0.7074,-0.7084,-0.7091,-0.7091,-0.7091,-0.7091,-0.7091,-0.7091,-0.7091,-0.7091,-0.7084,-0.7078,-0.7078,-0.7064,-0.7139,-0.7139,-0.7139,-0.7197,-0.7353,-0.7506,-0.76,-0.76,-0.7729,-0.7797,-0.7763,-0.779,-0.7862,-0.798,-0.8312,-0.8432,-0.8432,-0.8432,-0.8432,-0.8432,-0.9933,-1.1475,-1.3195,-1.3981,-1.4489,-1.4614,-1.4972,-1.5772,-1.7056,-1.7377,-1.8222,-1.9366,-1.9366,-1.9366,-1.9419,-1.9927,-2.0174,-2.0294,-2.0815,-2.1049,-2.1109,0.8038,0.8038,0.8038,0.8038,0.8038,0.8038,0.8038,0.8038,0.8038,0.8038,0.7959,0.6954,0.4318,0.6366,0.5871,0.0505,0.0,0.0,0.0,0.0,0.0,0.0,0.0,0.0,0.0,0.0,0.0,0.0,0.0,0.0,0.0,0.0,0.0,0.0,0.0,0.0,0.0,0.0,0.0,0.0,0.0,-0.1519,-0.4111,-0.6275,-0.7084,-0.7074,-0.7074,-0.7081,-0.691,-0.5819,-0.5458,-0.5463,-0.5463,-0.5463,-0.546,-0.5534,-0.6254,-0.7074,-0.7074,-0.7074,-0.6805,-0.5725,-0.5458,-0.5463,-0.5463,-0.5463,-0.5463,-0.5463,-0.5463,-0.5463,-0.5463,-0.5458,-0.5819,-0.691,-0.7078,-0.7068,-0.7068,-0.7125,-0.7195,-0.7363,-0.7486,-0.762,-0.7699,-0.7838,-0.7926,-0.7916,-0.7916,-0.795,-0.8035,-0.8038,-0.8038,-0.8038,-0.8038,-0.8038,-0.8038,-0.9657,-1.0993,-1.2024,-1.2998,-1.3598,-1.3793,-1.4029,-1.4776,-1.5593,-1.5847,-1.638,-1.722,-1.722,-1.722,-1.7379,-1.8507,-1.8993,-1.9157,-1.9587,-2.0346,-2.0982,0.8038,0.8038,0.8038,0.8038,0.8038,0.8038,0.8038,0.8038,0.8038,0.8038,0.7959,0.7153,0.4822,0.5954,0.4951,0.0404,0.0,0.0,0.0,0.0,0.0,0.0,0.0,0.0,0.0,0.0,0.0,0.0,0.0,0.0,0.0,0.0,0.0,0.0,0.0,0.0,0.0,0.0,0.0,0.0,0.0,0.0,-0.0447,-0.4476,-0.6281,-0.6554,-0.6554,-0.6828,-0.6831,-0.4832,-0.3662,-0.3126,-0.3486,-0.3575,-0.3575,-0.3575,-0.5018,-0.656,-0.6554,-0.6831,-0.6649,-0.4652,-0.3575,-0.3037,-0.3037,-0.3037,-0.3037,-0.3037,-0.3037,-0.3037,-0.3037,-0.3035,-0.3666,-0.5673,-0.6468,-0.6821,-0.7029,-0.7138,-0.7031,-0.6847,-0.7298,-0.7475,-0.7255,-0.7684,-0.7965,-0.8045,-0.8041,-0.8038,-0.8038,-0.8038,-0.8038,-0.8038,-0.8038,-0.8062,-0.8106,-0.9598,-1.0563,-1.0822,-1.2224,-1.3074,-1.3558,-1.347,-1.3824,-1.4247,-1.4247,-1.4366,-1.4604,-1.4604,-1.4604,-1.4743,-1.6406,-1.7236,-1.7462,-1.7598,-1.8746,-2.0131,0.8038,0.8038,0.8038,0.8038,0.8038,0.8038,0.8038,0.8038,0.8038,0.8038,0.7959,0.7869,0.7459,0.372,0.0905,0.0101,0.0,0.0,0.0,0.0,0.0,0.0,0.0,0.0,0.0,0.0,0.0,0.0,0.0,0.0,0.0,0.0,0.0,0.0,0.0,0.0,0.0,0.0,0.0,0.0,0.0,0.0,-0.0089,-0.0805,-0.2412,-0.4109,-0.4109,-0.5382,-0.7039,-0.6671,-0.3862,-0.0898,-0.2967,-0.3599,-0.3599,-0.3599,-0.3871,-0.4137,-0.4115,-0.5565,-0.7039,-0.6671,-0.3502,-0.0539,-0.0539,-0.0539,-0.0539,-0.0539,-0.0539,-0.0539,-0.0539,-0.0537,-0.0719,-0.1007,-0.3342,-0.5578,-0.6898,-0.7112,-0.6415,-0.443,-0.6195,-0.6819,-0.4792,-0.6634,-0.7972,-0.7969,-0.8048,-0.8038,-0.8038,-0.8038,-0.8038,-0.8038,-0.8038,-0.816,-0.8411,-0.8796,-0.9145,-0.9455,-0.9838,-1.0128,-1.0313,-1.0441,-1.123,-1.2573,-1.2573,-1.3287,-1.4604,-1.4604,-1.4604,-1.4624,-1.5204,-1.5434,-1.5497,-1.585,-1.6202,-1.6519,0.8038,0.8038,0.8038,0.8038,0.8038,0.8038,0.8038,0.8038,0.8038,0.8038,0.8048,0.7959,0.7972,0.5837,0.3115,0.0302,0.0,0.0,0.0,0.0,0.0,0.0,0.0,0.0,0.0,0.0,0.0,0.0,0.0,0.0,0.0,0.0,0.0,0.0,0.0,0.0,0.0,0.0,0.0,0.0,0.0,0.0,0.0,0.0,-0.0648,-0.1664,-0.1664,-0.2391,-0.3285,-0.3285,-0.1825,-0.0183,-0.1279,-0.1657,-0.1668,-0.1649,-0.1632,-0.1618,-0.1702,-0.2422,-0.3236,-0.3236,-0.1617,0.0,0.0,0.0,0.0,0.0,0.0,0.0,0.0,0.0,0.0,0.0,-0.126,-0.3318,-0.6656,-0.7079,-0.6236,-0.3889,-0.3517,-0.3593,-0.4014,-0.3817,-0.4926,-0.7769,-0.7962,-0.7952,-0.8038,-0.8038,-0.8038,-0.8038,-0.8123,-0.8265,-0.8479,-0.8632,-0.8859,-0.9154,-0.9306,-0.9462,-0.9615,-0.9754,-1.0179,-1.0899,-1.0899,-1.1378,-1.1976,-1.1976,-1.1976,-1.2113,-1.3265,-1.3709,-1.3737,-1.3945,-1.477,-1.558,0.8038,0.8038,0.8038,0.8038,0.8038,0.8038,0.8038,0.8038,0.8038,0.8038,0.8038,0.8045,0.7962,0.7969,0.6345,0.2211,0.0704,0.0,0.0,0.0,0.0,0.0,0.0,0.0,0.0,0.0,0.0,0.0,0.0,0.0,0.0,0.0,0.0,0.0,0.0,0.0,0.0,0.0,0.0,0.0,0.0,0.0,0.0,0.0,0.0,0.0,0.0,0.0,0.0,0.0,0.0,0.0,0.0,0.0,0.0,0.0,0.0,0.0,0.0,0.0,0.0,0.0,0.0,0.0,0.0,0.0,0.0,0.0,0.0,0.0,0.0,0.0,0.0,0.0,0.0,-0.1257,-0.492,-0.6392,-0.6037,-0.3155,-0.1087,-0.0807,-0.2914,-0.1206,-0.2211,-0.7575,-0.7979,-0.7969,-0.8048,-0.8048,-0.8062,-0.8092,-0.8241,-0.8387,-0.8533,-0.872,-0.8947,-0.9208,-0.9361,-0.9513,-0.9663,-0.9771,-0.9822,-0.9822,-0.9822,-0.9822,-0.9822,-0.9822,-0.9822,-0.995,-1.1401,-1.1939,-1.1959,-1.2146,-1.32,-1.4247,0.8038,0.8038,0.8038,0.8038,0.8038,0.8038,0.8038,0.8038,0.8038,0.8038,0.8038,0.8038,0.8041,0.7962,0.7875,0.7475,0.2916,0.0,0.0,0.0,0.0,0.0,0.0,0.0,0.0,0.0,0.0,0.0,0.0,0.0,0.0,0.0,0.0,0.0,0.0,0.0,0.0,0.0,0.0,0.0,0.0,0.0,0.0,0.0,0.0,0.0,0.0,0.0,0.0,0.0,0.0,0.0,0.0,0.0,0.0,0.0,0.0,0.0,0.0,0.0,0.0,0.0,0.0,0.0,0.0,0.0,0.0,0.0,0.0,0.0,0.0,0.0,0.0,0.0,0.0,-0.0091,-0.0472,-0.429,-0.5394,-0.0782,-0.01,-0.0101,-0.0303,-0.0101,-0.2214,-0.7607,-0.8002,-0.7982,-0.7972,-0.7972,-0.8126,-0.8248,-0.8391,-0.854,-0.8693,-0.8977,-0.9201,-0.9364,-0.952,-0.9666,-0.9805,-0.9815,-0.9822,-0.9822,-0.9822,-0.9822,-0.9822,-0.9822,-0.9822,-0.9822,-0.9954,-0.9957,-0.9974,-1.0129,-1.0409,-1.0693,0.8038,0.8038,0.8038,0.8038,0.8038,0.8038,0.8038,0.8038,0.8038,0.8038,0.8038,0.8038,0.8038,0.8048,0.7959,0.7979,0.4624,0.1808,0.0101,0.0,0.0,0.0,0.0,0.0,0.0,0.0,0.0,0.0,0.0,0.0,0.0,0.0,0.0,0.0,0.0,0.0,0.0,0.0,0.0,0.0,0.0,0.0,0.0,0.0,0.0,0.0,0.0,0.0,0.0,0.0,0.0,0.0,0.0,0.0,0.0,0.0,0.0,0.0,0.0,0.0,0.0,0.0,0.0,0.0,0.0,0.0,0.0,0.0,0.0,0.0,0.0,0.0,0.0,0.0,0.0,0.0,0.0,-0.1541,-0.2045,-0.0196,0.0,0.0,0.0,0.0,-0.0806,-0.292,-0.5144,-0.6358,-0.6437,-0.7444,-0.816,-0.8394,-0.8455,-0.8557,-0.871,-0.8916,-0.9093,-0.9242,-0.9395,-0.9547,-0.9693,-0.9781,-0.9822,-0.9822,-0.9822,-0.9822,-0.9822,-0.9822,-0.9822,-0.9822,-0.9822,-0.988,-0.9971,-1.0029,-1.0202,-1.0419,0.8038,0.8038,0.8038,0.8038,0.8038,0.8038,0.8038,0.8038,0.8038,0.8038,0.8038,0.8038,0.8038,0.8038,0.8048,0.7972,0.6342,0.3718,0.0201,0.0,0.0,0.0,0.0,0.0,0.0,0.0,0.0,0.0,0.0,0.0,0.0,0.0,0.0,0.0,0.0,0.0,0.0,0.0,0.0,0.0,0.0,0.0,0.0,0.0,0.0,0.0,0.0,0.0,0.0,0.0,0.0,0.0,0.0,0.0,0.0,0.0,0.0,0.0,0.0,0.0,0.0,0.0,0.0,0.0,0.0,0.0,0.0,0.0,0.0,0.0,0.0,0.0,0.0,0.0,0.0,0.0,0.0,0.0,0.0,0.0,0.0,0.0,0.0,0.0,0.0,0.0,-0.2318,-0.4437,-0.6145,-0.7347,-0.8083,-0.8377,-0.8486,-0.8577,-0.8781,-0.893,-0.9079,-0.9225,-0.9381,-0.953,-0.968,-0.9778,-0.9822,-0.9822,-0.9822,-0.9822,-0.9822,-0.9822,-0.9822,-0.9822,-0.9822,-0.9914,-1.0056,-1.0103,-1.028,-1.05,0.8038,0.8038,0.8038,0.8038,0.8038,0.8038,0.8038,0.8038,0.8038,0.8038,0.8038,0.8038,0.8038,0.8038,0.8048,0.7972,0.7982,0.5744,0.0302,0.0,0.0,0.0,0.0,0.0,0.0,0.0,0.0,0.0,0.0,0.0,0.0,0.0,0.0,0.0,0.0,0.0,0.0,0.0,0.0,0.0,0.0,0.0,0.0,0.0,0.0,0.0,0.0,0.0,0.0,0.0,0.0,0.0,0.0,0.0,0.0,0.0,0.0,0.0,0.0,0.0,0.0,0.0,0.0,0.0,0.0,0.0,0.0,0.0,0.0,0.0,0.0,0.0,0.0,0.0,0.0,0.0,0.0,0.0,0.0,0.0,0.0,0.0,0.0,0.0,0.0,0.0,0.0,-0.2322,-0.7613,-0.7992,-0.8106,-0.8292,-0.8387,-0.8628,-0.8933,-0.9079,-0.9228,-0.9384,-0.9537,-0.9683,-0.9822,-0.9822,-0.9822,-0.9822,-0.9822,-0.9822,-0.9822,-0.9822,-0.9822,-0.9822,-0.9822,-0.9914,-1.007,-1.0222,-1.0371,-1.0514,0.8038,0.8038,0.8038,0.8038,0.8038,0.8038,0.8038,0.8038,0.8038,0.8038,0.8038,0.8038,0.8038,0.8038,0.8041,0.8048,0.7975,0.5749,0.0303,0.0,0.0,0.0,0.0,0.0,0.0,0.0,0.0,0.0,0.0,0.0,0.0,0.0,0.0,0.0,0.0,0.0,0.0,0.0,0.0,0.0,0.0,0.0,0.0,0.0,0.0,0.0,0.0,0.0,0.0,0.0,0.0,0.0,0.0,0.0,0.0,0.0,0.0,0.0,0.0,0.0,0.0,0.0,0.0,0.0,0.0,0.0,0.0,0.0,0.0,0.0,0.0,0.0,0.0,0.0,0.0,0.0,0.0,0.0,0.0,0.0,0.0,0.0,0.0,0.0,0.0,0.0,0.0,-0.0705,-0.2315,-0.4173,-0.6117,-0.8187,-0.8501,-0.8645,-0.8937,-0.8981,-0.913,-0.9381,-0.9429,-0.9581,-0.9822,-0.9822,-0.9822,-0.9822,-0.9822,-0.9822,-0.9822,-0.9822,-0.9822,-0.9822,-0.9822,-0.9914,-1.007,-1.0222,-1.0371,-1.0514,0.8038,0.8089,0.813,0.813,0.8177,0.8194,0.814,0.813,0.8109,0.8048,0.8038,0.8038,0.8038,0.8038,0.8038,0.8038,0.7045,0.4632,0.0303,0.0,0.0,0.0,0.0,0.0,0.0,0.0,0.0,0.0,0.0,0.0,0.0,0.0,0.0,0.0,0.0,0.0,0.0,0.0,0.0,0.0,0.0,0.0,0.0,0.0,0.0,0.0,0.0,0.0,0.0,0.0,0.0,0.0,0.0,0.0,0.0,0.0,0.0,0.0,0.0,0.0,0.0,0.0,0.0,0.0,0.0,0.0,0.0,0.0,0.0,0.0,0.0,0.0,0.0,0.0,0.0,0.0,0.0,0.0,0.0,0.0,0.0,0.0,0.0,0.0,0.0,0.0,0.0,0.0,0.0,-0.1524,-0.3203,-0.4982,-0.7304,-0.875,-0.895,-0.8944,-0.9086,-0.9381,-0.9381,-0.9537,-0.9822,-0.9822,-0.9822,-0.9822,-0.9822,-0.9822,-0.9822,-0.9822,-0.9822,-0.9822,-0.9822,-0.9914,-1.0059,-1.0154,-1.0317,-1.0507,0.8062,0.8184,0.8286,0.8272,0.8387,0.8438,0.8309,0.8279,0.8225,0.8096,0.8069,0.8065,0.8079,0.8079,0.8079,0.8079,0.5548,0.2826,0.0202,0.0,0.0,0.0,0.0,0.0,0.0,0.0,0.0,0.0,0.0,0.0,0.0,0.0,0.0,0.0,0.0,0.0,0.0,0.0,0.0,0.0,0.0,0.0,0.0,0.0,0.0,0.0,0.0,0.0,0.0,0.0,0.0,0.0,0.0,0.0,0.0,0.0,0.0,0.0,0.0,0.0,0.0,0.0,0.0,0.0,0.0,0.0,0.0,0.0,0.0,0.0,0.0,0.0,0.0,0.0,0.0,0.0,0.0,0.0,0.0,0.0,0.0,0.0,0.0,0.0,0.0,0.0,0.0,0.0,0.0,0.0,0.0,0.0,-0.5543,-0.8696,-0.8863,-0.8846,-0.9093,-0.9381,-0.9381,-0.9537,-0.9822,-0.9822,-0.9822,-0.9822,-0.9822,-0.9822,-0.9822,-0.9822,-0.9822,-0.9822,-0.9822,-0.9907,-1.0029,-1.0042,-1.0222,-1.0456,0.8241,0.8336,0.8401,0.8289,0.8387,0.8472,0.8442,0.834,0.8299,0.8377,0.8289,0.8262,0.8374,0.8387,0.8387,0.8387,0.5656,0.2817,0.0207,0.0,0.0,0.0,0.0,0.0,0.0,0.0,0.0,0.0,0.0,0.0,0.0,0.0,0.0,0.0,0.0,0.0,0.0,0.0,0.0,0.0,0.0,0.0,0.0,0.0,0.0,0.0,0.0,0.0,0.0,0.0,0.0,0.0,0.0,0.0,0.0,0.0,0.0,0.0,0.0,0.0,0.0,0.0,0.0,0.0,0.0,0.0,0.0,0.0,0.0,0.0,0.0,0.0,0.0,0.0,0.0,0.0,0.0,0.0,0.0,0.0,0.0,0.0,0.0,0.0,0.0,0.0,0.0,0.0,0.0,0.0,0.0,0.0,-0.5617,-0.8716,-0.8886,-0.8883,-0.9123,-0.9381,-0.9381,-0.9537,-0.9822,-0.9822,-0.9822,-0.9822,-0.9822,-0.9822,-0.9822,-0.9822,-0.9822,-0.9822,-0.9822,-0.9842,-0.9883,-1.0005,-1.009,-1.0178,0.8387,0.8489,0.8567,0.8492,0.8601,0.8676,0.8601,0.8526,0.8479,0.8482,0.8418,0.8397,0.8472,0.8482,0.8489,0.8499,0.5728,0.2854,0.021,0.0,0.0,0.0,0.0,0.0,0.0,0.0,0.0,0.0,0.0,0.0,0.0,0.0,0.0,0.0,0.0,0.0,0.0,0.0,0.0,0.0,0.0,0.0,0.0,0.0,0.0,0.0,0.0,0.0,0.0,0.0,0.0,0.0,0.0,0.0,0.0,0.0,0.0,0.0,0.0,0.0,0.0,0.0,0.0,0.0,0.0,0.0,0.0,0.0,0.0,0.0,0.0,0.0,0.0,0.0,0.0,0.0,0.0,0.0,0.0,0.0,0.0,0.0,0.0,0.0,0.0,0.0,0.0,0.0,0.0,0.0,0.0,0.0,-0.2975,-0.5899,-0.89,-0.7469,-0.6878,-0.7031,-0.8693,-0.9571,-0.9741,-0.9846,-0.9839,-0.9836,-0.9825,-0.9822,-0.9822,-0.9822,-0.9822,-0.9822,-0.9822,-0.9822,-0.9832,-0.991,-0.9985,-1.008,0.8526,0.8645,0.8743,0.8716,0.8835,0.8896,0.8767,0.8726,0.8672,0.8574,0.8537,0.853,0.8557,0.856,0.857,0.8594,0.6323,0.342,0.0213,0.0,0.0,0.0,0.0,0.0,0.0,0.0,0.0,0.0,0.0,0.0,0.0,0.0,0.0,0.0,0.0,0.0,0.0,0.0,0.0,0.0,0.0,0.0,0.0,0.0,0.0,0.0,0.0,0.0,0.0,0.0,0.0,0.0,0.0,0.0,0.0,0.0,0.0,0.0,0.0,0.0,0.0,0.0,0.0,0.0,0.0,0.0,0.0,0.0,0.0,0.0,0.0,0.0,0.0,0.0,0.0,0.0,0.0,0.0,0.0,0.0,0.0,0.0,0.0,0.0,0.0,0.0,0.0,0.0,0.0,0.0,0.0,0.0,0.0,-0.2429,-0.7315,-0.5465,-0.4505,-0.4578,-0.7207,-0.8665,-0.9023,-0.8998,-0.9236,-0.9852,-0.9836,-0.9825,-0.9822,-0.9822,-0.9822,-0.9822,-0.9822,-0.9822,-0.9822,-0.9822,-0.9917,-1.0066,0.8706,0.8804,0.8866,0.8733,0.8835,0.893,0.891,0.8794,0.875,0.8862,0.876,0.873,0.8862,0.8876,0.8886,0.891,0.8462,0.585,0.0326,0.0,0.0,0.0,0.0,0.0,0.0,0.0,0.0,0.0,0.0,0.0,0.0,0.0,0.0,0.0,0.0,0.0,0.0,0.0,0.0,0.0,0.0,0.0,0.0,0.0,0.0,0.0,0.0,0.0,0.0,0.0,0.0,0.0,0.0,0.0,0.0,0.0,0.0,0.0,0.0,0.0,0.0,0.0,0.0,0.0,0.0,0.0,0.0,0.0,0.0,0.0,0.0,0.0,0.0,0.0,0.0,0.0,0.0,0.0,0.0,0.0,0.0,0.0,0.0,0.0,0.0,0.0,0.0,0.0,0.0,0.0,0.0,0.0,0.0,-0.0336,-0.1233,-0.3422,-0.4526,-0.4483,-0.4908,-0.5341,-0.5536,-0.5533,-0.7131,-0.9856,-0.9852,-0.9839,-0.9822,-0.9822,-0.9822,-0.9822,-0.9822,-0.9822,-0.9822,-0.9822,-0.9917,-1.0053,0.8852,0.8893,0.8916,0.8849,0.8893,0.894,0.894,0.8879,0.8862,0.893,0.8879,0.8862,0.893,0.894,0.8974,0.9066,0.9086,0.7951,0.5338,0.1931,0.0793,0.2468,0.0891,0.0,0.0,0.0,0.0,0.0,0.0,0.0,0.0,0.0,0.0,0.0,0.0,0.0,0.0,0.0,0.0,0.0,0.0,0.0,0.0,0.0,0.0,0.0,0.0,0.0,0.0,0.0,0.0,0.0,0.0,0.0,0.0,0.0,0.0,0.0,0.0,0.0,0.0,0.0,0.0,0.0,0.0,0.2603,0.4042,0.071,0.0,0.0,0.0,0.0,0.0,0.0,0.0,0.0,0.0,0.0,0.0,0.0,0.0,0.0,0.0,0.0,0.0,0.0,0.0,0.0,0.0,0.0,0.0,0.0,0.0,0.0,0.0,-0.1266,-0.1989,-0.2004,-0.2036,-0.2066,-0.2217,-0.2214,-0.2948,-0.4545,-0.8258,-0.9744,-0.9839,-0.9839,-0.9832,-0.9822,-0.9822,-0.9822,-0.9822,-0.9822,-0.9863,-0.992]}]]